<?xml version="1.0" encoding="UTF-8" standalone="no" ?>
<gpx xmlns="http://www.topografix.com/GPX/1/1" xmlns:xsi="http://www.w3.org/2001/XMLSchema-instance" xsi:schemaLocation="http://www.topografix.com/GPX/1/1 http://www.topografix.com/GPX/1/1/gpx.xsd" version="1.1" creator="VisuGPX - https://www.visugpx.com">
  <metadata>
    <name>pontoise-genicourt-livilliers</name>
  </metadata>
  <trk>
    <name><![CDATA[pontoise-genicourt-livilliers]]></name>
    <trkseg>
      <trkpt lat="49.06545" lon="2.11057">
        <ele>95.3</ele>
        <time>2022-10-20T13:26:03Z</time>
      </trkpt>
      <trkpt lat="49.06545" lon="2.11059">
        <ele>95.6</ele>
        <time>2022-10-20T13:28:32Z</time>
      </trkpt>
      <trkpt lat="49.06545" lon="2.11014">
        <ele>75</ele>
        <time>2022-10-20T07:59:32Z</time>
      </trkpt>
      <trkpt lat="49.06544" lon="2.11013">
        <ele>75</ele>
        <time>2022-10-20T07:59:33Z</time>
      </trkpt>
      <trkpt lat="49.06537" lon="2.11004">
        <ele>75.3</ele>
        <time>2022-10-20T07:59:42Z</time>
      </trkpt>
      <trkpt lat="49.06531" lon="2.10991">
        <ele>75.7</ele>
        <time>2022-10-20T07:59:57Z</time>
      </trkpt>
      <trkpt lat="49.06523" lon="2.10984">
        <ele>76</ele>
        <time>2022-10-20T08:00:02Z</time>
      </trkpt>
      <trkpt lat="49.06516" lon="2.10976">
        <ele>76.3</ele>
        <time>2022-10-20T08:00:09Z</time>
      </trkpt>
      <trkpt lat="49.06508" lon="2.10967">
        <ele>76.6</ele>
        <time>2022-10-20T08:00:18Z</time>
      </trkpt>
      <trkpt lat="49.065" lon="2.10959">
        <ele>76.3</ele>
        <time>2022-10-20T08:00:26Z</time>
      </trkpt>
      <trkpt lat="49.06493" lon="2.10951">
        <ele>76.6</ele>
        <time>2022-10-20T08:00:33Z</time>
      </trkpt>
      <trkpt lat="49.06484" lon="2.10944">
        <ele>76.4</ele>
        <time>2022-10-20T08:00:41Z</time>
      </trkpt>
      <trkpt lat="49.06476" lon="2.10938">
        <ele>76.2</ele>
        <time>2022-10-20T08:00:48Z</time>
      </trkpt>
      <trkpt lat="49.06469" lon="2.10929">
        <ele>76.4</ele>
        <time>2022-10-20T08:00:59Z</time>
      </trkpt>
      <trkpt lat="49.06461" lon="2.10923">
        <ele>75.8</ele>
        <time>2022-10-20T08:01:06Z</time>
      </trkpt>
      <trkpt lat="49.06458" lon="2.1091">
        <ele>73.4</ele>
        <time>2022-10-20T08:01:18Z</time>
      </trkpt>
      <trkpt lat="49.06465" lon="2.10899">
        <ele>71.4</ele>
        <time>2022-10-20T08:01:28Z</time>
      </trkpt>
      <trkpt lat="49.0647" lon="2.10887">
        <ele>71</ele>
        <time>2022-10-20T08:01:37Z</time>
      </trkpt>
      <trkpt lat="49.06477" lon="2.10877">
        <ele>70.1</ele>
        <time>2022-10-20T08:01:48Z</time>
      </trkpt>
      <trkpt lat="49.06484" lon="2.10866">
        <ele>68.5</ele>
        <time>2022-10-20T08:01:56Z</time>
      </trkpt>
      <trkpt lat="49.06492" lon="2.10856">
        <ele>67.2</ele>
        <time>2022-10-20T08:02:04Z</time>
      </trkpt>
      <trkpt lat="49.06497" lon="2.10844">
        <ele>66.7</ele>
        <time>2022-10-20T08:02:15Z</time>
      </trkpt>
      <trkpt lat="49.06506" lon="2.10835">
        <ele>66.4</ele>
        <time>2022-10-20T08:02:23Z</time>
      </trkpt>
      <trkpt lat="49.06514" lon="2.10827">
        <ele>64.6</ele>
        <time>2022-10-20T08:02:33Z</time>
      </trkpt>
      <trkpt lat="49.06523" lon="2.10829">
        <ele>63.7</ele>
        <time>2022-10-20T08:02:40Z</time>
      </trkpt>
      <trkpt lat="49.06527" lon="2.10815">
        <ele>63.5</ele>
        <time>2022-10-20T08:02:56Z</time>
      </trkpt>
      <trkpt lat="49.06536" lon="2.10816">
        <ele>62.1</ele>
        <time>2022-10-20T08:03:03Z</time>
      </trkpt>
      <trkpt lat="49.06545" lon="2.10813">
        <ele>63.3</ele>
        <time>2022-10-20T08:03:13Z</time>
      </trkpt>
      <trkpt lat="49.06554" lon="2.10818">
        <ele>62</ele>
        <time>2022-10-20T08:03:19Z</time>
      </trkpt>
      <trkpt lat="49.06566" lon="2.10818">
        <ele>62.2</ele>
        <time>2022-10-20T08:03:31Z</time>
      </trkpt>
      <trkpt lat="49.06577" lon="2.10818">
        <ele>60</ele>
        <time>2022-10-20T08:03:39Z</time>
      </trkpt>
      <trkpt lat="49.06588" lon="2.10823">
        <ele>60.2</ele>
        <time>2022-10-20T08:03:43Z</time>
      </trkpt>
      <trkpt lat="49.06597" lon="2.1083">
        <ele>60</ele>
        <time>2022-10-20T08:03:47Z</time>
      </trkpt>
      <trkpt lat="49.06606" lon="2.10836">
        <ele>59.5</ele>
        <time>2022-10-20T08:04:12Z</time>
      </trkpt>
      <trkpt lat="49.06614" lon="2.10845">
        <ele>58.2</ele>
        <time>2022-10-20T08:04:21Z</time>
      </trkpt>
      <trkpt lat="49.06622" lon="2.10855">
        <ele>60.1</ele>
        <time>2022-10-20T08:04:28Z</time>
      </trkpt>
      <trkpt lat="49.0663" lon="2.10865">
        <ele>60.1</ele>
        <time>2022-10-20T08:04:34Z</time>
      </trkpt>
      <trkpt lat="49.06636" lon="2.10875">
        <ele>60.4</ele>
        <time>2022-10-20T08:04:40Z</time>
      </trkpt>
      <trkpt lat="49.06643" lon="2.10885">
        <ele>60.2</ele>
        <time>2022-10-20T08:04:54Z</time>
      </trkpt>
      <trkpt lat="49.06649" lon="2.10896">
        <ele>61.5</ele>
        <time>2022-10-20T08:05:05Z</time>
      </trkpt>
      <trkpt lat="49.06657" lon="2.10905">
        <ele>60.6</ele>
        <time>2022-10-20T08:05:10Z</time>
      </trkpt>
      <trkpt lat="49.06663" lon="2.10916">
        <ele>62</ele>
        <time>2022-10-20T08:05:16Z</time>
      </trkpt>
      <trkpt lat="49.06673" lon="2.10916">
        <ele>62.1</ele>
        <time>2022-10-20T08:05:28Z</time>
      </trkpt>
      <trkpt lat="49.06682" lon="2.10911">
        <ele>62.2</ele>
        <time>2022-10-20T08:05:35Z</time>
      </trkpt>
      <trkpt lat="49.06689" lon="2.1092">
        <ele>60.7</ele>
        <time>2022-10-20T08:05:44Z</time>
      </trkpt>
      <trkpt lat="49.06699" lon="2.10922">
        <ele>60</ele>
        <time>2022-10-20T08:06:04Z</time>
      </trkpt>
      <trkpt lat="49.06709" lon="2.10917">
        <ele>61.2</ele>
        <time>2022-10-20T08:06:09Z</time>
      </trkpt>
      <trkpt lat="49.06716" lon="2.10908">
        <ele>63</ele>
        <time>2022-10-20T08:06:17Z</time>
      </trkpt>
      <trkpt lat="49.06725" lon="2.10903">
        <ele>61.2</ele>
        <time>2022-10-20T08:06:27Z</time>
      </trkpt>
      <trkpt lat="49.06735" lon="2.10902">
        <ele>61.9</ele>
        <time>2022-10-20T08:06:34Z</time>
      </trkpt>
      <trkpt lat="49.06744" lon="2.10899">
        <ele>64.6</ele>
        <time>2022-10-20T08:06:41Z</time>
      </trkpt>
      <trkpt lat="49.06753" lon="2.10891">
        <ele>65.5</ele>
        <time>2022-10-20T08:06:49Z</time>
      </trkpt>
      <trkpt lat="49.06763" lon="2.10893">
        <ele>67.5</ele>
        <time>2022-10-20T08:06:56Z</time>
      </trkpt>
      <trkpt lat="49.06771" lon="2.10884">
        <ele>67.9</ele>
        <time>2022-10-20T08:07:04Z</time>
      </trkpt>
      <trkpt lat="49.06779" lon="2.10879">
        <ele>65.3</ele>
        <time>2022-10-20T08:07:11Z</time>
      </trkpt>
      <trkpt lat="49.06787" lon="2.10871">
        <ele>68.3</ele>
        <time>2022-10-20T08:07:21Z</time>
      </trkpt>
      <trkpt lat="49.06796" lon="2.10864">
        <ele>69.4</ele>
        <time>2022-10-20T08:07:31Z</time>
      </trkpt>
      <trkpt lat="49.06805" lon="2.10857">
        <ele>68.2</ele>
        <time>2022-10-20T08:07:39Z</time>
      </trkpt>
      <trkpt lat="49.06815" lon="2.10856">
        <ele>68.6</ele>
        <time>2022-10-20T08:07:45Z</time>
      </trkpt>
      <trkpt lat="49.06824" lon="2.10854">
        <ele>68.4</ele>
        <time>2022-10-20T08:07:52Z</time>
      </trkpt>
      <trkpt lat="49.06833" lon="2.10851">
        <ele>73.5</ele>
        <time>2022-10-20T08:07:57Z</time>
      </trkpt>
      <trkpt lat="49.06842" lon="2.10849">
        <ele>73</ele>
        <time>2022-10-20T08:08:02Z</time>
      </trkpt>
      <trkpt lat="49.06852" lon="2.10847">
        <ele>72.9</ele>
        <time>2022-10-20T08:08:07Z</time>
      </trkpt>
      <trkpt lat="49.06862" lon="2.10842">
        <ele>71.9</ele>
        <time>2022-10-20T08:08:20Z</time>
      </trkpt>
      <trkpt lat="49.0687" lon="2.10835">
        <ele>72.2</ele>
        <time>2022-10-20T08:08:35Z</time>
      </trkpt>
      <trkpt lat="49.06881" lon="2.10833">
        <ele>72.5</ele>
        <time>2022-10-20T08:08:40Z</time>
      </trkpt>
      <trkpt lat="49.06891" lon="2.10827">
        <ele>72.8</ele>
        <time>2022-10-20T08:08:45Z</time>
      </trkpt>
      <trkpt lat="49.06898" lon="2.10818">
        <ele>72.9</ele>
        <time>2022-10-20T08:09:00Z</time>
      </trkpt>
      <trkpt lat="49.06907" lon="2.10817">
        <ele>72.8</ele>
        <time>2022-10-20T08:09:05Z</time>
      </trkpt>
      <trkpt lat="49.06915" lon="2.1081">
        <ele>73.1</ele>
        <time>2022-10-20T08:09:09Z</time>
      </trkpt>
      <trkpt lat="49.06922" lon="2.10801">
        <ele>73</ele>
        <time>2022-10-20T08:09:20Z</time>
      </trkpt>
      <trkpt lat="49.06929" lon="2.1079">
        <ele>74.4</ele>
        <time>2022-10-20T08:09:26Z</time>
      </trkpt>
      <trkpt lat="49.06936" lon="2.1078">
        <ele>74.6</ele>
        <time>2022-10-20T08:09:32Z</time>
      </trkpt>
      <trkpt lat="49.0694" lon="2.10767">
        <ele>75.2</ele>
        <time>2022-10-20T08:09:44Z</time>
      </trkpt>
      <trkpt lat="49.06945" lon="2.10755">
        <ele>75.7</ele>
        <time>2022-10-20T08:09:50Z</time>
      </trkpt>
      <trkpt lat="49.06949" lon="2.10742">
        <ele>75.8</ele>
        <time>2022-10-20T08:09:55Z</time>
      </trkpt>
      <trkpt lat="49.06952" lon="2.10728">
        <ele>76.1</ele>
        <time>2022-10-20T08:10:05Z</time>
      </trkpt>
      <trkpt lat="49.06959" lon="2.10716">
        <ele>76.7</ele>
        <time>2022-10-20T08:10:13Z</time>
      </trkpt>
      <trkpt lat="49.06963" lon="2.10703">
        <ele>76.9</ele>
        <time>2022-10-20T08:10:20Z</time>
      </trkpt>
      <trkpt lat="49.0697" lon="2.10693">
        <ele>77.2</ele>
        <time>2022-10-20T08:10:29Z</time>
      </trkpt>
      <trkpt lat="49.06978" lon="2.10684">
        <ele>77.4</ele>
        <time>2022-10-20T08:10:34Z</time>
      </trkpt>
      <trkpt lat="49.06985" lon="2.10673">
        <ele>77.8</ele>
        <time>2022-10-20T08:10:46Z</time>
      </trkpt>
      <trkpt lat="49.06993" lon="2.10665">
        <ele>78.2</ele>
        <time>2022-10-20T08:10:52Z</time>
      </trkpt>
      <trkpt lat="49.07" lon="2.10655">
        <ele>78.5</ele>
        <time>2022-10-20T08:10:57Z</time>
      </trkpt>
      <trkpt lat="49.07005" lon="2.10643">
        <ele>79</ele>
        <time>2022-10-20T08:11:10Z</time>
      </trkpt>
      <trkpt lat="49.07014" lon="2.10636">
        <ele>79.2</ele>
        <time>2022-10-20T08:11:16Z</time>
      </trkpt>
      <trkpt lat="49.07022" lon="2.1063">
        <ele>79.6</ele>
        <time>2022-10-20T08:11:21Z</time>
      </trkpt>
      <trkpt lat="49.07029" lon="2.10619">
        <ele>79.9</ele>
        <time>2022-10-20T08:11:32Z</time>
      </trkpt>
      <trkpt lat="49.07037" lon="2.10612">
        <ele>80.3</ele>
        <time>2022-10-20T08:11:39Z</time>
      </trkpt>
      <trkpt lat="49.07044" lon="2.10602">
        <ele>81.2</ele>
        <time>2022-10-20T08:11:46Z</time>
      </trkpt>
      <trkpt lat="49.07052" lon="2.10596">
        <ele>81.6</ele>
        <time>2022-10-20T08:11:54Z</time>
      </trkpt>
      <trkpt lat="49.07059" lon="2.10585">
        <ele>82</ele>
        <time>2022-10-20T08:12:06Z</time>
      </trkpt>
      <trkpt lat="49.07066" lon="2.10574">
        <ele>82.3</ele>
        <time>2022-10-20T08:12:15Z</time>
      </trkpt>
      <trkpt lat="49.07059" lon="2.10584">
        <ele>82.2</ele>
        <time>2022-10-20T08:12:36Z</time>
      </trkpt>
      <trkpt lat="49.07066" lon="2.10576">
        <ele>81.1</ele>
        <time>2022-10-20T08:13:01Z</time>
      </trkpt>
      <trkpt lat="49.07074" lon="2.1057">
        <ele>81.4</ele>
        <time>2022-10-20T08:13:06Z</time>
      </trkpt>
      <trkpt lat="49.0708" lon="2.10558">
        <ele>82.5</ele>
        <time>2022-10-20T08:13:15Z</time>
      </trkpt>
      <trkpt lat="49.07088" lon="2.10551">
        <ele>83</ele>
        <time>2022-10-20T08:13:23Z</time>
      </trkpt>
      <trkpt lat="49.07095" lon="2.10543">
        <ele>83.7</ele>
        <time>2022-10-20T08:13:31Z</time>
      </trkpt>
      <trkpt lat="49.07103" lon="2.10535">
        <ele>84.4</ele>
        <time>2022-10-20T08:13:40Z</time>
      </trkpt>
      <trkpt lat="49.07111" lon="2.10527">
        <ele>84.7</ele>
        <time>2022-10-20T08:13:48Z</time>
      </trkpt>
      <trkpt lat="49.07118" lon="2.10517">
        <ele>85.2</ele>
        <time>2022-10-20T08:13:55Z</time>
      </trkpt>
      <trkpt lat="49.07126" lon="2.10509">
        <ele>85.5</ele>
        <time>2022-10-20T08:14:03Z</time>
      </trkpt>
      <trkpt lat="49.07134" lon="2.10501">
        <ele>85.8</ele>
        <time>2022-10-20T08:14:11Z</time>
      </trkpt>
      <trkpt lat="49.07142" lon="2.10494">
        <ele>86.3</ele>
        <time>2022-10-20T08:14:22Z</time>
      </trkpt>
      <trkpt lat="49.07132" lon="2.10498">
        <ele>85.8</ele>
        <time>2022-10-20T08:14:36Z</time>
      </trkpt>
      <trkpt lat="49.07124" lon="2.10494">
        <ele>85.4</ele>
        <time>2022-10-20T08:14:42Z</time>
      </trkpt>
      <trkpt lat="49.07116" lon="2.10482">
        <ele>85.2</ele>
        <time>2022-10-20T08:14:52Z</time>
      </trkpt>
      <trkpt lat="49.07109" lon="2.10472">
        <ele>85</ele>
        <time>2022-10-20T08:14:58Z</time>
      </trkpt>
      <trkpt lat="49.07102" lon="2.10462">
        <ele>84.7</ele>
        <time>2022-10-20T08:15:06Z</time>
      </trkpt>
      <trkpt lat="49.07095" lon="2.10453">
        <ele>84.3</ele>
        <time>2022-10-20T08:15:13Z</time>
      </trkpt>
      <trkpt lat="49.07088" lon="2.10443">
        <ele>83.8</ele>
        <time>2022-10-20T08:15:19Z</time>
      </trkpt>
      <trkpt lat="49.07081" lon="2.10433">
        <ele>83.7</ele>
        <time>2022-10-20T08:15:24Z</time>
      </trkpt>
      <trkpt lat="49.07073" lon="2.10423">
        <ele>83.5</ele>
        <time>2022-10-20T08:15:31Z</time>
      </trkpt>
      <trkpt lat="49.07064" lon="2.1042">
        <ele>83</ele>
        <time>2022-10-20T08:15:37Z</time>
      </trkpt>
      <trkpt lat="49.07055" lon="2.10418">
        <ele>82.5</ele>
        <time>2022-10-20T08:15:45Z</time>
      </trkpt>
      <trkpt lat="49.07045" lon="2.10413">
        <ele>82.2</ele>
        <time>2022-10-20T08:15:54Z</time>
      </trkpt>
      <trkpt lat="49.07034" lon="2.10409">
        <ele>82</ele>
        <time>2022-10-20T08:16:05Z</time>
      </trkpt>
      <trkpt lat="49.07028" lon="2.104">
        <ele>81.5</ele>
        <time>2022-10-20T08:16:14Z</time>
      </trkpt>
      <trkpt lat="49.07022" lon="2.10388">
        <ele>80.9</ele>
        <time>2022-10-20T08:16:23Z</time>
      </trkpt>
      <trkpt lat="49.07015" lon="2.10378">
        <ele>80.3</ele>
        <time>2022-10-20T08:16:32Z</time>
      </trkpt>
      <trkpt lat="49.0701" lon="2.10366">
        <ele>79.6</ele>
        <time>2022-10-20T08:16:40Z</time>
      </trkpt>
      <trkpt lat="49.07008" lon="2.1035">
        <ele>79.3</ele>
        <time>2022-10-20T08:16:46Z</time>
      </trkpt>
      <trkpt lat="49.0701" lon="2.10337">
        <ele>78.9</ele>
        <time>2022-10-20T08:16:56Z</time>
      </trkpt>
      <trkpt lat="49.07016" lon="2.10326">
        <ele>78.9</ele>
        <time>2022-10-20T08:17:04Z</time>
      </trkpt>
      <trkpt lat="49.07021" lon="2.10314">
        <ele>78.9</ele>
        <time>2022-10-20T08:17:11Z</time>
      </trkpt>
      <trkpt lat="49.07027" lon="2.10303">
        <ele>79.3</ele>
        <time>2022-10-20T08:17:21Z</time>
      </trkpt>
      <trkpt lat="49.07034" lon="2.10294">
        <ele>79.7</ele>
        <time>2022-10-20T08:17:27Z</time>
      </trkpt>
      <trkpt lat="49.07038" lon="2.10282">
        <ele>80</ele>
        <time>2022-10-20T08:17:37Z</time>
      </trkpt>
      <trkpt lat="49.07039" lon="2.10267">
        <ele>80.4</ele>
        <time>2022-10-20T08:17:44Z</time>
      </trkpt>
      <trkpt lat="49.07033" lon="2.10256">
        <ele>80.3</ele>
        <time>2022-10-20T08:17:49Z</time>
      </trkpt>
      <trkpt lat="49.07026" lon="2.10246">
        <ele>79.6</ele>
        <time>2022-10-20T08:17:57Z</time>
      </trkpt>
      <trkpt lat="49.07019" lon="2.10237">
        <ele>78.7</ele>
        <time>2022-10-20T08:18:08Z</time>
      </trkpt>
      <trkpt lat="49.07013" lon="2.10224">
        <ele>78.1</ele>
        <time>2022-10-20T08:18:16Z</time>
      </trkpt>
      <trkpt lat="49.07013" lon="2.1021">
        <ele>77.2</ele>
        <time>2022-10-20T08:18:31Z</time>
      </trkpt>
      <trkpt lat="49.07014" lon="2.10196">
        <ele>76.9</ele>
        <time>2022-10-20T08:18:38Z</time>
      </trkpt>
      <trkpt lat="49.07009" lon="2.10184">
        <ele>75.9</ele>
        <time>2022-10-20T08:18:45Z</time>
      </trkpt>
      <trkpt lat="49.07002" lon="2.10175">
        <ele>75.2</ele>
        <time>2022-10-20T08:18:51Z</time>
      </trkpt>
      <trkpt lat="49.06996" lon="2.10164">
        <ele>74.3</ele>
        <time>2022-10-20T08:19:00Z</time>
      </trkpt>
      <trkpt lat="49.06991" lon="2.1015">
        <ele>71.8</ele>
        <time>2022-10-20T08:19:13Z</time>
      </trkpt>
      <trkpt lat="49.06986" lon="2.10138">
        <ele>70.2</ele>
        <time>2022-10-20T08:19:23Z</time>
      </trkpt>
      <trkpt lat="49.0698" lon="2.10127">
        <ele>69.3</ele>
        <time>2022-10-20T08:19:33Z</time>
      </trkpt>
      <trkpt lat="49.06978" lon="2.10113">
        <ele>69.1</ele>
        <time>2022-10-20T08:19:44Z</time>
      </trkpt>
      <trkpt lat="49.06979" lon="2.10099">
        <ele>67.5</ele>
        <time>2022-10-20T08:19:59Z</time>
      </trkpt>
      <trkpt lat="49.06985" lon="2.10086">
        <ele>66.4</ele>
        <time>2022-10-20T08:20:07Z</time>
      </trkpt>
      <trkpt lat="49.06987" lon="2.10073">
        <ele>65.6</ele>
        <time>2022-10-20T08:20:15Z</time>
      </trkpt>
      <trkpt lat="49.0699" lon="2.1006">
        <ele>64.2</ele>
        <time>2022-10-20T08:20:23Z</time>
      </trkpt>
      <trkpt lat="49.06994" lon="2.10046">
        <ele>62.2</ele>
        <time>2022-10-20T08:20:34Z</time>
      </trkpt>
      <trkpt lat="49.07001" lon="2.10035">
        <ele>61.3</ele>
        <time>2022-10-20T08:20:39Z</time>
      </trkpt>
      <trkpt lat="49.07005" lon="2.10021">
        <ele>60.5</ele>
        <time>2022-10-20T08:20:46Z</time>
      </trkpt>
      <trkpt lat="49.07011" lon="2.10007">
        <ele>58.8</ele>
        <time>2022-10-20T08:20:58Z</time>
      </trkpt>
      <trkpt lat="49.07016" lon="2.09993">
        <ele>58.5</ele>
        <time>2022-10-20T08:21:03Z</time>
      </trkpt>
      <trkpt lat="49.07021" lon="2.0998">
        <ele>57.6</ele>
        <time>2022-10-20T08:21:10Z</time>
      </trkpt>
      <trkpt lat="49.07024" lon="2.09965">
        <ele>56.3</ele>
        <time>2022-10-20T08:21:24Z</time>
      </trkpt>
      <trkpt lat="49.0703" lon="2.09954">
        <ele>55.8</ele>
        <time>2022-10-20T08:21:31Z</time>
      </trkpt>
      <trkpt lat="49.07035" lon="2.09942">
        <ele>54.6</ele>
        <time>2022-10-20T08:21:42Z</time>
      </trkpt>
      <trkpt lat="49.07041" lon="2.09931">
        <ele>53.7</ele>
        <time>2022-10-20T08:21:49Z</time>
      </trkpt>
      <trkpt lat="49.07043" lon="2.09916">
        <ele>52.4</ele>
        <time>2022-10-20T08:21:56Z</time>
      </trkpt>
      <trkpt lat="49.07041" lon="2.09902">
        <ele>51.5</ele>
        <time>2022-10-20T08:22:03Z</time>
      </trkpt>
      <trkpt lat="49.07035" lon="2.09888">
        <ele>50.4</ele>
        <time>2022-10-20T08:22:11Z</time>
      </trkpt>
      <trkpt lat="49.07038" lon="2.09873">
        <ele>49.2</ele>
        <time>2022-10-20T08:22:34Z</time>
      </trkpt>
      <trkpt lat="49.07044" lon="2.09863">
        <ele>49.3</ele>
        <time>2022-10-20T08:22:44Z</time>
      </trkpt>
      <trkpt lat="49.0705" lon="2.09851">
        <ele>49.3</ele>
        <time>2022-10-20T08:22:51Z</time>
      </trkpt>
      <trkpt lat="49.0706" lon="2.0985">
        <ele>49.4</ele>
        <time>2022-10-20T08:22:58Z</time>
      </trkpt>
      <trkpt lat="49.0707" lon="2.09844">
        <ele>49.4</ele>
        <time>2022-10-20T08:23:04Z</time>
      </trkpt>
      <trkpt lat="49.0708" lon="2.0984">
        <ele>49.3</ele>
        <time>2022-10-20T08:23:17Z</time>
      </trkpt>
      <trkpt lat="49.07089" lon="2.0984">
        <ele>49.3</ele>
        <time>2022-10-20T08:23:21Z</time>
      </trkpt>
      <trkpt lat="49.07098" lon="2.09835">
        <ele>49.3</ele>
        <time>2022-10-20T08:23:27Z</time>
      </trkpt>
      <trkpt lat="49.07102" lon="2.09823">
        <ele>49.4</ele>
        <time>2022-10-20T08:23:34Z</time>
      </trkpt>
      <trkpt lat="49.07107" lon="2.09808">
        <ele>49.1</ele>
        <time>2022-10-20T08:23:45Z</time>
      </trkpt>
      <trkpt lat="49.07109" lon="2.09792">
        <ele>48.9</ele>
        <time>2022-10-20T08:23:51Z</time>
      </trkpt>
      <trkpt lat="49.07113" lon="2.09778">
        <ele>48.8</ele>
        <time>2022-10-20T08:23:56Z</time>
      </trkpt>
      <trkpt lat="49.07116" lon="2.09765">
        <ele>48.8</ele>
        <time>2022-10-20T08:24:02Z</time>
      </trkpt>
      <trkpt lat="49.07115" lon="2.09751">
        <ele>49.1</ele>
        <time>2022-10-20T08:24:14Z</time>
      </trkpt>
      <trkpt lat="49.07121" lon="2.0974">
        <ele>49.3</ele>
        <time>2022-10-20T08:24:20Z</time>
      </trkpt>
      <trkpt lat="49.07126" lon="2.09726">
        <ele>49.4</ele>
        <time>2022-10-20T08:24:26Z</time>
      </trkpt>
      <trkpt lat="49.07131" lon="2.09712">
        <ele>49.9</ele>
        <time>2022-10-20T08:24:38Z</time>
      </trkpt>
      <trkpt lat="49.07138" lon="2.09702">
        <ele>49.9</ele>
        <time>2022-10-20T08:24:43Z</time>
      </trkpt>
      <trkpt lat="49.07145" lon="2.09692">
        <ele>49.9</ele>
        <time>2022-10-20T08:24:50Z</time>
      </trkpt>
      <trkpt lat="49.0715" lon="2.09679">
        <ele>50.7</ele>
        <time>2022-10-20T08:25:01Z</time>
      </trkpt>
      <trkpt lat="49.07155" lon="2.09665">
        <ele>50.7</ele>
        <time>2022-10-20T08:25:06Z</time>
      </trkpt>
      <trkpt lat="49.0716" lon="2.09651">
        <ele>51</ele>
        <time>2022-10-20T08:25:12Z</time>
      </trkpt>
      <trkpt lat="49.07167" lon="2.09641">
        <ele>51</ele>
        <time>2022-10-20T08:25:24Z</time>
      </trkpt>
      <trkpt lat="49.07172" lon="2.09629">
        <ele>51.1</ele>
        <time>2022-10-20T08:25:40Z</time>
      </trkpt>
      <trkpt lat="49.07178" lon="2.09619">
        <ele>51.3</ele>
        <time>2022-10-20T08:25:50Z</time>
      </trkpt>
      <trkpt lat="49.07188" lon="2.09616">
        <ele>51.4</ele>
        <time>2022-10-20T08:25:56Z</time>
      </trkpt>
      <trkpt lat="49.07197" lon="2.09607">
        <ele>51.6</ele>
        <time>2022-10-20T08:26:07Z</time>
      </trkpt>
      <trkpt lat="49.07204" lon="2.09597">
        <ele>52</ele>
        <time>2022-10-20T08:26:13Z</time>
      </trkpt>
      <trkpt lat="49.07208" lon="2.09585">
        <ele>52.2</ele>
        <time>2022-10-20T08:26:20Z</time>
      </trkpt>
      <trkpt lat="49.07215" lon="2.09574">
        <ele>52.4</ele>
        <time>2022-10-20T08:26:32Z</time>
      </trkpt>
      <trkpt lat="49.07225" lon="2.09563">
        <ele>52.4</ele>
        <time>2022-10-20T08:26:37Z</time>
      </trkpt>
      <trkpt lat="49.07232" lon="2.09551">
        <ele>52.7</ele>
        <time>2022-10-20T08:26:43Z</time>
      </trkpt>
      <trkpt lat="49.0724" lon="2.09544">
        <ele>52.4</ele>
        <time>2022-10-20T08:26:53Z</time>
      </trkpt>
      <trkpt lat="49.07245" lon="2.09533">
        <ele>52.7</ele>
        <time>2022-10-20T08:26:59Z</time>
      </trkpt>
      <trkpt lat="49.07253" lon="2.09525">
        <ele>53.4</ele>
        <time>2022-10-20T08:27:08Z</time>
      </trkpt>
      <trkpt lat="49.07262" lon="2.09517">
        <ele>53.2</ele>
        <time>2022-10-20T08:27:17Z</time>
      </trkpt>
      <trkpt lat="49.07262" lon="2.09501">
        <ele>53</ele>
        <time>2022-10-20T08:27:23Z</time>
      </trkpt>
      <trkpt lat="49.07262" lon="2.09487">
        <ele>53.2</ele>
        <time>2022-10-20T08:27:29Z</time>
      </trkpt>
      <trkpt lat="49.0727" lon="2.09478">
        <ele>53.6</ele>
        <time>2022-10-20T08:27:36Z</time>
      </trkpt>
      <trkpt lat="49.07274" lon="2.09465">
        <ele>53.6</ele>
        <time>2022-10-20T08:27:45Z</time>
      </trkpt>
      <trkpt lat="49.0728" lon="2.09455">
        <ele>53.9</ele>
        <time>2022-10-20T08:27:53Z</time>
      </trkpt>
      <trkpt lat="49.07286" lon="2.09443">
        <ele>53.8</ele>
        <time>2022-10-20T08:28:02Z</time>
      </trkpt>
      <trkpt lat="49.07284" lon="2.09428">
        <ele>54.1</ele>
        <time>2022-10-20T08:28:06Z</time>
      </trkpt>
      <trkpt lat="49.07282" lon="2.09413">
        <ele>54.3</ele>
        <time>2022-10-20T08:28:11Z</time>
      </trkpt>
      <trkpt lat="49.07277" lon="2.094">
        <ele>54.4</ele>
        <time>2022-10-20T08:28:19Z</time>
      </trkpt>
      <trkpt lat="49.07273" lon="2.09386">
        <ele>54.2</ele>
        <time>2022-10-20T08:28:26Z</time>
      </trkpt>
      <trkpt lat="49.07273" lon="2.09372">
        <ele>54.3</ele>
        <time>2022-10-20T08:28:33Z</time>
      </trkpt>
      <trkpt lat="49.07276" lon="2.09359">
        <ele>54.3</ele>
        <time>2022-10-20T08:28:45Z</time>
      </trkpt>
      <trkpt lat="49.07279" lon="2.09342">
        <ele>53.1</ele>
        <time>2022-10-20T08:28:52Z</time>
      </trkpt>
      <trkpt lat="49.07282" lon="2.09329">
        <ele>49.6</ele>
        <time>2022-10-20T08:28:58Z</time>
      </trkpt>
      <trkpt lat="49.07288" lon="2.09316">
        <ele>55.9</ele>
        <time>2022-10-20T08:29:07Z</time>
      </trkpt>
      <trkpt lat="49.07294" lon="2.09304">
        <ele>52.8</ele>
        <time>2022-10-20T08:29:16Z</time>
      </trkpt>
      <trkpt lat="49.07302" lon="2.09295">
        <ele>54.2</ele>
        <time>2022-10-20T08:29:23Z</time>
      </trkpt>
      <trkpt lat="49.07307" lon="2.09284">
        <ele>57.6</ele>
        <time>2022-10-20T08:29:31Z</time>
      </trkpt>
      <trkpt lat="49.07317" lon="2.09275">
        <ele>53.7</ele>
        <time>2022-10-20T08:29:41Z</time>
      </trkpt>
      <trkpt lat="49.07325" lon="2.09266">
        <ele>57.6</ele>
        <time>2022-10-20T08:29:50Z</time>
      </trkpt>
      <trkpt lat="49.07333" lon="2.09259">
        <ele>52</ele>
        <time>2022-10-20T08:29:58Z</time>
      </trkpt>
      <trkpt lat="49.07341" lon="2.09254">
        <ele>55.4</ele>
        <time>2022-10-20T08:30:05Z</time>
      </trkpt>
      <trkpt lat="49.07345" lon="2.09239">
        <ele>56.9</ele>
        <time>2022-10-20T08:30:13Z</time>
      </trkpt>
      <trkpt lat="49.07348" lon="2.09224">
        <ele>57.6</ele>
        <time>2022-10-20T08:30:22Z</time>
      </trkpt>
      <trkpt lat="49.07348" lon="2.09209">
        <ele>52.8</ele>
        <time>2022-10-20T08:30:33Z</time>
      </trkpt>
      <trkpt lat="49.07348" lon="2.09196">
        <ele>56</ele>
        <time>2022-10-20T08:30:40Z</time>
      </trkpt>
      <trkpt lat="49.07351" lon="2.09182">
        <ele>55.4</ele>
        <time>2022-10-20T08:30:50Z</time>
      </trkpt>
      <trkpt lat="49.07356" lon="2.09169">
        <ele>58.1</ele>
        <time>2022-10-20T08:30:58Z</time>
      </trkpt>
      <trkpt lat="49.07363" lon="2.09159">
        <ele>59.7</ele>
        <time>2022-10-20T08:31:07Z</time>
      </trkpt>
      <trkpt lat="49.0737" lon="2.0915">
        <ele>60.1</ele>
        <time>2022-10-20T08:31:17Z</time>
      </trkpt>
      <trkpt lat="49.07378" lon="2.09139">
        <ele>59.7</ele>
        <time>2022-10-20T08:31:28Z</time>
      </trkpt>
      <trkpt lat="49.07387" lon="2.09139">
        <ele>59.5</ele>
        <time>2022-10-20T08:31:41Z</time>
      </trkpt>
      <trkpt lat="49.07396" lon="2.09139">
        <ele>58.5</ele>
        <time>2022-10-20T08:31:53Z</time>
      </trkpt>
      <trkpt lat="49.07403" lon="2.0913">
        <ele>58.8</ele>
        <time>2022-10-20T08:32:04Z</time>
      </trkpt>
      <trkpt lat="49.07409" lon="2.09117">
        <ele>57.3</ele>
        <time>2022-10-20T08:32:12Z</time>
      </trkpt>
      <trkpt lat="49.07411" lon="2.09104">
        <ele>57.4</ele>
        <time>2022-10-20T08:32:25Z</time>
      </trkpt>
      <trkpt lat="49.07403" lon="2.09094">
        <ele>57</ele>
        <time>2022-10-20T08:32:34Z</time>
      </trkpt>
      <trkpt lat="49.07392" lon="2.09074">
        <ele>56</ele>
        <time>2022-10-20T08:32:40Z</time>
      </trkpt>
      <trkpt lat="49.07411" lon="2.09077">
        <ele>56</ele>
        <time>2022-10-20T08:32:48Z</time>
      </trkpt>
      <trkpt lat="49.0742" lon="2.09072">
        <ele>58.5</ele>
        <time>2022-10-20T08:32:54Z</time>
      </trkpt>
      <trkpt lat="49.07429" lon="2.09067">
        <ele>57.7</ele>
        <time>2022-10-20T08:33:00Z</time>
      </trkpt>
      <trkpt lat="49.07438" lon="2.09065">
        <ele>58</ele>
        <time>2022-10-20T08:33:05Z</time>
      </trkpt>
      <trkpt lat="49.07447" lon="2.09057">
        <ele>58.9</ele>
        <time>2022-10-20T08:33:15Z</time>
      </trkpt>
      <trkpt lat="49.07455" lon="2.0905">
        <ele>59.8</ele>
        <time>2022-10-20T08:33:22Z</time>
      </trkpt>
      <trkpt lat="49.07462" lon="2.09042">
        <ele>57.7</ele>
        <time>2022-10-20T08:33:31Z</time>
      </trkpt>
      <trkpt lat="49.07469" lon="2.09032">
        <ele>58.7</ele>
        <time>2022-10-20T08:33:37Z</time>
      </trkpt>
      <trkpt lat="49.07474" lon="2.09019">
        <ele>54.7</ele>
        <time>2022-10-20T08:33:45Z</time>
      </trkpt>
      <trkpt lat="49.07478" lon="2.09005">
        <ele>58.9</ele>
        <time>2022-10-20T08:33:53Z</time>
      </trkpt>
      <trkpt lat="49.07482" lon="2.08991">
        <ele>60.4</ele>
        <time>2022-10-20T08:33:59Z</time>
      </trkpt>
      <trkpt lat="49.07484" lon="2.08977">
        <ele>59.9</ele>
        <time>2022-10-20T08:34:05Z</time>
      </trkpt>
      <trkpt lat="49.07487" lon="2.08964">
        <ele>59.1</ele>
        <time>2022-10-20T08:34:13Z</time>
      </trkpt>
      <trkpt lat="49.07492" lon="2.08951">
        <ele>58.7</ele>
        <time>2022-10-20T08:34:22Z</time>
      </trkpt>
      <trkpt lat="49.07501" lon="2.08944">
        <ele>58.9</ele>
        <time>2022-10-20T08:34:30Z</time>
      </trkpt>
      <trkpt lat="49.07509" lon="2.08937">
        <ele>57.5</ele>
        <time>2022-10-20T08:34:39Z</time>
      </trkpt>
      <trkpt lat="49.07515" lon="2.08927">
        <ele>54.6</ele>
        <time>2022-10-20T08:34:49Z</time>
      </trkpt>
      <trkpt lat="49.07524" lon="2.08921">
        <ele>58.2</ele>
        <time>2022-10-20T08:35:00Z</time>
      </trkpt>
      <trkpt lat="49.07532" lon="2.08915">
        <ele>56.8</ele>
        <time>2022-10-20T08:35:10Z</time>
      </trkpt>
      <trkpt lat="49.07539" lon="2.08902">
        <ele>57.2</ele>
        <time>2022-10-20T08:35:18Z</time>
      </trkpt>
      <trkpt lat="49.07545" lon="2.08891">
        <ele>59.9</ele>
        <time>2022-10-20T08:35:24Z</time>
      </trkpt>
      <trkpt lat="49.0755" lon="2.08879">
        <ele>60</ele>
        <time>2022-10-20T08:35:30Z</time>
      </trkpt>
      <trkpt lat="49.07554" lon="2.08866">
        <ele>59.7</ele>
        <time>2022-10-20T08:35:36Z</time>
      </trkpt>
      <trkpt lat="49.07562" lon="2.08856">
        <ele>58.2</ele>
        <time>2022-10-20T08:35:45Z</time>
      </trkpt>
      <trkpt lat="49.07571" lon="2.0885">
        <ele>58.9</ele>
        <time>2022-10-20T08:35:53Z</time>
      </trkpt>
      <trkpt lat="49.07578" lon="2.08839">
        <ele>59.1</ele>
        <time>2022-10-20T08:36:02Z</time>
      </trkpt>
      <trkpt lat="49.07586" lon="2.08834">
        <ele>60.1</ele>
        <time>2022-10-20T08:36:10Z</time>
      </trkpt>
      <trkpt lat="49.07596" lon="2.08834">
        <ele>59.6</ele>
        <time>2022-10-20T08:36:17Z</time>
      </trkpt>
      <trkpt lat="49.07605" lon="2.08832">
        <ele>63.1</ele>
        <time>2022-10-20T08:36:29Z</time>
      </trkpt>
      <trkpt lat="49.07614" lon="2.08823">
        <ele>61.5</ele>
        <time>2022-10-20T08:36:37Z</time>
      </trkpt>
      <trkpt lat="49.07621" lon="2.08816">
        <ele>60.5</ele>
        <time>2022-10-20T08:36:46Z</time>
      </trkpt>
      <trkpt lat="49.0763" lon="2.08808">
        <ele>60.9</ele>
        <time>2022-10-20T08:36:57Z</time>
      </trkpt>
      <trkpt lat="49.07638" lon="2.08802">
        <ele>63.6</ele>
        <time>2022-10-20T08:37:05Z</time>
      </trkpt>
      <trkpt lat="49.07649" lon="2.08801">
        <ele>64.7</ele>
        <time>2022-10-20T08:37:13Z</time>
      </trkpt>
      <trkpt lat="49.07658" lon="2.08799">
        <ele>61.5</ele>
        <time>2022-10-20T08:37:19Z</time>
      </trkpt>
      <trkpt lat="49.07667" lon="2.08795">
        <ele>59.1</ele>
        <time>2022-10-20T08:37:28Z</time>
      </trkpt>
      <trkpt lat="49.07678" lon="2.08795">
        <ele>58.5</ele>
        <time>2022-10-20T08:37:34Z</time>
      </trkpt>
      <trkpt lat="49.07688" lon="2.08794">
        <ele>56.9</ele>
        <time>2022-10-20T08:37:40Z</time>
      </trkpt>
      <trkpt lat="49.07698" lon="2.08793">
        <ele>62.6</ele>
        <time>2022-10-20T08:37:47Z</time>
      </trkpt>
      <trkpt lat="49.07707" lon="2.0879">
        <ele>59.9</ele>
        <time>2022-10-20T08:37:53Z</time>
      </trkpt>
      <trkpt lat="49.07717" lon="2.08784">
        <ele>57.2</ele>
        <time>2022-10-20T08:37:59Z</time>
      </trkpt>
      <trkpt lat="49.07727" lon="2.08778">
        <ele>59.8</ele>
        <time>2022-10-20T08:38:05Z</time>
      </trkpt>
      <trkpt lat="49.07735" lon="2.08769">
        <ele>58.8</ele>
        <time>2022-10-20T08:38:11Z</time>
      </trkpt>
      <trkpt lat="49.0774" lon="2.08757">
        <ele>62.7</ele>
        <time>2022-10-20T08:38:18Z</time>
      </trkpt>
      <trkpt lat="49.07745" lon="2.08746">
        <ele>61.3</ele>
        <time>2022-10-20T08:38:26Z</time>
      </trkpt>
      <trkpt lat="49.07751" lon="2.08734">
        <ele>64</ele>
        <time>2022-10-20T08:38:33Z</time>
      </trkpt>
      <trkpt lat="49.07756" lon="2.08722">
        <ele>62.1</ele>
        <time>2022-10-20T08:38:41Z</time>
      </trkpt>
      <trkpt lat="49.07762" lon="2.08709">
        <ele>60</ele>
        <time>2022-10-20T08:38:49Z</time>
      </trkpt>
      <trkpt lat="49.07767" lon="2.08697">
        <ele>63.7</ele>
        <time>2022-10-20T08:38:58Z</time>
      </trkpt>
      <trkpt lat="49.07774" lon="2.08687">
        <ele>61.9</ele>
        <time>2022-10-20T08:39:05Z</time>
      </trkpt>
      <trkpt lat="49.07781" lon="2.08676">
        <ele>63.7</ele>
        <time>2022-10-20T08:39:14Z</time>
      </trkpt>
      <trkpt lat="49.07788" lon="2.08668">
        <ele>62.9</ele>
        <time>2022-10-20T08:39:23Z</time>
      </trkpt>
      <trkpt lat="49.07797" lon="2.08662">
        <ele>63.2</ele>
        <time>2022-10-20T08:39:32Z</time>
      </trkpt>
      <trkpt lat="49.07805" lon="2.08653">
        <ele>63.6</ele>
        <time>2022-10-20T08:39:40Z</time>
      </trkpt>
      <trkpt lat="49.07813" lon="2.08647">
        <ele>63.3</ele>
        <time>2022-10-20T08:39:50Z</time>
      </trkpt>
      <trkpt lat="49.07822" lon="2.08639">
        <ele>60.5</ele>
        <time>2022-10-20T08:39:58Z</time>
      </trkpt>
      <trkpt lat="49.0783" lon="2.08633">
        <ele>61.8</ele>
        <time>2022-10-20T08:40:07Z</time>
      </trkpt>
      <trkpt lat="49.07839" lon="2.08627">
        <ele>62.9</ele>
        <time>2022-10-20T08:40:17Z</time>
      </trkpt>
      <trkpt lat="49.07849" lon="2.08626">
        <ele>60.6</ele>
        <time>2022-10-20T08:40:25Z</time>
      </trkpt>
      <trkpt lat="49.07859" lon="2.08621">
        <ele>63.1</ele>
        <time>2022-10-20T08:40:33Z</time>
      </trkpt>
      <trkpt lat="49.07869" lon="2.08621">
        <ele>62.7</ele>
        <time>2022-10-20T08:40:41Z</time>
      </trkpt>
      <trkpt lat="49.07878" lon="2.08624">
        <ele>61.1</ele>
        <time>2022-10-20T08:40:49Z</time>
      </trkpt>
      <trkpt lat="49.07887" lon="2.0862">
        <ele>62.2</ele>
        <time>2022-10-20T08:40:57Z</time>
      </trkpt>
      <trkpt lat="49.07896" lon="2.08618">
        <ele>62.3</ele>
        <time>2022-10-20T08:41:05Z</time>
      </trkpt>
      <trkpt lat="49.07905" lon="2.08619">
        <ele>63.3</ele>
        <time>2022-10-20T08:41:14Z</time>
      </trkpt>
      <trkpt lat="49.07914" lon="2.08618">
        <ele>62.4</ele>
        <time>2022-10-20T08:41:22Z</time>
      </trkpt>
      <trkpt lat="49.07925" lon="2.0862">
        <ele>63</ele>
        <time>2022-10-20T08:41:31Z</time>
      </trkpt>
      <trkpt lat="49.07934" lon="2.08623">
        <ele>65.5</ele>
        <time>2022-10-20T08:41:39Z</time>
      </trkpt>
      <trkpt lat="49.07944" lon="2.08627">
        <ele>62.2</ele>
        <time>2022-10-20T08:41:47Z</time>
      </trkpt>
      <trkpt lat="49.07953" lon="2.08626">
        <ele>59.6</ele>
        <time>2022-10-20T08:41:56Z</time>
      </trkpt>
      <trkpt lat="49.07963" lon="2.0863">
        <ele>64</ele>
        <time>2022-10-20T08:42:05Z</time>
      </trkpt>
      <trkpt lat="49.07973" lon="2.08637">
        <ele>61.2</ele>
        <time>2022-10-20T08:42:12Z</time>
      </trkpt>
      <trkpt lat="49.07982" lon="2.08639">
        <ele>63</ele>
        <time>2022-10-20T08:42:19Z</time>
      </trkpt>
      <trkpt lat="49.07992" lon="2.0864">
        <ele>62.2</ele>
        <time>2022-10-20T08:42:28Z</time>
      </trkpt>
      <trkpt lat="49.08001" lon="2.0864">
        <ele>63.3</ele>
        <time>2022-10-20T08:42:34Z</time>
      </trkpt>
      <trkpt lat="49.08011" lon="2.08639">
        <ele>64.5</ele>
        <time>2022-10-20T08:42:44Z</time>
      </trkpt>
      <trkpt lat="49.08022" lon="2.08646">
        <ele>67.2</ele>
        <time>2022-10-20T08:42:49Z</time>
      </trkpt>
      <trkpt lat="49.08031" lon="2.08651">
        <ele>67.4</ele>
        <time>2022-10-20T08:42:54Z</time>
      </trkpt>
      <trkpt lat="49.08039" lon="2.08656">
        <ele>64.9</ele>
        <time>2022-10-20T08:43:02Z</time>
      </trkpt>
      <trkpt lat="49.08049" lon="2.08658">
        <ele>64.2</ele>
        <time>2022-10-20T08:43:10Z</time>
      </trkpt>
      <trkpt lat="49.08058" lon="2.08661">
        <ele>64.5</ele>
        <time>2022-10-20T08:43:17Z</time>
      </trkpt>
      <trkpt lat="49.08067" lon="2.08657">
        <ele>64.2</ele>
        <time>2022-10-20T08:43:24Z</time>
      </trkpt>
      <trkpt lat="49.08076" lon="2.08651">
        <ele>64.3</ele>
        <time>2022-10-20T08:43:33Z</time>
      </trkpt>
      <trkpt lat="49.08085" lon="2.08646">
        <ele>65</ele>
        <time>2022-10-20T08:43:40Z</time>
      </trkpt>
      <trkpt lat="49.08093" lon="2.08638">
        <ele>64.9</ele>
        <time>2022-10-20T08:43:48Z</time>
      </trkpt>
      <trkpt lat="49.08101" lon="2.08629">
        <ele>65.2</ele>
        <time>2022-10-20T08:43:58Z</time>
      </trkpt>
      <trkpt lat="49.08106" lon="2.08618">
        <ele>65.5</ele>
        <time>2022-10-20T08:44:11Z</time>
      </trkpt>
      <trkpt lat="49.08115" lon="2.08613">
        <ele>65.2</ele>
        <time>2022-10-20T08:44:16Z</time>
      </trkpt>
      <trkpt lat="49.08124" lon="2.08607">
        <ele>65.1</ele>
        <time>2022-10-20T08:44:23Z</time>
      </trkpt>
      <trkpt lat="49.08132" lon="2.08599">
        <ele>65.1</ele>
        <time>2022-10-20T08:44:31Z</time>
      </trkpt>
      <trkpt lat="49.0814" lon="2.0859">
        <ele>65.3</ele>
        <time>2022-10-20T08:44:38Z</time>
      </trkpt>
      <trkpt lat="49.08148" lon="2.08582">
        <ele>65.4</ele>
        <time>2022-10-20T08:44:50Z</time>
      </trkpt>
      <trkpt lat="49.08158" lon="2.08576">
        <ele>65.3</ele>
        <time>2022-10-20T08:44:56Z</time>
      </trkpt>
      <trkpt lat="49.08166" lon="2.08568">
        <ele>65.3</ele>
        <time>2022-10-20T08:45:02Z</time>
      </trkpt>
      <trkpt lat="49.08175" lon="2.08563">
        <ele>65.5</ele>
        <time>2022-10-20T08:45:10Z</time>
      </trkpt>
      <trkpt lat="49.08183" lon="2.08556">
        <ele>64.4</ele>
        <time>2022-10-20T08:45:19Z</time>
      </trkpt>
      <trkpt lat="49.08191" lon="2.08547">
        <ele>64.3</ele>
        <time>2022-10-20T08:45:25Z</time>
      </trkpt>
      <trkpt lat="49.08198" lon="2.08534">
        <ele>65.3</ele>
        <time>2022-10-20T08:45:35Z</time>
      </trkpt>
      <trkpt lat="49.08207" lon="2.08527">
        <ele>65.4</ele>
        <time>2022-10-20T08:45:40Z</time>
      </trkpt>
      <trkpt lat="49.08213" lon="2.08517">
        <ele>65.3</ele>
        <time>2022-10-20T08:45:46Z</time>
      </trkpt>
      <trkpt lat="49.08223" lon="2.08512">
        <ele>65.4</ele>
        <time>2022-10-20T08:45:56Z</time>
      </trkpt>
      <trkpt lat="49.08231" lon="2.08504">
        <ele>65.5</ele>
        <time>2022-10-20T08:46:02Z</time>
      </trkpt>
      <trkpt lat="49.08238" lon="2.08495">
        <ele>65.8</ele>
        <time>2022-10-20T08:46:12Z</time>
      </trkpt>
      <trkpt lat="49.08248" lon="2.0849">
        <ele>65.6</ele>
        <time>2022-10-20T08:46:19Z</time>
      </trkpt>
      <trkpt lat="49.08257" lon="2.08486">
        <ele>65.9</ele>
        <time>2022-10-20T08:46:29Z</time>
      </trkpt>
      <trkpt lat="49.08266" lon="2.08479">
        <ele>65.8</ele>
        <time>2022-10-20T08:46:36Z</time>
      </trkpt>
      <trkpt lat="49.08273" lon="2.08469">
        <ele>65.9</ele>
        <time>2022-10-20T08:46:44Z</time>
      </trkpt>
      <trkpt lat="49.08283" lon="2.08462">
        <ele>65.8</ele>
        <time>2022-10-20T08:46:49Z</time>
      </trkpt>
      <trkpt lat="49.08293" lon="2.08458">
        <ele>66</ele>
        <time>2022-10-20T08:46:54Z</time>
      </trkpt>
      <trkpt lat="49.08299" lon="2.08448">
        <ele>66.1</ele>
        <time>2022-10-20T08:47:07Z</time>
      </trkpt>
      <trkpt lat="49.0831" lon="2.08444">
        <ele>66.1</ele>
        <time>2022-10-20T08:47:15Z</time>
      </trkpt>
      <trkpt lat="49.08319" lon="2.08439">
        <ele>66.6</ele>
        <time>2022-10-20T08:47:24Z</time>
      </trkpt>
      <trkpt lat="49.08327" lon="2.0843">
        <ele>66.3</ele>
        <time>2022-10-20T08:47:35Z</time>
      </trkpt>
      <trkpt lat="49.08334" lon="2.0842">
        <ele>66.2</ele>
        <time>2022-10-20T08:47:42Z</time>
      </trkpt>
      <trkpt lat="49.08342" lon="2.08413">
        <ele>66.1</ele>
        <time>2022-10-20T08:47:47Z</time>
      </trkpt>
      <trkpt lat="49.08349" lon="2.08403">
        <ele>66.2</ele>
        <time>2022-10-20T08:48:00Z</time>
      </trkpt>
      <trkpt lat="49.08358" lon="2.08397">
        <ele>66.3</ele>
        <time>2022-10-20T08:48:08Z</time>
      </trkpt>
      <trkpt lat="49.08367" lon="2.08393">
        <ele>66.4</ele>
        <time>2022-10-20T08:48:18Z</time>
      </trkpt>
      <trkpt lat="49.08377" lon="2.0839">
        <ele>66.6</ele>
        <time>2022-10-20T08:48:27Z</time>
      </trkpt>
      <trkpt lat="49.08386" lon="2.08387">
        <ele>66.8</ele>
        <time>2022-10-20T08:48:32Z</time>
      </trkpt>
      <trkpt lat="49.08396" lon="2.08386">
        <ele>66.9</ele>
        <time>2022-10-20T08:48:38Z</time>
      </trkpt>
      <trkpt lat="49.08405" lon="2.08382">
        <ele>67.2</ele>
        <time>2022-10-20T08:48:50Z</time>
      </trkpt>
      <trkpt lat="49.08414" lon="2.08385">
        <ele>67.2</ele>
        <time>2022-10-20T08:48:58Z</time>
      </trkpt>
      <trkpt lat="49.08423" lon="2.08385">
        <ele>67.6</ele>
        <time>2022-10-20T08:49:13Z</time>
      </trkpt>
      <trkpt lat="49.08425" lon="2.08398">
        <ele>67.4</ele>
        <time>2022-10-20T08:49:29Z</time>
      </trkpt>
      <trkpt lat="49.08427" lon="2.08413">
        <ele>67.7</ele>
        <time>2022-10-20T08:49:42Z</time>
      </trkpt>
      <trkpt lat="49.08437" lon="2.08411">
        <ele>67.4</ele>
        <time>2022-10-20T08:49:50Z</time>
      </trkpt>
      <trkpt lat="49.08446" lon="2.0841">
        <ele>67.1</ele>
        <time>2022-10-20T08:49:57Z</time>
      </trkpt>
      <trkpt lat="49.08454" lon="2.08416">
        <ele>67</ele>
        <time>2022-10-20T08:50:05Z</time>
      </trkpt>
      <trkpt lat="49.08464" lon="2.08415">
        <ele>67</ele>
        <time>2022-10-20T08:50:15Z</time>
      </trkpt>
      <trkpt lat="49.08472" lon="2.08407">
        <ele>67.4</ele>
        <time>2022-10-20T08:50:26Z</time>
      </trkpt>
      <trkpt lat="49.08481" lon="2.08405">
        <ele>67.4</ele>
        <time>2022-10-20T08:50:34Z</time>
      </trkpt>
      <trkpt lat="49.08489" lon="2.08398">
        <ele>67.1</ele>
        <time>2022-10-20T08:50:44Z</time>
      </trkpt>
      <trkpt lat="49.085" lon="2.08396">
        <ele>67.1</ele>
        <time>2022-10-20T08:50:50Z</time>
      </trkpt>
      <trkpt lat="49.08509" lon="2.0839">
        <ele>67.5</ele>
        <time>2022-10-20T08:51:01Z</time>
      </trkpt>
      <trkpt lat="49.08518" lon="2.08387">
        <ele>64.9</ele>
        <time>2022-10-20T08:51:09Z</time>
      </trkpt>
      <trkpt lat="49.08528" lon="2.08386">
        <ele>64.5</ele>
        <time>2022-10-20T08:51:16Z</time>
      </trkpt>
      <trkpt lat="49.08537" lon="2.08385">
        <ele>68.3</ele>
        <time>2022-10-20T08:51:24Z</time>
      </trkpt>
      <trkpt lat="49.08548" lon="2.08382">
        <ele>68</ele>
        <time>2022-10-20T08:51:32Z</time>
      </trkpt>
      <trkpt lat="49.08556" lon="2.08377">
        <ele>68.8</ele>
        <time>2022-10-20T08:51:38Z</time>
      </trkpt>
      <trkpt lat="49.08565" lon="2.08376">
        <ele>69.9</ele>
        <time>2022-10-20T08:51:50Z</time>
      </trkpt>
      <trkpt lat="49.08575" lon="2.08377">
        <ele>66.7</ele>
        <time>2022-10-20T08:51:59Z</time>
      </trkpt>
      <trkpt lat="49.08584" lon="2.08379">
        <ele>66.3</ele>
        <time>2022-10-20T08:52:05Z</time>
      </trkpt>
      <trkpt lat="49.08593" lon="2.08384">
        <ele>66.6</ele>
        <time>2022-10-20T08:52:14Z</time>
      </trkpt>
      <trkpt lat="49.08603" lon="2.08386">
        <ele>67.4</ele>
        <time>2022-10-20T08:52:25Z</time>
      </trkpt>
      <trkpt lat="49.08611" lon="2.08391">
        <ele>68</ele>
        <time>2022-10-20T08:52:32Z</time>
      </trkpt>
      <trkpt lat="49.08621" lon="2.08393">
        <ele>67.9</ele>
        <time>2022-10-20T08:52:42Z</time>
      </trkpt>
      <trkpt lat="49.08631" lon="2.08394">
        <ele>66.5</ele>
        <time>2022-10-20T08:52:49Z</time>
      </trkpt>
      <trkpt lat="49.08639" lon="2.08399">
        <ele>65.3</ele>
        <time>2022-10-20T08:52:54Z</time>
      </trkpt>
      <trkpt lat="49.08648" lon="2.08403">
        <ele>66.6</ele>
        <time>2022-10-20T08:53:00Z</time>
      </trkpt>
      <trkpt lat="49.08658" lon="2.08403">
        <ele>66.3</ele>
        <time>2022-10-20T08:53:09Z</time>
      </trkpt>
      <trkpt lat="49.08667" lon="2.08406">
        <ele>64.4</ele>
        <time>2022-10-20T08:53:16Z</time>
      </trkpt>
      <trkpt lat="49.08677" lon="2.08406">
        <ele>68.1</ele>
        <time>2022-10-20T08:53:22Z</time>
      </trkpt>
      <trkpt lat="49.08687" lon="2.08408">
        <ele>68.3</ele>
        <time>2022-10-20T08:53:29Z</time>
      </trkpt>
      <trkpt lat="49.08697" lon="2.08412">
        <ele>68.2</ele>
        <time>2022-10-20T08:53:38Z</time>
      </trkpt>
      <trkpt lat="49.08706" lon="2.08416">
        <ele>69.7</ele>
        <time>2022-10-20T08:53:45Z</time>
      </trkpt>
      <trkpt lat="49.08715" lon="2.08421">
        <ele>69.2</ele>
        <time>2022-10-20T08:53:51Z</time>
      </trkpt>
      <trkpt lat="49.08724" lon="2.08425">
        <ele>68.9</ele>
        <time>2022-10-20T08:53:57Z</time>
      </trkpt>
      <trkpt lat="49.08733" lon="2.08432">
        <ele>69.5</ele>
        <time>2022-10-20T08:54:06Z</time>
      </trkpt>
      <trkpt lat="49.08742" lon="2.0843">
        <ele>68.1</ele>
        <time>2022-10-20T08:54:23Z</time>
      </trkpt>
      <trkpt lat="49.08751" lon="2.08433">
        <ele>70.5</ele>
        <time>2022-10-20T08:54:30Z</time>
      </trkpt>
      <trkpt lat="49.0876" lon="2.08437">
        <ele>68</ele>
        <time>2022-10-20T08:54:38Z</time>
      </trkpt>
      <trkpt lat="49.08769" lon="2.08441">
        <ele>69.3</ele>
        <time>2022-10-20T08:54:46Z</time>
      </trkpt>
      <trkpt lat="49.08778" lon="2.08446">
        <ele>68.1</ele>
        <time>2022-10-20T08:54:53Z</time>
      </trkpt>
      <trkpt lat="49.08785" lon="2.08454">
        <ele>70.4</ele>
        <time>2022-10-20T08:55:02Z</time>
      </trkpt>
      <trkpt lat="49.08794" lon="2.08461">
        <ele>70.2</ele>
        <time>2022-10-20T08:55:09Z</time>
      </trkpt>
      <trkpt lat="49.08803" lon="2.08469">
        <ele>67.1</ele>
        <time>2022-10-20T08:55:19Z</time>
      </trkpt>
      <trkpt lat="49.08811" lon="2.08479">
        <ele>69.6</ele>
        <time>2022-10-20T08:55:30Z</time>
      </trkpt>
      <trkpt lat="49.08817" lon="2.08489">
        <ele>71.1</ele>
        <time>2022-10-20T08:55:37Z</time>
      </trkpt>
      <trkpt lat="49.08825" lon="2.08498">
        <ele>71.2</ele>
        <time>2022-10-20T08:55:42Z</time>
      </trkpt>
      <trkpt lat="49.08834" lon="2.08505">
        <ele>66.5</ele>
        <time>2022-10-20T08:55:50Z</time>
      </trkpt>
      <trkpt lat="49.08841" lon="2.08515">
        <ele>66.8</ele>
        <time>2022-10-20T08:55:57Z</time>
      </trkpt>
      <trkpt lat="49.08848" lon="2.08525">
        <ele>69.8</ele>
        <time>2022-10-20T08:56:05Z</time>
      </trkpt>
      <trkpt lat="49.08857" lon="2.08526">
        <ele>68.4</ele>
        <time>2022-10-20T08:56:13Z</time>
      </trkpt>
      <trkpt lat="49.08867" lon="2.08531">
        <ele>69.1</ele>
        <time>2022-10-20T08:56:26Z</time>
      </trkpt>
      <trkpt lat="49.08875" lon="2.08538">
        <ele>70.1</ele>
        <time>2022-10-20T08:56:33Z</time>
      </trkpt>
      <trkpt lat="49.08884" lon="2.0854">
        <ele>68.1</ele>
        <time>2022-10-20T08:56:41Z</time>
      </trkpt>
      <trkpt lat="49.08893" lon="2.08538">
        <ele>68.8</ele>
        <time>2022-10-20T08:56:48Z</time>
      </trkpt>
      <trkpt lat="49.08903" lon="2.08538">
        <ele>69</ele>
        <time>2022-10-20T08:56:55Z</time>
      </trkpt>
      <trkpt lat="49.08913" lon="2.08539">
        <ele>71.2</ele>
        <time>2022-10-20T08:57:03Z</time>
      </trkpt>
      <trkpt lat="49.08922" lon="2.08539">
        <ele>69.5</ele>
        <time>2022-10-20T08:57:11Z</time>
      </trkpt>
      <trkpt lat="49.08931" lon="2.08541">
        <ele>68.5</ele>
        <time>2022-10-20T08:57:19Z</time>
      </trkpt>
      <trkpt lat="49.08941" lon="2.08543">
        <ele>68.6</ele>
        <time>2022-10-20T08:57:26Z</time>
      </trkpt>
      <trkpt lat="49.0895" lon="2.08539">
        <ele>71.3</ele>
        <time>2022-10-20T08:57:36Z</time>
      </trkpt>
      <trkpt lat="49.08961" lon="2.08536">
        <ele>73.4</ele>
        <time>2022-10-20T08:57:46Z</time>
      </trkpt>
      <trkpt lat="49.08971" lon="2.08536">
        <ele>72.9</ele>
        <time>2022-10-20T08:57:51Z</time>
      </trkpt>
      <trkpt lat="49.08981" lon="2.08535">
        <ele>70.1</ele>
        <time>2022-10-20T08:57:57Z</time>
      </trkpt>
      <trkpt lat="49.0899" lon="2.08534">
        <ele>70.1</ele>
        <time>2022-10-20T08:58:04Z</time>
      </trkpt>
      <trkpt lat="49.09" lon="2.08531">
        <ele>69.1</ele>
        <time>2022-10-20T08:58:21Z</time>
      </trkpt>
      <trkpt lat="49.09009" lon="2.08531">
        <ele>67.7</ele>
        <time>2022-10-20T08:58:29Z</time>
      </trkpt>
      <trkpt lat="49.09019" lon="2.08534">
        <ele>67.8</ele>
        <time>2022-10-20T08:58:37Z</time>
      </trkpt>
      <trkpt lat="49.09028" lon="2.08537">
        <ele>71.8</ele>
        <time>2022-10-20T08:58:46Z</time>
      </trkpt>
      <trkpt lat="49.09036" lon="2.08546">
        <ele>70.7</ele>
        <time>2022-10-20T08:58:53Z</time>
      </trkpt>
      <trkpt lat="49.09045" lon="2.08548">
        <ele>70.1</ele>
        <time>2022-10-20T08:59:02Z</time>
      </trkpt>
      <trkpt lat="49.09055" lon="2.08547">
        <ele>70.3</ele>
        <time>2022-10-20T08:59:09Z</time>
      </trkpt>
      <trkpt lat="49.09064" lon="2.08542">
        <ele>70.5</ele>
        <time>2022-10-20T08:59:20Z</time>
      </trkpt>
      <trkpt lat="49.09072" lon="2.08533">
        <ele>70.7</ele>
        <time>2022-10-20T08:59:26Z</time>
      </trkpt>
      <trkpt lat="49.0908" lon="2.08526">
        <ele>70.9</ele>
        <time>2022-10-20T08:59:31Z</time>
      </trkpt>
      <trkpt lat="49.09088" lon="2.08518">
        <ele>71.4</ele>
        <time>2022-10-20T08:59:40Z</time>
      </trkpt>
      <trkpt lat="49.09097" lon="2.08511">
        <ele>71.7</ele>
        <time>2022-10-20T08:59:49Z</time>
      </trkpt>
      <trkpt lat="49.09105" lon="2.08505">
        <ele>71.8</ele>
        <time>2022-10-20T08:59:54Z</time>
      </trkpt>
      <trkpt lat="49.09113" lon="2.08498">
        <ele>71.7</ele>
        <time>2022-10-20T09:00:04Z</time>
      </trkpt>
      <trkpt lat="49.09122" lon="2.08489">
        <ele>71.8</ele>
        <time>2022-10-20T09:00:13Z</time>
      </trkpt>
      <trkpt lat="49.0913" lon="2.08479">
        <ele>71.6</ele>
        <time>2022-10-20T09:00:18Z</time>
      </trkpt>
      <trkpt lat="49.09137" lon="2.0847">
        <ele>71.3</ele>
        <time>2022-10-20T09:00:24Z</time>
      </trkpt>
      <trkpt lat="49.09143" lon="2.08459">
        <ele>70.9</ele>
        <time>2022-10-20T09:00:37Z</time>
      </trkpt>
      <trkpt lat="49.09149" lon="2.08448">
        <ele>70.9</ele>
        <time>2022-10-20T09:00:44Z</time>
      </trkpt>
      <trkpt lat="49.09155" lon="2.08438">
        <ele>71</ele>
        <time>2022-10-20T09:00:51Z</time>
      </trkpt>
      <trkpt lat="49.09161" lon="2.08428">
        <ele>70.9</ele>
        <time>2022-10-20T09:00:57Z</time>
      </trkpt>
      <trkpt lat="49.09168" lon="2.08417">
        <ele>70.4</ele>
        <time>2022-10-20T09:01:09Z</time>
      </trkpt>
      <trkpt lat="49.09175" lon="2.08407">
        <ele>70.6</ele>
        <time>2022-10-20T09:01:20Z</time>
      </trkpt>
      <trkpt lat="49.09182" lon="2.08398">
        <ele>70.8</ele>
        <time>2022-10-20T09:01:31Z</time>
      </trkpt>
      <trkpt lat="49.09188" lon="2.08387">
        <ele>71.5</ele>
        <time>2022-10-20T09:01:42Z</time>
      </trkpt>
      <trkpt lat="49.09196" lon="2.08377">
        <ele>71.6</ele>
        <time>2022-10-20T09:01:55Z</time>
      </trkpt>
      <trkpt lat="49.09204" lon="2.08366">
        <ele>71.3</ele>
        <time>2022-10-20T09:02:01Z</time>
      </trkpt>
      <trkpt lat="49.09209" lon="2.08354">
        <ele>70.8</ele>
        <time>2022-10-20T09:02:14Z</time>
      </trkpt>
      <trkpt lat="49.09218" lon="2.08347">
        <ele>70.9</ele>
        <time>2022-10-20T09:02:19Z</time>
      </trkpt>
      <trkpt lat="49.09228" lon="2.08343">
        <ele>70.8</ele>
        <time>2022-10-20T09:02:30Z</time>
      </trkpt>
      <trkpt lat="49.09237" lon="2.0834">
        <ele>71.2</ele>
        <time>2022-10-20T09:02:36Z</time>
      </trkpt>
      <trkpt lat="49.09246" lon="2.08335">
        <ele>71.3</ele>
        <time>2022-10-20T09:02:47Z</time>
      </trkpt>
      <trkpt lat="49.09246" lon="2.0832">
        <ele>71.1</ele>
        <time>2022-10-20T09:03:09Z</time>
      </trkpt>
      <trkpt lat="49.0924" lon="2.08309">
        <ele>70.8</ele>
        <time>2022-10-20T09:03:18Z</time>
      </trkpt>
      <trkpt lat="49.09235" lon="2.08297">
        <ele>71.3</ele>
        <time>2022-10-20T09:03:27Z</time>
      </trkpt>
      <trkpt lat="49.0923" lon="2.08283">
        <ele>71</ele>
        <time>2022-10-20T09:03:36Z</time>
      </trkpt>
      <trkpt lat="49.09225" lon="2.08272">
        <ele>70.8</ele>
        <time>2022-10-20T09:03:44Z</time>
      </trkpt>
      <trkpt lat="49.09224" lon="2.08256">
        <ele>71.1</ele>
        <time>2022-10-20T09:03:53Z</time>
      </trkpt>
      <trkpt lat="49.09221" lon="2.08242">
        <ele>71.1</ele>
        <time>2022-10-20T09:04:01Z</time>
      </trkpt>
      <trkpt lat="49.0922" lon="2.08226">
        <ele>70.8</ele>
        <time>2022-10-20T09:04:07Z</time>
      </trkpt>
      <trkpt lat="49.09223" lon="2.08211">
        <ele>71.2</ele>
        <time>2022-10-20T09:04:12Z</time>
      </trkpt>
      <trkpt lat="49.09227" lon="2.08199">
        <ele>70.7</ele>
        <time>2022-10-20T09:04:31Z</time>
      </trkpt>
      <trkpt lat="49.09235" lon="2.08189">
        <ele>70.4</ele>
        <time>2022-10-20T09:04:42Z</time>
      </trkpt>
      <trkpt lat="49.09242" lon="2.0818">
        <ele>70.5</ele>
        <time>2022-10-20T09:04:50Z</time>
      </trkpt>
      <trkpt lat="49.0925" lon="2.08172">
        <ele>70.5</ele>
        <time>2022-10-20T09:04:56Z</time>
      </trkpt>
      <trkpt lat="49.09258" lon="2.08162">
        <ele>70.2</ele>
        <time>2022-10-20T09:05:06Z</time>
      </trkpt>
      <trkpt lat="49.09264" lon="2.08153">
        <ele>70.3</ele>
        <time>2022-10-20T09:05:18Z</time>
      </trkpt>
      <trkpt lat="49.09273" lon="2.08144">
        <ele>70.3</ele>
        <time>2022-10-20T09:05:28Z</time>
      </trkpt>
      <trkpt lat="49.09281" lon="2.08137">
        <ele>70.4</ele>
        <time>2022-10-20T09:05:33Z</time>
      </trkpt>
      <trkpt lat="49.09288" lon="2.08128">
        <ele>70.9</ele>
        <time>2022-10-20T09:05:44Z</time>
      </trkpt>
      <trkpt lat="49.09296" lon="2.0812">
        <ele>70.7</ele>
        <time>2022-10-20T09:05:52Z</time>
      </trkpt>
      <trkpt lat="49.09304" lon="2.0811">
        <ele>70.9</ele>
        <time>2022-10-20T09:06:01Z</time>
      </trkpt>
      <trkpt lat="49.09309" lon="2.08098">
        <ele>71.2</ele>
        <time>2022-10-20T09:06:11Z</time>
      </trkpt>
      <trkpt lat="49.09316" lon="2.08089">
        <ele>71.4</ele>
        <time>2022-10-20T09:06:21Z</time>
      </trkpt>
      <trkpt lat="49.09323" lon="2.08079">
        <ele>71.3</ele>
        <time>2022-10-20T09:06:28Z</time>
      </trkpt>
      <trkpt lat="49.09328" lon="2.08067">
        <ele>71.1</ele>
        <time>2022-10-20T09:06:36Z</time>
      </trkpt>
      <trkpt lat="49.09334" lon="2.08055">
        <ele>70.7</ele>
        <time>2022-10-20T09:06:44Z</time>
      </trkpt>
      <trkpt lat="49.09341" lon="2.08046">
        <ele>70.4</ele>
        <time>2022-10-20T09:06:49Z</time>
      </trkpt>
      <trkpt lat="49.09345" lon="2.08032">
        <ele>70.4</ele>
        <time>2022-10-20T09:06:58Z</time>
      </trkpt>
      <trkpt lat="49.09353" lon="2.08022">
        <ele>70.4</ele>
        <time>2022-10-20T09:07:04Z</time>
      </trkpt>
      <trkpt lat="49.09359" lon="2.08012">
        <ele>70.4</ele>
        <time>2022-10-20T09:07:12Z</time>
      </trkpt>
      <trkpt lat="49.09367" lon="2.08004">
        <ele>70.9</ele>
        <time>2022-10-20T09:07:31Z</time>
      </trkpt>
      <trkpt lat="49.09376" lon="2.07998">
        <ele>71.1</ele>
        <time>2022-10-20T09:07:49Z</time>
      </trkpt>
      <trkpt lat="49.09382" lon="2.07988">
        <ele>71.2</ele>
        <time>2022-10-20T09:07:59Z</time>
      </trkpt>
      <trkpt lat="49.09386" lon="2.07974">
        <ele>71.4</ele>
        <time>2022-10-20T09:08:09Z</time>
      </trkpt>
      <trkpt lat="49.09392" lon="2.07963">
        <ele>71.2</ele>
        <time>2022-10-20T09:08:18Z</time>
      </trkpt>
      <trkpt lat="49.09396" lon="2.07951">
        <ele>71.2</ele>
        <time>2022-10-20T09:08:24Z</time>
      </trkpt>
      <trkpt lat="49.09401" lon="2.07939">
        <ele>70.9</ele>
        <time>2022-10-20T09:08:32Z</time>
      </trkpt>
      <trkpt lat="49.09405" lon="2.07926">
        <ele>70.6</ele>
        <time>2022-10-20T09:08:39Z</time>
      </trkpt>
      <trkpt lat="49.09408" lon="2.07913">
        <ele>70.7</ele>
        <time>2022-10-20T09:08:49Z</time>
      </trkpt>
      <trkpt lat="49.09413" lon="2.079">
        <ele>70.7</ele>
        <time>2022-10-20T09:08:54Z</time>
      </trkpt>
      <trkpt lat="49.09414" lon="2.07886">
        <ele>70.4</ele>
        <time>2022-10-20T09:09:04Z</time>
      </trkpt>
      <trkpt lat="49.09418" lon="2.07871">
        <ele>70.2</ele>
        <time>2022-10-20T09:09:10Z</time>
      </trkpt>
      <trkpt lat="49.09421" lon="2.07855">
        <ele>70.3</ele>
        <time>2022-10-20T09:09:16Z</time>
      </trkpt>
      <trkpt lat="49.09422" lon="2.07841">
        <ele>70.4</ele>
        <time>2022-10-20T09:09:29Z</time>
      </trkpt>
      <trkpt lat="49.09425" lon="2.07828">
        <ele>70.8</ele>
        <time>2022-10-20T09:09:34Z</time>
      </trkpt>
      <trkpt lat="49.09427" lon="2.07813">
        <ele>70.9</ele>
        <time>2022-10-20T09:09:45Z</time>
      </trkpt>
      <trkpt lat="49.09429" lon="2.078">
        <ele>70.8</ele>
        <time>2022-10-20T09:09:51Z</time>
      </trkpt>
      <trkpt lat="49.09433" lon="2.07787">
        <ele>71.4</ele>
        <time>2022-10-20T09:10:03Z</time>
      </trkpt>
      <trkpt lat="49.09439" lon="2.07775">
        <ele>71.3</ele>
        <time>2022-10-20T09:10:08Z</time>
      </trkpt>
      <trkpt lat="49.09445" lon="2.07764">
        <ele>71.7</ele>
        <time>2022-10-20T09:10:16Z</time>
      </trkpt>
      <trkpt lat="49.0945" lon="2.07752">
        <ele>71.7</ele>
        <time>2022-10-20T09:10:22Z</time>
      </trkpt>
      <trkpt lat="49.09453" lon="2.07739">
        <ele>71.5</ele>
        <time>2022-10-20T09:10:33Z</time>
      </trkpt>
      <trkpt lat="49.09457" lon="2.07726">
        <ele>72.3</ele>
        <time>2022-10-20T09:10:43Z</time>
      </trkpt>
      <trkpt lat="49.09463" lon="2.07715">
        <ele>72.4</ele>
        <time>2022-10-20T09:10:49Z</time>
      </trkpt>
      <trkpt lat="49.09468" lon="2.07704">
        <ele>72.5</ele>
        <time>2022-10-20T09:10:55Z</time>
      </trkpt>
      <trkpt lat="49.09475" lon="2.07695">
        <ele>72.5</ele>
        <time>2022-10-20T09:11:04Z</time>
      </trkpt>
      <trkpt lat="49.09483" lon="2.07686">
        <ele>72.3</ele>
        <time>2022-10-20T09:11:09Z</time>
      </trkpt>
      <trkpt lat="49.09489" lon="2.07675">
        <ele>72.6</ele>
        <time>2022-10-20T09:11:21Z</time>
      </trkpt>
      <trkpt lat="49.09498" lon="2.0767">
        <ele>72.5</ele>
        <time>2022-10-20T09:11:26Z</time>
      </trkpt>
      <trkpt lat="49.09505" lon="2.07658">
        <ele>72.5</ele>
        <time>2022-10-20T09:11:32Z</time>
      </trkpt>
      <trkpt lat="49.09511" lon="2.07649">
        <ele>72.5</ele>
        <time>2022-10-20T09:11:41Z</time>
      </trkpt>
      <trkpt lat="49.09516" lon="2.07637">
        <ele>71.9</ele>
        <time>2022-10-20T09:11:49Z</time>
      </trkpt>
      <trkpt lat="49.09524" lon="2.07628">
        <ele>72</ele>
        <time>2022-10-20T09:11:57Z</time>
      </trkpt>
      <trkpt lat="49.09533" lon="2.07621">
        <ele>72.2</ele>
        <time>2022-10-20T09:12:04Z</time>
      </trkpt>
      <trkpt lat="49.0954" lon="2.07614">
        <ele>72.3</ele>
        <time>2022-10-20T09:12:12Z</time>
      </trkpt>
      <trkpt lat="49.09549" lon="2.07603">
        <ele>72.3</ele>
        <time>2022-10-20T09:12:22Z</time>
      </trkpt>
      <trkpt lat="49.09558" lon="2.07595">
        <ele>72.3</ele>
        <time>2022-10-20T09:12:27Z</time>
      </trkpt>
      <trkpt lat="49.09561" lon="2.07579">
        <ele>72.1</ele>
        <time>2022-10-20T09:12:33Z</time>
      </trkpt>
      <trkpt lat="49.09568" lon="2.0757">
        <ele>71.9</ele>
        <time>2022-10-20T09:12:42Z</time>
      </trkpt>
      <trkpt lat="49.09575" lon="2.07561">
        <ele>68</ele>
        <time>2022-10-20T09:12:51Z</time>
      </trkpt>
      <trkpt lat="49.0958" lon="2.07549">
        <ele>68.7</ele>
        <time>2022-10-20T09:13:03Z</time>
      </trkpt>
      <trkpt lat="49.09587" lon="2.07537">
        <ele>71.8</ele>
        <time>2022-10-20T09:13:12Z</time>
      </trkpt>
      <trkpt lat="49.09592" lon="2.07524">
        <ele>72</ele>
        <time>2022-10-20T09:13:19Z</time>
      </trkpt>
      <trkpt lat="49.09599" lon="2.07514">
        <ele>74.5</ele>
        <time>2022-10-20T09:13:28Z</time>
      </trkpt>
      <trkpt lat="49.09605" lon="2.07502">
        <ele>73.5</ele>
        <time>2022-10-20T09:13:38Z</time>
      </trkpt>
      <trkpt lat="49.09607" lon="2.07488">
        <ele>70.1</ele>
        <time>2022-10-20T09:13:47Z</time>
      </trkpt>
      <trkpt lat="49.09614" lon="2.07477">
        <ele>73</ele>
        <time>2022-10-20T09:13:53Z</time>
      </trkpt>
      <trkpt lat="49.0962" lon="2.07466">
        <ele>72.8</ele>
        <time>2022-10-20T09:14:00Z</time>
      </trkpt>
      <trkpt lat="49.09625" lon="2.07454">
        <ele>70.1</ele>
        <time>2022-10-20T09:14:10Z</time>
      </trkpt>
      <trkpt lat="49.09631" lon="2.07441">
        <ele>73.6</ele>
        <time>2022-10-20T09:14:18Z</time>
      </trkpt>
      <trkpt lat="49.09638" lon="2.07431">
        <ele>72.6</ele>
        <time>2022-10-20T09:14:31Z</time>
      </trkpt>
      <trkpt lat="49.09645" lon="2.07421">
        <ele>74.8</ele>
        <time>2022-10-20T09:14:40Z</time>
      </trkpt>
      <trkpt lat="49.09649" lon="2.07408">
        <ele>73</ele>
        <time>2022-10-20T09:14:49Z</time>
      </trkpt>
      <trkpt lat="49.09655" lon="2.07398">
        <ele>71.6</ele>
        <time>2022-10-20T09:14:56Z</time>
      </trkpt>
      <trkpt lat="49.09662" lon="2.07388">
        <ele>72.4</ele>
        <time>2022-10-20T09:15:04Z</time>
      </trkpt>
      <trkpt lat="49.09669" lon="2.07377">
        <ele>75.8</ele>
        <time>2022-10-20T09:15:13Z</time>
      </trkpt>
      <trkpt lat="49.09674" lon="2.07364">
        <ele>73.9</ele>
        <time>2022-10-20T09:15:21Z</time>
      </trkpt>
      <trkpt lat="49.09681" lon="2.07354">
        <ele>74.3</ele>
        <time>2022-10-20T09:15:28Z</time>
      </trkpt>
      <trkpt lat="49.09687" lon="2.07343">
        <ele>72.8</ele>
        <time>2022-10-20T09:15:36Z</time>
      </trkpt>
      <trkpt lat="49.09695" lon="2.07333">
        <ele>74.8</ele>
        <time>2022-10-20T09:15:44Z</time>
      </trkpt>
      <trkpt lat="49.097" lon="2.07323">
        <ele>71.6</ele>
        <time>2022-10-20T09:15:51Z</time>
      </trkpt>
      <trkpt lat="49.09707" lon="2.07313">
        <ele>73.7</ele>
        <time>2022-10-20T09:15:58Z</time>
      </trkpt>
      <trkpt lat="49.09715" lon="2.07303">
        <ele>72.7</ele>
        <time>2022-10-20T09:16:07Z</time>
      </trkpt>
      <trkpt lat="49.09725" lon="2.07296">
        <ele>72.2</ele>
        <time>2022-10-20T09:16:15Z</time>
      </trkpt>
      <trkpt lat="49.09735" lon="2.07295">
        <ele>71.4</ele>
        <time>2022-10-20T09:16:23Z</time>
      </trkpt>
      <trkpt lat="49.09744" lon="2.0729">
        <ele>73.6</ele>
        <time>2022-10-20T09:16:32Z</time>
      </trkpt>
      <trkpt lat="49.09753" lon="2.07289">
        <ele>71.7</ele>
        <time>2022-10-20T09:16:40Z</time>
      </trkpt>
      <trkpt lat="49.09762" lon="2.07283">
        <ele>73</ele>
        <time>2022-10-20T09:16:49Z</time>
      </trkpt>
      <trkpt lat="49.09771" lon="2.0728">
        <ele>74.4</ele>
        <time>2022-10-20T09:16:56Z</time>
      </trkpt>
      <trkpt lat="49.09781" lon="2.07281">
        <ele>74.4</ele>
        <time>2022-10-20T09:17:06Z</time>
      </trkpt>
      <trkpt lat="49.09791" lon="2.07282">
        <ele>74.8</ele>
        <time>2022-10-20T09:17:13Z</time>
      </trkpt>
      <trkpt lat="49.098" lon="2.07279">
        <ele>75</ele>
        <time>2022-10-20T09:17:22Z</time>
      </trkpt>
      <trkpt lat="49.09811" lon="2.07281">
        <ele>74.5</ele>
        <time>2022-10-20T09:17:31Z</time>
      </trkpt>
      <trkpt lat="49.0982" lon="2.07285">
        <ele>74.5</ele>
        <time>2022-10-20T09:17:38Z</time>
      </trkpt>
      <trkpt lat="49.09829" lon="2.07294">
        <ele>74.8</ele>
        <time>2022-10-20T09:17:49Z</time>
      </trkpt>
      <trkpt lat="49.09838" lon="2.07295">
        <ele>74.9</ele>
        <time>2022-10-20T09:17:56Z</time>
      </trkpt>
      <trkpt lat="49.09847" lon="2.07291">
        <ele>74.9</ele>
        <time>2022-10-20T09:18:04Z</time>
      </trkpt>
      <trkpt lat="49.09856" lon="2.07284">
        <ele>75</ele>
        <time>2022-10-20T09:18:09Z</time>
      </trkpt>
      <trkpt lat="49.09866" lon="2.07278">
        <ele>74.6</ele>
        <time>2022-10-20T09:18:20Z</time>
      </trkpt>
      <trkpt lat="49.09874" lon="2.07273">
        <ele>74.9</ele>
        <time>2022-10-20T09:18:28Z</time>
      </trkpt>
      <trkpt lat="49.09884" lon="2.07269">
        <ele>74.8</ele>
        <time>2022-10-20T09:18:37Z</time>
      </trkpt>
      <trkpt lat="49.09892" lon="2.07262">
        <ele>74.8</ele>
        <time>2022-10-20T09:18:48Z</time>
      </trkpt>
      <trkpt lat="49.09901" lon="2.07256">
        <ele>74.8</ele>
        <time>2022-10-20T09:18:55Z</time>
      </trkpt>
      <trkpt lat="49.09909" lon="2.07249">
        <ele>74.6</ele>
        <time>2022-10-20T09:19:04Z</time>
      </trkpt>
      <trkpt lat="49.09916" lon="2.07238">
        <ele>74.9</ele>
        <time>2022-10-20T09:19:12Z</time>
      </trkpt>
      <trkpt lat="49.0992" lon="2.07225">
        <ele>75.5</ele>
        <time>2022-10-20T09:19:18Z</time>
      </trkpt>
      <trkpt lat="49.09923" lon="2.0721">
        <ele>75.5</ele>
        <time>2022-10-20T09:19:29Z</time>
      </trkpt>
      <trkpt lat="49.09925" lon="2.07196">
        <ele>75.4</ele>
        <time>2022-10-20T09:19:35Z</time>
      </trkpt>
      <trkpt lat="49.09921" lon="2.07182">
        <ele>75.2</ele>
        <time>2022-10-20T09:19:46Z</time>
      </trkpt>
      <trkpt lat="49.09913" lon="2.07176">
        <ele>74.9</ele>
        <time>2022-10-20T09:19:54Z</time>
      </trkpt>
      <trkpt lat="49.09904" lon="2.07176">
        <ele>74.6</ele>
        <time>2022-10-20T09:20:03Z</time>
      </trkpt>
      <trkpt lat="49.09894" lon="2.07175">
        <ele>75.3</ele>
        <time>2022-10-20T09:20:23Z</time>
      </trkpt>
      <trkpt lat="49.09886" lon="2.07168">
        <ele>75.4</ele>
        <time>2022-10-20T09:20:32Z</time>
      </trkpt>
      <trkpt lat="49.09895" lon="2.0717">
        <ele>75.6</ele>
        <time>2022-10-20T09:20:51Z</time>
      </trkpt>
      <trkpt lat="49.09887" lon="2.07166">
        <ele>75.8</ele>
        <time>2022-10-20T09:21:08Z</time>
      </trkpt>
      <trkpt lat="49.09884" lon="2.07152">
        <ele>75.7</ele>
        <time>2022-10-20T09:21:15Z</time>
      </trkpt>
      <trkpt lat="49.09884" lon="2.07137">
        <ele>75.6</ele>
        <time>2022-10-20T09:21:22Z</time>
      </trkpt>
      <trkpt lat="49.09886" lon="2.07122">
        <ele>75.6</ele>
        <time>2022-10-20T09:21:29Z</time>
      </trkpt>
      <trkpt lat="49.09887" lon="2.07108">
        <ele>75.8</ele>
        <time>2022-10-20T09:21:36Z</time>
      </trkpt>
      <trkpt lat="49.09889" lon="2.07093">
        <ele>75.6</ele>
        <time>2022-10-20T09:21:43Z</time>
      </trkpt>
      <trkpt lat="49.09889" lon="2.07078">
        <ele>75.7</ele>
        <time>2022-10-20T09:21:50Z</time>
      </trkpt>
      <trkpt lat="49.09888" lon="2.07062">
        <ele>75.9</ele>
        <time>2022-10-20T09:21:58Z</time>
      </trkpt>
      <trkpt lat="49.09888" lon="2.07047">
        <ele>75.5</ele>
        <time>2022-10-20T09:22:06Z</time>
      </trkpt>
      <trkpt lat="49.09888" lon="2.07033">
        <ele>75.2</ele>
        <time>2022-10-20T09:22:14Z</time>
      </trkpt>
      <trkpt lat="49.09888" lon="2.07018">
        <ele>74.7</ele>
        <time>2022-10-20T09:22:21Z</time>
      </trkpt>
      <trkpt lat="49.0988" lon="2.07011">
        <ele>73.6</ele>
        <time>2022-10-20T09:22:37Z</time>
      </trkpt>
      <trkpt lat="49.09871" lon="2.07001">
        <ele>62.3</ele>
        <time>2022-10-20T09:22:50Z</time>
      </trkpt>
      <trkpt lat="49.09875" lon="2.06983">
        <ele>58.9</ele>
        <time>2022-10-20T09:22:58Z</time>
      </trkpt>
      <trkpt lat="49.09884" lon="2.06971">
        <ele>59.1</ele>
        <time>2022-10-20T09:23:00Z</time>
      </trkpt>
      <trkpt lat="49.09877" lon="2.0699">
        <ele>70.1</ele>
        <time>2022-10-20T09:23:06Z</time>
      </trkpt>
      <trkpt lat="49.0987" lon="2.06998">
        <ele>70.9</ele>
        <time>2022-10-20T09:23:14Z</time>
      </trkpt>
      <trkpt lat="49.0988" lon="2.06996">
        <ele>72.7</ele>
        <time>2022-10-20T09:23:44Z</time>
      </trkpt>
      <trkpt lat="49.09886" lon="2.06983">
        <ele>75.2</ele>
        <time>2022-10-20T09:23:51Z</time>
      </trkpt>
      <trkpt lat="49.09888" lon="2.06969">
        <ele>75</ele>
        <time>2022-10-20T09:23:58Z</time>
      </trkpt>
      <trkpt lat="49.09887" lon="2.06954">
        <ele>71.4</ele>
        <time>2022-10-20T09:24:06Z</time>
      </trkpt>
      <trkpt lat="49.09889" lon="2.06939">
        <ele>74.7</ele>
        <time>2022-10-20T09:24:13Z</time>
      </trkpt>
      <trkpt lat="49.0989" lon="2.06925">
        <ele>77.6</ele>
        <time>2022-10-20T09:24:21Z</time>
      </trkpt>
      <trkpt lat="49.09891" lon="2.06911">
        <ele>77.1</ele>
        <time>2022-10-20T09:24:25Z</time>
      </trkpt>
      <trkpt lat="49.09891" lon="2.06896">
        <ele>76</ele>
        <time>2022-10-20T09:24:36Z</time>
      </trkpt>
      <trkpt lat="49.09892" lon="2.0688">
        <ele>76.3</ele>
        <time>2022-10-20T09:24:43Z</time>
      </trkpt>
      <trkpt lat="49.09892" lon="2.06866">
        <ele>76.1</ele>
        <time>2022-10-20T09:24:51Z</time>
      </trkpt>
      <trkpt lat="49.09893" lon="2.06851">
        <ele>76.4</ele>
        <time>2022-10-20T09:24:59Z</time>
      </trkpt>
      <trkpt lat="49.09893" lon="2.06837">
        <ele>76.8</ele>
        <time>2022-10-20T09:25:08Z</time>
      </trkpt>
      <trkpt lat="49.09894" lon="2.06823">
        <ele>77.1</ele>
        <time>2022-10-20T09:25:17Z</time>
      </trkpt>
      <trkpt lat="49.09896" lon="2.06808">
        <ele>78</ele>
        <time>2022-10-20T09:25:26Z</time>
      </trkpt>
      <trkpt lat="49.09899" lon="2.06792">
        <ele>77.8</ele>
        <time>2022-10-20T09:25:35Z</time>
      </trkpt>
      <trkpt lat="49.09902" lon="2.06779">
        <ele>76.6</ele>
        <time>2022-10-20T09:25:45Z</time>
      </trkpt>
      <trkpt lat="49.09905" lon="2.06765">
        <ele>76.7</ele>
        <time>2022-10-20T09:25:51Z</time>
      </trkpt>
      <trkpt lat="49.09909" lon="2.0675">
        <ele>77.1</ele>
        <time>2022-10-20T09:26:01Z</time>
      </trkpt>
      <trkpt lat="49.09914" lon="2.06738">
        <ele>76.9</ele>
        <time>2022-10-20T09:26:10Z</time>
      </trkpt>
      <trkpt lat="49.09916" lon="2.06725">
        <ele>77.3</ele>
        <time>2022-10-20T09:26:18Z</time>
      </trkpt>
      <trkpt lat="49.0992" lon="2.06712">
        <ele>76.7</ele>
        <time>2022-10-20T09:26:25Z</time>
      </trkpt>
      <trkpt lat="49.09923" lon="2.06699">
        <ele>76.5</ele>
        <time>2022-10-20T09:26:32Z</time>
      </trkpt>
      <trkpt lat="49.09927" lon="2.06686">
        <ele>76.3</ele>
        <time>2022-10-20T09:26:40Z</time>
      </trkpt>
      <trkpt lat="49.09933" lon="2.06672">
        <ele>76.6</ele>
        <time>2022-10-20T09:26:50Z</time>
      </trkpt>
      <trkpt lat="49.09936" lon="2.06659">
        <ele>72.9</ele>
        <time>2022-10-20T09:26:58Z</time>
      </trkpt>
      <trkpt lat="49.09939" lon="2.06644">
        <ele>71.9</ele>
        <time>2022-10-20T09:27:07Z</time>
      </trkpt>
      <trkpt lat="49.09944" lon="2.06632">
        <ele>76</ele>
        <time>2022-10-20T09:27:15Z</time>
      </trkpt>
      <trkpt lat="49.09948" lon="2.06619">
        <ele>75.1</ele>
        <time>2022-10-20T09:27:22Z</time>
      </trkpt>
      <trkpt lat="49.09952" lon="2.06605">
        <ele>77.5</ele>
        <time>2022-10-20T09:27:30Z</time>
      </trkpt>
      <trkpt lat="49.09956" lon="2.06593">
        <ele>74</ele>
        <time>2022-10-20T09:27:37Z</time>
      </trkpt>
      <trkpt lat="49.09958" lon="2.06578">
        <ele>76.1</ele>
        <time>2022-10-20T09:27:45Z</time>
      </trkpt>
      <trkpt lat="49.0996" lon="2.06565">
        <ele>74.1</ele>
        <time>2022-10-20T09:27:52Z</time>
      </trkpt>
      <trkpt lat="49.09961" lon="2.0655">
        <ele>74.4</ele>
        <time>2022-10-20T09:28:00Z</time>
      </trkpt>
      <trkpt lat="49.09963" lon="2.06536">
        <ele>74.3</ele>
        <time>2022-10-20T09:28:08Z</time>
      </trkpt>
      <trkpt lat="49.09965" lon="2.0652">
        <ele>75.7</ele>
        <time>2022-10-20T09:28:16Z</time>
      </trkpt>
      <trkpt lat="49.09963" lon="2.06506">
        <ele>75.1</ele>
        <time>2022-10-20T09:28:24Z</time>
      </trkpt>
      <trkpt lat="49.09962" lon="2.06492">
        <ele>75.2</ele>
        <time>2022-10-20T09:28:33Z</time>
      </trkpt>
      <trkpt lat="49.0996" lon="2.06478">
        <ele>75</ele>
        <time>2022-10-20T09:28:41Z</time>
      </trkpt>
      <trkpt lat="49.09957" lon="2.06465">
        <ele>75.8</ele>
        <time>2022-10-20T09:28:48Z</time>
      </trkpt>
      <trkpt lat="49.09955" lon="2.0645">
        <ele>75.9</ele>
        <time>2022-10-20T09:28:57Z</time>
      </trkpt>
      <trkpt lat="49.09954" lon="2.06436">
        <ele>74.9</ele>
        <time>2022-10-20T09:29:05Z</time>
      </trkpt>
      <trkpt lat="49.09949" lon="2.06423">
        <ele>74.6</ele>
        <time>2022-10-20T09:29:14Z</time>
      </trkpt>
      <trkpt lat="49.09945" lon="2.0641">
        <ele>74.3</ele>
        <time>2022-10-20T09:29:22Z</time>
      </trkpt>
      <trkpt lat="49.09941" lon="2.06398">
        <ele>75.2</ele>
        <time>2022-10-20T09:29:30Z</time>
      </trkpt>
      <trkpt lat="49.09938" lon="2.06384">
        <ele>74.8</ele>
        <time>2022-10-20T09:29:38Z</time>
      </trkpt>
      <trkpt lat="49.09934" lon="2.06372">
        <ele>75.6</ele>
        <time>2022-10-20T09:29:45Z</time>
      </trkpt>
      <trkpt lat="49.09931" lon="2.06358">
        <ele>76.2</ele>
        <time>2022-10-20T09:29:53Z</time>
      </trkpt>
      <trkpt lat="49.09927" lon="2.06344">
        <ele>75.8</ele>
        <time>2022-10-20T09:30:01Z</time>
      </trkpt>
      <trkpt lat="49.09923" lon="2.06331">
        <ele>75.6</ele>
        <time>2022-10-20T09:30:09Z</time>
      </trkpt>
      <trkpt lat="49.09918" lon="2.06318">
        <ele>75.8</ele>
        <time>2022-10-20T09:30:17Z</time>
      </trkpt>
      <trkpt lat="49.09914" lon="2.06305">
        <ele>77.2</ele>
        <time>2022-10-20T09:30:27Z</time>
      </trkpt>
      <trkpt lat="49.09909" lon="2.06292">
        <ele>76.4</ele>
        <time>2022-10-20T09:30:35Z</time>
      </trkpt>
      <trkpt lat="49.09902" lon="2.06282">
        <ele>77.8</ele>
        <time>2022-10-20T09:30:45Z</time>
      </trkpt>
      <trkpt lat="49.09897" lon="2.0627">
        <ele>77.7</ele>
        <time>2022-10-20T09:30:52Z</time>
      </trkpt>
      <trkpt lat="49.09895" lon="2.06261">
        <ele>79</ele>
        <time>2022-10-20T09:30:56Z</time>
      </trkpt>
      <trkpt lat="49.09889" lon="2.0624">
        <ele>78.4</ele>
        <time>2022-10-20T09:31:23Z</time>
      </trkpt>
      <trkpt lat="49.09889" lon="2.06239">
        <ele>78.4</ele>
        <time>2022-10-20T09:31:24Z</time>
      </trkpt>
      <trkpt lat="49.09899" lon="2.06237">
        <ele>78.2</ele>
        <time>2022-10-20T09:32:30Z</time>
      </trkpt>
      <trkpt lat="49.09907" lon="2.06242">
        <ele>78.5</ele>
        <time>2022-10-20T09:32:37Z</time>
      </trkpt>
      <trkpt lat="49.09917" lon="2.06243">
        <ele>78.8</ele>
        <time>2022-10-20T09:32:43Z</time>
      </trkpt>
      <trkpt lat="49.09926" lon="2.06249">
        <ele>78.6</ele>
        <time>2022-10-20T09:32:51Z</time>
      </trkpt>
      <trkpt lat="49.09935" lon="2.06251">
        <ele>78.9</ele>
        <time>2022-10-20T09:32:57Z</time>
      </trkpt>
      <trkpt lat="49.09943" lon="2.06259">
        <ele>78.4</ele>
        <time>2022-10-20T09:33:10Z</time>
      </trkpt>
      <trkpt lat="49.09954" lon="2.06261">
        <ele>78.7</ele>
        <time>2022-10-20T09:33:21Z</time>
      </trkpt>
      <trkpt lat="49.09963" lon="2.06262">
        <ele>79</ele>
        <time>2022-10-20T09:33:28Z</time>
      </trkpt>
      <trkpt lat="49.09973" lon="2.06263">
        <ele>79.2</ele>
        <time>2022-10-20T09:33:38Z</time>
      </trkpt>
      <trkpt lat="49.09983" lon="2.06262">
        <ele>80.3</ele>
        <time>2022-10-20T09:33:45Z</time>
      </trkpt>
      <trkpt lat="49.0999" lon="2.06254">
        <ele>80.9</ele>
        <time>2022-10-20T09:33:55Z</time>
      </trkpt>
      <trkpt lat="49.09999" lon="2.06251">
        <ele>79.6</ele>
        <time>2022-10-20T09:34:33Z</time>
      </trkpt>
      <trkpt lat="49.09995" lon="2.06237">
        <ele>79.2</ele>
        <time>2022-10-20T09:46:52Z</time>
      </trkpt>
      <trkpt lat="49.09996" lon="2.06223">
        <ele>80.7</ele>
        <time>2022-10-20T09:47:02Z</time>
      </trkpt>
      <trkpt lat="49.09999" lon="2.06209">
        <ele>81.2</ele>
        <time>2022-10-20T09:47:10Z</time>
      </trkpt>
      <trkpt lat="49.10001" lon="2.06195">
        <ele>82.5</ele>
        <time>2022-10-20T09:47:20Z</time>
      </trkpt>
      <trkpt lat="49.10006" lon="2.06183">
        <ele>82.3</ele>
        <time>2022-10-20T09:47:30Z</time>
      </trkpt>
      <trkpt lat="49.1001" lon="2.0617">
        <ele>84.8</ele>
        <time>2022-10-20T09:47:38Z</time>
      </trkpt>
      <trkpt lat="49.10012" lon="2.06156">
        <ele>85.2</ele>
        <time>2022-10-20T09:47:46Z</time>
      </trkpt>
      <trkpt lat="49.10015" lon="2.06142">
        <ele>86.1</ele>
        <time>2022-10-20T09:47:55Z</time>
      </trkpt>
      <trkpt lat="49.10015" lon="2.06128">
        <ele>86.8</ele>
        <time>2022-10-20T09:48:05Z</time>
      </trkpt>
      <trkpt lat="49.10015" lon="2.06113">
        <ele>88.2</ele>
        <time>2022-10-20T09:48:17Z</time>
      </trkpt>
      <trkpt lat="49.10018" lon="2.06097">
        <ele>88.9</ele>
        <time>2022-10-20T09:48:25Z</time>
      </trkpt>
      <trkpt lat="49.1002" lon="2.06084">
        <ele>88.6</ele>
        <time>2022-10-20T09:48:35Z</time>
      </trkpt>
      <trkpt lat="49.10022" lon="2.06069">
        <ele>89.5</ele>
        <time>2022-10-20T09:48:45Z</time>
      </trkpt>
      <trkpt lat="49.10026" lon="2.06057">
        <ele>90.2</ele>
        <time>2022-10-20T09:48:54Z</time>
      </trkpt>
      <trkpt lat="49.10031" lon="2.06044">
        <ele>91.5</ele>
        <time>2022-10-20T09:49:01Z</time>
      </trkpt>
      <trkpt lat="49.10035" lon="2.06031">
        <ele>93.1</ele>
        <time>2022-10-20T09:49:10Z</time>
      </trkpt>
      <trkpt lat="49.10038" lon="2.06018">
        <ele>93.9</ele>
        <time>2022-10-20T09:49:18Z</time>
      </trkpt>
      <trkpt lat="49.10043" lon="2.06004">
        <ele>93.7</ele>
        <time>2022-10-20T09:49:27Z</time>
      </trkpt>
      <trkpt lat="49.10047" lon="2.05991">
        <ele>94</ele>
        <time>2022-10-20T09:49:36Z</time>
      </trkpt>
      <trkpt lat="49.10053" lon="2.05979">
        <ele>95.8</ele>
        <time>2022-10-20T09:49:45Z</time>
      </trkpt>
      <trkpt lat="49.10059" lon="2.05969">
        <ele>94.5</ele>
        <time>2022-10-20T09:49:53Z</time>
      </trkpt>
      <trkpt lat="49.10064" lon="2.05956">
        <ele>95.5</ele>
        <time>2022-10-20T09:50:03Z</time>
      </trkpt>
      <trkpt lat="49.10072" lon="2.05946">
        <ele>96.1</ele>
        <time>2022-10-20T09:50:12Z</time>
      </trkpt>
      <trkpt lat="49.10081" lon="2.05938">
        <ele>94.5</ele>
        <time>2022-10-20T09:50:21Z</time>
      </trkpt>
      <trkpt lat="49.10089" lon="2.05936">
        <ele>95.5</ele>
        <time>2022-10-20T09:50:28Z</time>
      </trkpt>
      <trkpt lat="49.10099" lon="2.05937">
        <ele>96.6</ele>
        <time>2022-10-20T09:50:34Z</time>
      </trkpt>
      <trkpt lat="49.10109" lon="2.05934">
        <ele>94.4</ele>
        <time>2022-10-20T09:50:43Z</time>
      </trkpt>
      <trkpt lat="49.10119" lon="2.05936">
        <ele>93.7</ele>
        <time>2022-10-20T09:50:53Z</time>
      </trkpt>
      <trkpt lat="49.10128" lon="2.05936">
        <ele>92.5</ele>
        <time>2022-10-20T09:51:00Z</time>
      </trkpt>
      <trkpt lat="49.10138" lon="2.05935">
        <ele>95.8</ele>
        <time>2022-10-20T09:51:07Z</time>
      </trkpt>
      <trkpt lat="49.10148" lon="2.05935">
        <ele>94.6</ele>
        <time>2022-10-20T09:51:14Z</time>
      </trkpt>
      <trkpt lat="49.10158" lon="2.05933">
        <ele>93.3</ele>
        <time>2022-10-20T09:51:21Z</time>
      </trkpt>
      <trkpt lat="49.10167" lon="2.05931">
        <ele>93.9</ele>
        <time>2022-10-20T09:51:29Z</time>
      </trkpt>
      <trkpt lat="49.10177" lon="2.05927">
        <ele>90.9</ele>
        <time>2022-10-20T09:51:41Z</time>
      </trkpt>
      <trkpt lat="49.10186" lon="2.05924">
        <ele>93.7</ele>
        <time>2022-10-20T09:51:53Z</time>
      </trkpt>
      <trkpt lat="49.10196" lon="2.05926">
        <ele>95.9</ele>
        <time>2022-10-20T09:52:01Z</time>
      </trkpt>
      <trkpt lat="49.10205" lon="2.05926">
        <ele>92.3</ele>
        <time>2022-10-20T09:52:08Z</time>
      </trkpt>
      <trkpt lat="49.10215" lon="2.05926">
        <ele>92.9</ele>
        <time>2022-10-20T09:52:13Z</time>
      </trkpt>
      <trkpt lat="49.10226" lon="2.05926">
        <ele>94.1</ele>
        <time>2022-10-20T09:52:20Z</time>
      </trkpt>
      <trkpt lat="49.10236" lon="2.05927">
        <ele>91.6</ele>
        <time>2022-10-20T09:52:27Z</time>
      </trkpt>
      <trkpt lat="49.10246" lon="2.05926">
        <ele>91.9</ele>
        <time>2022-10-20T09:52:33Z</time>
      </trkpt>
      <trkpt lat="49.10255" lon="2.05925">
        <ele>95.1</ele>
        <time>2022-10-20T09:52:38Z</time>
      </trkpt>
      <trkpt lat="49.10265" lon="2.05922">
        <ele>93.9</ele>
        <time>2022-10-20T09:52:48Z</time>
      </trkpt>
      <trkpt lat="49.10275" lon="2.0592">
        <ele>93.4</ele>
        <time>2022-10-20T09:52:56Z</time>
      </trkpt>
      <trkpt lat="49.10284" lon="2.05919">
        <ele>91</ele>
        <time>2022-10-20T09:53:02Z</time>
      </trkpt>
      <trkpt lat="49.10293" lon="2.05917">
        <ele>91.7</ele>
        <time>2022-10-20T09:53:08Z</time>
      </trkpt>
      <trkpt lat="49.10303" lon="2.05916">
        <ele>92.6</ele>
        <time>2022-10-20T09:53:14Z</time>
      </trkpt>
      <trkpt lat="49.10312" lon="2.05914">
        <ele>92</ele>
        <time>2022-10-20T09:53:23Z</time>
      </trkpt>
      <trkpt lat="49.10321" lon="2.05912">
        <ele>91.3</ele>
        <time>2022-10-20T09:53:34Z</time>
      </trkpt>
      <trkpt lat="49.10331" lon="2.05911">
        <ele>88.2</ele>
        <time>2022-10-20T09:53:42Z</time>
      </trkpt>
      <trkpt lat="49.10341" lon="2.05909">
        <ele>91.3</ele>
        <time>2022-10-20T09:53:52Z</time>
      </trkpt>
      <trkpt lat="49.1035" lon="2.05904">
        <ele>91.5</ele>
        <time>2022-10-20T09:54:00Z</time>
      </trkpt>
      <trkpt lat="49.1036" lon="2.05905">
        <ele>92.7</ele>
        <time>2022-10-20T09:54:06Z</time>
      </trkpt>
      <trkpt lat="49.10371" lon="2.05908">
        <ele>92.7</ele>
        <time>2022-10-20T09:54:08Z</time>
      </trkpt>
      <trkpt lat="49.10381" lon="2.05903">
        <ele>92.6</ele>
        <time>2022-10-20T09:54:16Z</time>
      </trkpt>
      <trkpt lat="49.1039" lon="2.05903">
        <ele>92.1</ele>
        <time>2022-10-20T09:54:26Z</time>
      </trkpt>
      <trkpt lat="49.10399" lon="2.05896">
        <ele>92.6</ele>
        <time>2022-10-20T09:54:34Z</time>
      </trkpt>
      <trkpt lat="49.10408" lon="2.05891">
        <ele>91.8</ele>
        <time>2022-10-20T09:54:40Z</time>
      </trkpt>
      <trkpt lat="49.10416" lon="2.05885">
        <ele>92.1</ele>
        <time>2022-10-20T09:54:46Z</time>
      </trkpt>
      <trkpt lat="49.10426" lon="2.05882">
        <ele>91.1</ele>
        <time>2022-10-20T09:54:54Z</time>
      </trkpt>
      <trkpt lat="49.10435" lon="2.05877">
        <ele>90.9</ele>
        <time>2022-10-20T09:55:00Z</time>
      </trkpt>
      <trkpt lat="49.10443" lon="2.05869">
        <ele>91</ele>
        <time>2022-10-20T09:55:08Z</time>
      </trkpt>
      <trkpt lat="49.10452" lon="2.05861">
        <ele>93.6</ele>
        <time>2022-10-20T09:55:17Z</time>
      </trkpt>
      <trkpt lat="49.10461" lon="2.05854">
        <ele>91</ele>
        <time>2022-10-20T09:55:25Z</time>
      </trkpt>
      <trkpt lat="49.1047" lon="2.05849">
        <ele>89</ele>
        <time>2022-10-20T09:55:31Z</time>
      </trkpt>
      <trkpt lat="49.1048" lon="2.05848">
        <ele>90.6</ele>
        <time>2022-10-20T09:55:37Z</time>
      </trkpt>
      <trkpt lat="49.10489" lon="2.05846">
        <ele>90.1</ele>
        <time>2022-10-20T09:55:46Z</time>
      </trkpt>
      <trkpt lat="49.10499" lon="2.05843">
        <ele>88.7</ele>
        <time>2022-10-20T09:55:53Z</time>
      </trkpt>
      <trkpt lat="49.10508" lon="2.05839">
        <ele>89.4</ele>
        <time>2022-10-20T09:56:03Z</time>
      </trkpt>
      <trkpt lat="49.10517" lon="2.05834">
        <ele>89.7</ele>
        <time>2022-10-20T09:56:14Z</time>
      </trkpt>
      <trkpt lat="49.10527" lon="2.05831">
        <ele>90.2</ele>
        <time>2022-10-20T09:56:21Z</time>
      </trkpt>
      <trkpt lat="49.10536" lon="2.05828">
        <ele>89.9</ele>
        <time>2022-10-20T09:56:28Z</time>
      </trkpt>
      <trkpt lat="49.10545" lon="2.05824">
        <ele>88.6</ele>
        <time>2022-10-20T09:56:37Z</time>
      </trkpt>
      <trkpt lat="49.10555" lon="2.05824">
        <ele>89.8</ele>
        <time>2022-10-20T09:56:46Z</time>
      </trkpt>
      <trkpt lat="49.10563" lon="2.05818">
        <ele>89.5</ele>
        <time>2022-10-20T09:56:54Z</time>
      </trkpt>
      <trkpt lat="49.10573" lon="2.05813">
        <ele>87.5</ele>
        <time>2022-10-20T09:57:02Z</time>
      </trkpt>
      <trkpt lat="49.10582" lon="2.05807">
        <ele>89.5</ele>
        <time>2022-10-20T09:57:11Z</time>
      </trkpt>
      <trkpt lat="49.10591" lon="2.058">
        <ele>88.5</ele>
        <time>2022-10-20T09:57:20Z</time>
      </trkpt>
      <trkpt lat="49.106" lon="2.05797">
        <ele>86.9</ele>
        <time>2022-10-20T09:57:28Z</time>
      </trkpt>
      <trkpt lat="49.10609" lon="2.05793">
        <ele>86.9</ele>
        <time>2022-10-20T09:57:37Z</time>
      </trkpt>
      <trkpt lat="49.10619" lon="2.05792">
        <ele>87.2</ele>
        <time>2022-10-20T09:57:45Z</time>
      </trkpt>
      <trkpt lat="49.10629" lon="2.0579">
        <ele>88.5</ele>
        <time>2022-10-20T09:57:53Z</time>
      </trkpt>
      <trkpt lat="49.10638" lon="2.05795">
        <ele>88.9</ele>
        <time>2022-10-20T09:58:04Z</time>
      </trkpt>
      <trkpt lat="49.10647" lon="2.05797">
        <ele>89.5</ele>
        <time>2022-10-20T09:58:12Z</time>
      </trkpt>
      <trkpt lat="49.10657" lon="2.05799">
        <ele>88.6</ele>
        <time>2022-10-20T09:58:19Z</time>
      </trkpt>
      <trkpt lat="49.10667" lon="2.05802">
        <ele>88.9</ele>
        <time>2022-10-20T09:58:28Z</time>
      </trkpt>
      <trkpt lat="49.10676" lon="2.05806">
        <ele>89.2</ele>
        <time>2022-10-20T09:58:37Z</time>
      </trkpt>
      <trkpt lat="49.10686" lon="2.05809">
        <ele>87</ele>
        <time>2022-10-20T09:58:44Z</time>
      </trkpt>
      <trkpt lat="49.10695" lon="2.05811">
        <ele>89.1</ele>
        <time>2022-10-20T09:58:51Z</time>
      </trkpt>
      <trkpt lat="49.10705" lon="2.05811">
        <ele>89.1</ele>
        <time>2022-10-20T09:59:00Z</time>
      </trkpt>
      <trkpt lat="49.10714" lon="2.05812">
        <ele>90.1</ele>
        <time>2022-10-20T09:59:07Z</time>
      </trkpt>
      <trkpt lat="49.10724" lon="2.05815">
        <ele>89</ele>
        <time>2022-10-20T09:59:15Z</time>
      </trkpt>
      <trkpt lat="49.10734" lon="2.05819">
        <ele>89.3</ele>
        <time>2022-10-20T09:59:24Z</time>
      </trkpt>
      <trkpt lat="49.10743" lon="2.0582">
        <ele>88.6</ele>
        <time>2022-10-20T09:59:31Z</time>
      </trkpt>
      <trkpt lat="49.10753" lon="2.05821">
        <ele>90.3</ele>
        <time>2022-10-20T09:59:41Z</time>
      </trkpt>
      <trkpt lat="49.10762" lon="2.05822">
        <ele>90.9</ele>
        <time>2022-10-20T09:59:50Z</time>
      </trkpt>
      <trkpt lat="49.10772" lon="2.05823">
        <ele>91.7</ele>
        <time>2022-10-20T09:59:59Z</time>
      </trkpt>
      <trkpt lat="49.10782" lon="2.05824">
        <ele>93.1</ele>
        <time>2022-10-20T10:00:08Z</time>
      </trkpt>
      <trkpt lat="49.10793" lon="2.05826">
        <ele>92.4</ele>
        <time>2022-10-20T10:00:17Z</time>
      </trkpt>
      <trkpt lat="49.10802" lon="2.05827">
        <ele>91</ele>
        <time>2022-10-20T10:00:26Z</time>
      </trkpt>
      <trkpt lat="49.10813" lon="2.05827">
        <ele>92.1</ele>
        <time>2022-10-20T10:00:32Z</time>
      </trkpt>
      <trkpt lat="49.10822" lon="2.05829">
        <ele>92.8</ele>
        <time>2022-10-20T10:00:41Z</time>
      </trkpt>
      <trkpt lat="49.10832" lon="2.05831">
        <ele>92.8</ele>
        <time>2022-10-20T10:00:49Z</time>
      </trkpt>
      <trkpt lat="49.10841" lon="2.05832">
        <ele>91.9</ele>
        <time>2022-10-20T10:00:58Z</time>
      </trkpt>
      <trkpt lat="49.10851" lon="2.05836">
        <ele>92.4</ele>
        <time>2022-10-20T10:01:06Z</time>
      </trkpt>
      <trkpt lat="49.1086" lon="2.05838">
        <ele>93.7</ele>
        <time>2022-10-20T10:01:15Z</time>
      </trkpt>
      <trkpt lat="49.1087" lon="2.05839">
        <ele>93.9</ele>
        <time>2022-10-20T10:01:25Z</time>
      </trkpt>
      <trkpt lat="49.10879" lon="2.0584">
        <ele>94.6</ele>
        <time>2022-10-20T10:01:34Z</time>
      </trkpt>
      <trkpt lat="49.10889" lon="2.05841">
        <ele>95.1</ele>
        <time>2022-10-20T10:01:41Z</time>
      </trkpt>
      <trkpt lat="49.10899" lon="2.05844">
        <ele>95.7</ele>
        <time>2022-10-20T10:01:51Z</time>
      </trkpt>
      <trkpt lat="49.10908" lon="2.05845">
        <ele>95.8</ele>
        <time>2022-10-20T10:02:01Z</time>
      </trkpt>
      <trkpt lat="49.10917" lon="2.05846">
        <ele>94.7</ele>
        <time>2022-10-20T10:02:09Z</time>
      </trkpt>
      <trkpt lat="49.10927" lon="2.05848">
        <ele>96.1</ele>
        <time>2022-10-20T10:02:17Z</time>
      </trkpt>
      <trkpt lat="49.10937" lon="2.05852">
        <ele>96.3</ele>
        <time>2022-10-20T10:02:25Z</time>
      </trkpt>
      <trkpt lat="49.10946" lon="2.05852">
        <ele>97</ele>
        <time>2022-10-20T10:02:32Z</time>
      </trkpt>
      <trkpt lat="49.10956" lon="2.05852">
        <ele>96.8</ele>
        <time>2022-10-20T10:02:42Z</time>
      </trkpt>
      <trkpt lat="49.10966" lon="2.0585">
        <ele>97.3</ele>
        <time>2022-10-20T10:02:51Z</time>
      </trkpt>
      <trkpt lat="49.10975" lon="2.05851">
        <ele>97.3</ele>
        <time>2022-10-20T10:02:58Z</time>
      </trkpt>
      <trkpt lat="49.10984" lon="2.05853">
        <ele>97.5</ele>
        <time>2022-10-20T10:03:09Z</time>
      </trkpt>
      <trkpt lat="49.10994" lon="2.05854">
        <ele>100.2</ele>
        <time>2022-10-20T10:03:19Z</time>
      </trkpt>
      <trkpt lat="49.11003" lon="2.05858">
        <ele>99.4</ele>
        <time>2022-10-20T10:03:27Z</time>
      </trkpt>
      <trkpt lat="49.11011" lon="2.05862">
        <ele>100.5</ele>
        <time>2022-10-20T10:03:36Z</time>
      </trkpt>
      <trkpt lat="49.1102" lon="2.05869">
        <ele>102</ele>
        <time>2022-10-20T10:03:48Z</time>
      </trkpt>
      <trkpt lat="49.1103" lon="2.05877">
        <ele>101.9</ele>
        <time>2022-10-20T10:03:58Z</time>
      </trkpt>
      <trkpt lat="49.11039" lon="2.05879">
        <ele>104.2</ele>
        <time>2022-10-20T10:04:04Z</time>
      </trkpt>
      <trkpt lat="49.11049" lon="2.05885">
        <ele>104.6</ele>
        <time>2022-10-20T10:04:13Z</time>
      </trkpt>
      <trkpt lat="49.11058" lon="2.05891">
        <ele>104.6</ele>
        <time>2022-10-20T10:04:21Z</time>
      </trkpt>
      <trkpt lat="49.11066" lon="2.05899">
        <ele>105.5</ele>
        <time>2022-10-20T10:04:29Z</time>
      </trkpt>
      <trkpt lat="49.11074" lon="2.05908">
        <ele>106.7</ele>
        <time>2022-10-20T10:04:41Z</time>
      </trkpt>
      <trkpt lat="49.11083" lon="2.05915">
        <ele>107.5</ele>
        <time>2022-10-20T10:04:50Z</time>
      </trkpt>
      <trkpt lat="49.11089" lon="2.05924">
        <ele>107.9</ele>
        <time>2022-10-20T10:04:58Z</time>
      </trkpt>
      <trkpt lat="49.11098" lon="2.05932">
        <ele>108.3</ele>
        <time>2022-10-20T10:05:06Z</time>
      </trkpt>
      <trkpt lat="49.11107" lon="2.05937">
        <ele>108.6</ele>
        <time>2022-10-20T10:05:14Z</time>
      </trkpt>
      <trkpt lat="49.11116" lon="2.05946">
        <ele>109.1</ele>
        <time>2022-10-20T10:05:24Z</time>
      </trkpt>
      <trkpt lat="49.11125" lon="2.05951">
        <ele>110</ele>
        <time>2022-10-20T10:05:32Z</time>
      </trkpt>
      <trkpt lat="49.11133" lon="2.0596">
        <ele>109.6</ele>
        <time>2022-10-20T10:05:42Z</time>
      </trkpt>
      <trkpt lat="49.11142" lon="2.05966">
        <ele>110.7</ele>
        <time>2022-10-20T10:05:53Z</time>
      </trkpt>
      <trkpt lat="49.11149" lon="2.05976">
        <ele>110.9</ele>
        <time>2022-10-20T10:06:02Z</time>
      </trkpt>
      <trkpt lat="49.11157" lon="2.05985">
        <ele>111.1</ele>
        <time>2022-10-20T10:06:07Z</time>
      </trkpt>
      <trkpt lat="49.11166" lon="2.05992">
        <ele>112.2</ele>
        <time>2022-10-20T10:06:17Z</time>
      </trkpt>
      <trkpt lat="49.11175" lon="2.05997">
        <ele>112.5</ele>
        <time>2022-10-20T10:06:23Z</time>
      </trkpt>
      <trkpt lat="49.11184" lon="2.06004">
        <ele>112.7</ele>
        <time>2022-10-20T10:06:33Z</time>
      </trkpt>
      <trkpt lat="49.11194" lon="2.06008">
        <ele>112.5</ele>
        <time>2022-10-20T10:06:42Z</time>
      </trkpt>
      <trkpt lat="49.11203" lon="2.06011">
        <ele>112.6</ele>
        <time>2022-10-20T10:06:51Z</time>
      </trkpt>
      <trkpt lat="49.11212" lon="2.06017">
        <ele>112.5</ele>
        <time>2022-10-20T10:06:57Z</time>
      </trkpt>
      <trkpt lat="49.11221" lon="2.06023">
        <ele>112.7</ele>
        <time>2022-10-20T10:07:06Z</time>
      </trkpt>
      <trkpt lat="49.1123" lon="2.06026">
        <ele>112.6</ele>
        <time>2022-10-20T10:07:14Z</time>
      </trkpt>
      <trkpt lat="49.11239" lon="2.06031">
        <ele>112.6</ele>
        <time>2022-10-20T10:07:20Z</time>
      </trkpt>
      <trkpt lat="49.11249" lon="2.06036">
        <ele>113.1</ele>
        <time>2022-10-20T10:07:30Z</time>
      </trkpt>
      <trkpt lat="49.11258" lon="2.06039">
        <ele>113.4</ele>
        <time>2022-10-20T10:07:38Z</time>
      </trkpt>
      <trkpt lat="49.11268" lon="2.06044">
        <ele>113.6</ele>
        <time>2022-10-20T10:07:46Z</time>
      </trkpt>
      <trkpt lat="49.11278" lon="2.06049">
        <ele>113.6</ele>
        <time>2022-10-20T10:07:57Z</time>
      </trkpt>
      <trkpt lat="49.11287" lon="2.06055">
        <ele>113.6</ele>
        <time>2022-10-20T10:08:02Z</time>
      </trkpt>
      <trkpt lat="49.11297" lon="2.06058">
        <ele>113.8</ele>
        <time>2022-10-20T10:08:12Z</time>
      </trkpt>
      <trkpt lat="49.11306" lon="2.06063">
        <ele>113.7</ele>
        <time>2022-10-20T10:08:21Z</time>
      </trkpt>
      <trkpt lat="49.11315" lon="2.06069">
        <ele>113.4</ele>
        <time>2022-10-20T10:08:27Z</time>
      </trkpt>
      <trkpt lat="49.11323" lon="2.06072">
        <ele>113.5</ele>
        <time>2022-10-20T10:08:37Z</time>
      </trkpt>
      <trkpt lat="49.11333" lon="2.06077">
        <ele>113.6</ele>
        <time>2022-10-20T10:08:42Z</time>
      </trkpt>
      <trkpt lat="49.11342" lon="2.06082">
        <ele>113.9</ele>
        <time>2022-10-20T10:08:52Z</time>
      </trkpt>
      <trkpt lat="49.11351" lon="2.06087">
        <ele>114.4</ele>
        <time>2022-10-20T10:09:07Z</time>
      </trkpt>
      <trkpt lat="49.1136" lon="2.06092">
        <ele>113.5</ele>
        <time>2022-10-20T10:09:18Z</time>
      </trkpt>
      <trkpt lat="49.11368" lon="2.06096">
        <ele>113.5</ele>
        <time>2022-10-20T10:09:27Z</time>
      </trkpt>
      <trkpt lat="49.11377" lon="2.06101">
        <ele>113.5</ele>
        <time>2022-10-20T10:09:35Z</time>
      </trkpt>
      <trkpt lat="49.11386" lon="2.06105">
        <ele>113.3</ele>
        <time>2022-10-20T10:09:43Z</time>
      </trkpt>
      <trkpt lat="49.11395" lon="2.0611">
        <ele>113.2</ele>
        <time>2022-10-20T10:09:51Z</time>
      </trkpt>
      <trkpt lat="49.11404" lon="2.06114">
        <ele>113</ele>
        <time>2022-10-20T10:09:56Z</time>
      </trkpt>
      <trkpt lat="49.11413" lon="2.06115">
        <ele>113</ele>
        <time>2022-10-20T10:10:05Z</time>
      </trkpt>
      <trkpt lat="49.11422" lon="2.06118">
        <ele>113.1</ele>
        <time>2022-10-20T10:10:14Z</time>
      </trkpt>
      <trkpt lat="49.11431" lon="2.06123">
        <ele>113.2</ele>
        <time>2022-10-20T10:10:20Z</time>
      </trkpt>
      <trkpt lat="49.1144" lon="2.06128">
        <ele>112.9</ele>
        <time>2022-10-20T10:10:28Z</time>
      </trkpt>
      <trkpt lat="49.11449" lon="2.0613">
        <ele>112.7</ele>
        <time>2022-10-20T10:10:37Z</time>
      </trkpt>
      <trkpt lat="49.11459" lon="2.06134">
        <ele>112.5</ele>
        <time>2022-10-20T10:10:44Z</time>
      </trkpt>
      <trkpt lat="49.11468" lon="2.06137">
        <ele>112.5</ele>
        <time>2022-10-20T10:10:53Z</time>
      </trkpt>
      <trkpt lat="49.11478" lon="2.06141">
        <ele>112.4</ele>
        <time>2022-10-20T10:11:03Z</time>
      </trkpt>
      <trkpt lat="49.11487" lon="2.06144">
        <ele>112.2</ele>
        <time>2022-10-20T10:11:12Z</time>
      </trkpt>
      <trkpt lat="49.11496" lon="2.06148">
        <ele>112.1</ele>
        <time>2022-10-20T10:11:18Z</time>
      </trkpt>
      <trkpt lat="49.11505" lon="2.06152">
        <ele>111.7</ele>
        <time>2022-10-20T10:11:25Z</time>
      </trkpt>
      <trkpt lat="49.11513" lon="2.06155">
        <ele>107.3</ele>
        <time>2022-10-20T10:11:32Z</time>
      </trkpt>
      <trkpt lat="49.11523" lon="2.06158">
        <ele>111.7</ele>
        <time>2022-10-20T10:11:41Z</time>
      </trkpt>
      <trkpt lat="49.11533" lon="2.0616">
        <ele>113.7</ele>
        <time>2022-10-20T10:11:49Z</time>
      </trkpt>
      <trkpt lat="49.11542" lon="2.06162">
        <ele>110.5</ele>
        <time>2022-10-20T10:11:58Z</time>
      </trkpt>
      <trkpt lat="49.11552" lon="2.06164">
        <ele>112.6</ele>
        <time>2022-10-20T10:12:07Z</time>
      </trkpt>
      <trkpt lat="49.11561" lon="2.06169">
        <ele>115</ele>
        <time>2022-10-20T10:12:14Z</time>
      </trkpt>
      <trkpt lat="49.11571" lon="2.0617">
        <ele>112.7</ele>
        <time>2022-10-20T10:12:24Z</time>
      </trkpt>
      <trkpt lat="49.11582" lon="2.06174">
        <ele>113.8</ele>
        <time>2022-10-20T10:12:34Z</time>
      </trkpt>
      <trkpt lat="49.11592" lon="2.06177">
        <ele>113.2</ele>
        <time>2022-10-20T10:12:41Z</time>
      </trkpt>
      <trkpt lat="49.11601" lon="2.06182">
        <ele>113.7</ele>
        <time>2022-10-20T10:12:49Z</time>
      </trkpt>
      <trkpt lat="49.1161" lon="2.06187">
        <ele>110.5</ele>
        <time>2022-10-20T10:12:56Z</time>
      </trkpt>
      <trkpt lat="49.11619" lon="2.0619">
        <ele>111.5</ele>
        <time>2022-10-20T10:13:04Z</time>
      </trkpt>
      <trkpt lat="49.11629" lon="2.06193">
        <ele>113.2</ele>
        <time>2022-10-20T10:13:13Z</time>
      </trkpt>
      <trkpt lat="49.11638" lon="2.06195">
        <ele>111.8</ele>
        <time>2022-10-20T10:13:20Z</time>
      </trkpt>
      <trkpt lat="49.11646" lon="2.06201">
        <ele>110.7</ele>
        <time>2022-10-20T10:13:27Z</time>
      </trkpt>
      <trkpt lat="49.11655" lon="2.06203">
        <ele>109.8</ele>
        <time>2022-10-20T10:13:35Z</time>
      </trkpt>
      <trkpt lat="49.11665" lon="2.06204">
        <ele>112.5</ele>
        <time>2022-10-20T10:13:43Z</time>
      </trkpt>
      <trkpt lat="49.11675" lon="2.06206">
        <ele>111.8</ele>
        <time>2022-10-20T10:13:52Z</time>
      </trkpt>
      <trkpt lat="49.11684" lon="2.06208">
        <ele>110.5</ele>
        <time>2022-10-20T10:14:01Z</time>
      </trkpt>
      <trkpt lat="49.11694" lon="2.06211">
        <ele>110</ele>
        <time>2022-10-20T10:14:10Z</time>
      </trkpt>
      <trkpt lat="49.11703" lon="2.06215">
        <ele>110.5</ele>
        <time>2022-10-20T10:14:17Z</time>
      </trkpt>
      <trkpt lat="49.11712" lon="2.06219">
        <ele>108.1</ele>
        <time>2022-10-20T10:14:26Z</time>
      </trkpt>
      <trkpt lat="49.11714" lon="2.06233">
        <ele>110.8</ele>
        <time>2022-10-20T10:14:37Z</time>
      </trkpt>
      <trkpt lat="49.11723" lon="2.06233">
        <ele>109.9</ele>
        <time>2022-10-20T10:14:47Z</time>
      </trkpt>
      <trkpt lat="49.11728" lon="2.06246">
        <ele>108.9</ele>
        <time>2022-10-20T10:14:56Z</time>
      </trkpt>
      <trkpt lat="49.11723" lon="2.06259">
        <ele>108.5</ele>
        <time>2022-10-20T10:15:02Z</time>
      </trkpt>
      <trkpt lat="49.11716" lon="2.0627">
        <ele>107.2</ele>
        <time>2022-10-20T10:15:11Z</time>
      </trkpt>
      <trkpt lat="49.1171" lon="2.06282">
        <ele>105.8</ele>
        <time>2022-10-20T10:15:19Z</time>
      </trkpt>
      <trkpt lat="49.11702" lon="2.06292">
        <ele>106.1</ele>
        <time>2022-10-20T10:15:27Z</time>
      </trkpt>
      <trkpt lat="49.11696" lon="2.06305">
        <ele>106.1</ele>
        <time>2022-10-20T10:15:35Z</time>
      </trkpt>
      <trkpt lat="49.1169" lon="2.06316">
        <ele>107.6</ele>
        <time>2022-10-20T10:15:41Z</time>
      </trkpt>
      <trkpt lat="49.11685" lon="2.06327">
        <ele>107.4</ele>
        <time>2022-10-20T10:15:49Z</time>
      </trkpt>
      <trkpt lat="49.11679" lon="2.06339">
        <ele>105.1</ele>
        <time>2022-10-20T10:15:58Z</time>
      </trkpt>
      <trkpt lat="49.11673" lon="2.06352">
        <ele>104.5</ele>
        <time>2022-10-20T10:16:05Z</time>
      </trkpt>
      <trkpt lat="49.11667" lon="2.06363">
        <ele>106.4</ele>
        <time>2022-10-20T10:16:12Z</time>
      </trkpt>
      <trkpt lat="49.11661" lon="2.06374">
        <ele>106</ele>
        <time>2022-10-20T10:16:19Z</time>
      </trkpt>
      <trkpt lat="49.11655" lon="2.06386">
        <ele>105.9</ele>
        <time>2022-10-20T10:16:27Z</time>
      </trkpt>
      <trkpt lat="49.11649" lon="2.06398">
        <ele>103.4</ele>
        <time>2022-10-20T10:16:35Z</time>
      </trkpt>
      <trkpt lat="49.11642" lon="2.0641">
        <ele>98.5</ele>
        <time>2022-10-20T10:16:43Z</time>
      </trkpt>
      <trkpt lat="49.11637" lon="2.06422">
        <ele>106.2</ele>
        <time>2022-10-20T10:16:51Z</time>
      </trkpt>
      <trkpt lat="49.11632" lon="2.06434">
        <ele>105.7</ele>
        <time>2022-10-20T10:17:00Z</time>
      </trkpt>
      <trkpt lat="49.11627" lon="2.06445">
        <ele>105.2</ele>
        <time>2022-10-20T10:17:06Z</time>
      </trkpt>
      <trkpt lat="49.11619" lon="2.06457">
        <ele>104.7</ele>
        <time>2022-10-20T10:17:11Z</time>
      </trkpt>
      <trkpt lat="49.11613" lon="2.06468">
        <ele>104.4</ele>
        <time>2022-10-20T10:17:17Z</time>
      </trkpt>
      <trkpt lat="49.11606" lon="2.06479">
        <ele>104.3</ele>
        <time>2022-10-20T10:17:23Z</time>
      </trkpt>
      <trkpt lat="49.11601" lon="2.06492">
        <ele>104</ele>
        <time>2022-10-20T10:17:34Z</time>
      </trkpt>
      <trkpt lat="49.11595" lon="2.06503">
        <ele>103.8</ele>
        <time>2022-10-20T10:17:39Z</time>
      </trkpt>
      <trkpt lat="49.11591" lon="2.06516">
        <ele>103</ele>
        <time>2022-10-20T10:17:50Z</time>
      </trkpt>
      <trkpt lat="49.11585" lon="2.06528">
        <ele>102.5</ele>
        <time>2022-10-20T10:17:58Z</time>
      </trkpt>
      <trkpt lat="49.11581" lon="2.06542">
        <ele>102.1</ele>
        <time>2022-10-20T10:18:07Z</time>
      </trkpt>
      <trkpt lat="49.11576" lon="2.06555">
        <ele>102.4</ele>
        <time>2022-10-20T10:18:15Z</time>
      </trkpt>
      <trkpt lat="49.1157" lon="2.06566">
        <ele>101.9</ele>
        <time>2022-10-20T10:18:21Z</time>
      </trkpt>
      <trkpt lat="49.11565" lon="2.06577">
        <ele>101.3</ele>
        <time>2022-10-20T10:18:27Z</time>
      </trkpt>
      <trkpt lat="49.11562" lon="2.06591">
        <ele>100.9</ele>
        <time>2022-10-20T10:18:39Z</time>
      </trkpt>
      <trkpt lat="49.11555" lon="2.06603">
        <ele>101.2</ele>
        <time>2022-10-20T10:18:46Z</time>
      </trkpt>
      <trkpt lat="49.11548" lon="2.06615">
        <ele>101.1</ele>
        <time>2022-10-20T10:18:52Z</time>
      </trkpt>
      <trkpt lat="49.11545" lon="2.06628">
        <ele>100.8</ele>
        <time>2022-10-20T10:19:03Z</time>
      </trkpt>
      <trkpt lat="49.11538" lon="2.06641">
        <ele>100.8</ele>
        <time>2022-10-20T10:19:10Z</time>
      </trkpt>
      <trkpt lat="49.11532" lon="2.06652">
        <ele>100.7</ele>
        <time>2022-10-20T10:19:16Z</time>
      </trkpt>
      <trkpt lat="49.11528" lon="2.06664">
        <ele>100.8</ele>
        <time>2022-10-20T10:19:27Z</time>
      </trkpt>
      <trkpt lat="49.11522" lon="2.06676">
        <ele>101.2</ele>
        <time>2022-10-20T10:19:36Z</time>
      </trkpt>
      <trkpt lat="49.11515" lon="2.06686">
        <ele>100.9</ele>
        <time>2022-10-20T10:19:42Z</time>
      </trkpt>
      <trkpt lat="49.1151" lon="2.06698">
        <ele>100.6</ele>
        <time>2022-10-20T10:19:50Z</time>
      </trkpt>
      <trkpt lat="49.11503" lon="2.06709">
        <ele>100.6</ele>
        <time>2022-10-20T10:19:58Z</time>
      </trkpt>
      <trkpt lat="49.11497" lon="2.0672">
        <ele>100.2</ele>
        <time>2022-10-20T10:20:04Z</time>
      </trkpt>
      <trkpt lat="49.11493" lon="2.06733">
        <ele>100.1</ele>
        <time>2022-10-20T10:20:15Z</time>
      </trkpt>
      <trkpt lat="49.11486" lon="2.06744">
        <ele>99.6</ele>
        <time>2022-10-20T10:20:21Z</time>
      </trkpt>
      <trkpt lat="49.11481" lon="2.06757">
        <ele>99.8</ele>
        <time>2022-10-20T10:20:31Z</time>
      </trkpt>
      <trkpt lat="49.11476" lon="2.06771">
        <ele>99.8</ele>
        <time>2022-10-20T10:20:38Z</time>
      </trkpt>
      <trkpt lat="49.11472" lon="2.06785">
        <ele>99.7</ele>
        <time>2022-10-20T10:20:43Z</time>
      </trkpt>
      <trkpt lat="49.11471" lon="2.06799">
        <ele>99.5</ele>
        <time>2022-10-20T10:20:51Z</time>
      </trkpt>
      <trkpt lat="49.11471" lon="2.06813">
        <ele>99.2</ele>
        <time>2022-10-20T10:21:01Z</time>
      </trkpt>
      <trkpt lat="49.11471" lon="2.06827">
        <ele>99</ele>
        <time>2022-10-20T10:21:06Z</time>
      </trkpt>
      <trkpt lat="49.11469" lon="2.06842">
        <ele>98.4</ele>
        <time>2022-10-20T10:21:14Z</time>
      </trkpt>
      <trkpt lat="49.11471" lon="2.06858">
        <ele>98.5</ele>
        <time>2022-10-20T10:21:24Z</time>
      </trkpt>
      <trkpt lat="49.11471" lon="2.06873">
        <ele>98.4</ele>
        <time>2022-10-20T10:21:30Z</time>
      </trkpt>
      <trkpt lat="49.11472" lon="2.06887">
        <ele>98.8</ele>
        <time>2022-10-20T10:21:40Z</time>
      </trkpt>
      <trkpt lat="49.11468" lon="2.06901">
        <ele>99.1</ele>
        <time>2022-10-20T10:21:46Z</time>
      </trkpt>
      <trkpt lat="49.1146" lon="2.0691">
        <ele>99.5</ele>
        <time>2022-10-20T10:21:54Z</time>
      </trkpt>
      <trkpt lat="49.1145" lon="2.0691">
        <ele>98.9</ele>
        <time>2022-10-20T10:22:05Z</time>
      </trkpt>
      <trkpt lat="49.11441" lon="2.06907">
        <ele>98.9</ele>
        <time>2022-10-20T10:22:10Z</time>
      </trkpt>
      <trkpt lat="49.11431" lon="2.06911">
        <ele>99.1</ele>
        <time>2022-10-20T10:22:17Z</time>
      </trkpt>
      <trkpt lat="49.11421" lon="2.06915">
        <ele>99.6</ele>
        <time>2022-10-20T10:22:25Z</time>
      </trkpt>
      <trkpt lat="49.11412" lon="2.0692">
        <ele>100</ele>
        <time>2022-10-20T10:22:35Z</time>
      </trkpt>
      <trkpt lat="49.11401" lon="2.06922">
        <ele>100.6</ele>
        <time>2022-10-20T10:22:45Z</time>
      </trkpt>
      <trkpt lat="49.11393" lon="2.06924">
        <ele>100.6</ele>
        <time>2022-10-20T10:22:52Z</time>
      </trkpt>
      <trkpt lat="49.11382" lon="2.06925">
        <ele>99.8</ele>
        <time>2022-10-20T10:22:58Z</time>
      </trkpt>
      <trkpt lat="49.11372" lon="2.06928">
        <ele>99.3</ele>
        <time>2022-10-20T10:23:05Z</time>
      </trkpt>
      <trkpt lat="49.11362" lon="2.0693">
        <ele>99.6</ele>
        <time>2022-10-20T10:23:12Z</time>
      </trkpt>
      <trkpt lat="49.11353" lon="2.06933">
        <ele>99.7</ele>
        <time>2022-10-20T10:23:18Z</time>
      </trkpt>
      <trkpt lat="49.11343" lon="2.06936">
        <ele>100</ele>
        <time>2022-10-20T10:23:26Z</time>
      </trkpt>
      <trkpt lat="49.11334" lon="2.0694">
        <ele>99.9</ele>
        <time>2022-10-20T10:23:32Z</time>
      </trkpt>
      <trkpt lat="49.11325" lon="2.06944">
        <ele>99.3</ele>
        <time>2022-10-20T10:23:40Z</time>
      </trkpt>
      <trkpt lat="49.11316" lon="2.06947">
        <ele>98.8</ele>
        <time>2022-10-20T10:23:46Z</time>
      </trkpt>
      <trkpt lat="49.11306" lon="2.0695">
        <ele>98.4</ele>
        <time>2022-10-20T10:23:52Z</time>
      </trkpt>
      <trkpt lat="49.11297" lon="2.06955">
        <ele>98</ele>
        <time>2022-10-20T10:24:03Z</time>
      </trkpt>
      <trkpt lat="49.11286" lon="2.06958">
        <ele>98.4</ele>
        <time>2022-10-20T10:24:10Z</time>
      </trkpt>
      <trkpt lat="49.11276" lon="2.06961">
        <ele>98.7</ele>
        <time>2022-10-20T10:24:15Z</time>
      </trkpt>
      <trkpt lat="49.11267" lon="2.06964">
        <ele>98.8</ele>
        <time>2022-10-20T10:24:21Z</time>
      </trkpt>
      <trkpt lat="49.11258" lon="2.0697">
        <ele>99</ele>
        <time>2022-10-20T10:24:29Z</time>
      </trkpt>
      <trkpt lat="49.11249" lon="2.06975">
        <ele>98.2</ele>
        <time>2022-10-20T10:24:43Z</time>
      </trkpt>
      <trkpt lat="49.11239" lon="2.06976">
        <ele>98.2</ele>
        <time>2022-10-20T10:24:49Z</time>
      </trkpt>
      <trkpt lat="49.11229" lon="2.06977">
        <ele>97.8</ele>
        <time>2022-10-20T10:24:54Z</time>
      </trkpt>
      <trkpt lat="49.11219" lon="2.06978">
        <ele>97.1</ele>
        <time>2022-10-20T10:25:00Z</time>
      </trkpt>
      <trkpt lat="49.11209" lon="2.06981">
        <ele>96.4</ele>
        <time>2022-10-20T10:25:10Z</time>
      </trkpt>
      <trkpt lat="49.112" lon="2.06981">
        <ele>96.5</ele>
        <time>2022-10-20T10:25:19Z</time>
      </trkpt>
      <trkpt lat="49.11189" lon="2.0698">
        <ele>95.9</ele>
        <time>2022-10-20T10:25:27Z</time>
      </trkpt>
      <trkpt lat="49.1118" lon="2.0698">
        <ele>94.9</ele>
        <time>2022-10-20T10:25:35Z</time>
      </trkpt>
      <trkpt lat="49.1117" lon="2.06979">
        <ele>94.9</ele>
        <time>2022-10-20T10:25:43Z</time>
      </trkpt>
      <trkpt lat="49.11161" lon="2.06978">
        <ele>94.8</ele>
        <time>2022-10-20T10:25:51Z</time>
      </trkpt>
      <trkpt lat="49.1115" lon="2.06979">
        <ele>94.6</ele>
        <time>2022-10-20T10:25:59Z</time>
      </trkpt>
      <trkpt lat="49.11141" lon="2.0698">
        <ele>94.7</ele>
        <time>2022-10-20T10:26:06Z</time>
      </trkpt>
      <trkpt lat="49.11131" lon="2.06978">
        <ele>94.6</ele>
        <time>2022-10-20T10:26:13Z</time>
      </trkpt>
      <trkpt lat="49.11121" lon="2.06975">
        <ele>94.3</ele>
        <time>2022-10-20T10:26:20Z</time>
      </trkpt>
      <trkpt lat="49.11111" lon="2.06974">
        <ele>94.3</ele>
        <time>2022-10-20T10:26:28Z</time>
      </trkpt>
      <trkpt lat="49.11102" lon="2.06977">
        <ele>94.3</ele>
        <time>2022-10-20T10:26:41Z</time>
      </trkpt>
      <trkpt lat="49.11092" lon="2.06972">
        <ele>94</ele>
        <time>2022-10-20T10:26:50Z</time>
      </trkpt>
      <trkpt lat="49.11083" lon="2.06973">
        <ele>94.4</ele>
        <time>2022-10-20T10:26:59Z</time>
      </trkpt>
      <trkpt lat="49.11073" lon="2.06971">
        <ele>94.7</ele>
        <time>2022-10-20T10:27:06Z</time>
      </trkpt>
      <trkpt lat="49.11065" lon="2.06967">
        <ele>95.1</ele>
        <time>2022-10-20T10:27:12Z</time>
      </trkpt>
      <trkpt lat="49.11055" lon="2.06962">
        <ele>94.6</ele>
        <time>2022-10-20T10:27:18Z</time>
      </trkpt>
      <trkpt lat="49.11046" lon="2.06961">
        <ele>94.3</ele>
        <time>2022-10-20T10:27:29Z</time>
      </trkpt>
      <trkpt lat="49.11037" lon="2.06956">
        <ele>93.8</ele>
        <time>2022-10-20T10:27:34Z</time>
      </trkpt>
      <trkpt lat="49.11026" lon="2.06952">
        <ele>93.7</ele>
        <time>2022-10-20T10:27:39Z</time>
      </trkpt>
      <trkpt lat="49.11017" lon="2.06954">
        <ele>93.5</ele>
        <time>2022-10-20T10:27:48Z</time>
      </trkpt>
      <trkpt lat="49.11007" lon="2.06951">
        <ele>93.5</ele>
        <time>2022-10-20T10:27:54Z</time>
      </trkpt>
      <trkpt lat="49.10997" lon="2.06947">
        <ele>93.8</ele>
        <time>2022-10-20T10:28:00Z</time>
      </trkpt>
      <trkpt lat="49.10988" lon="2.06945">
        <ele>93.6</ele>
        <time>2022-10-20T10:28:06Z</time>
      </trkpt>
      <trkpt lat="49.10979" lon="2.06943">
        <ele>93.3</ele>
        <time>2022-10-20T10:28:13Z</time>
      </trkpt>
      <trkpt lat="49.10969" lon="2.06944">
        <ele>93.1</ele>
        <time>2022-10-20T10:28:24Z</time>
      </trkpt>
      <trkpt lat="49.1096" lon="2.06941">
        <ele>93.3</ele>
        <time>2022-10-20T10:28:30Z</time>
      </trkpt>
      <trkpt lat="49.10949" lon="2.06937">
        <ele>93.7</ele>
        <time>2022-10-20T10:28:35Z</time>
      </trkpt>
      <trkpt lat="49.1094" lon="2.06936">
        <ele>93.4</ele>
        <time>2022-10-20T10:28:41Z</time>
      </trkpt>
      <trkpt lat="49.10931" lon="2.06932">
        <ele>93.5</ele>
        <time>2022-10-20T10:28:52Z</time>
      </trkpt>
      <trkpt lat="49.10922" lon="2.06927">
        <ele>93.5</ele>
        <time>2022-10-20T10:28:59Z</time>
      </trkpt>
      <trkpt lat="49.10912" lon="2.06923">
        <ele>93.1</ele>
        <time>2022-10-20T10:29:05Z</time>
      </trkpt>
      <trkpt lat="49.10903" lon="2.0692">
        <ele>93.1</ele>
        <time>2022-10-20T10:29:11Z</time>
      </trkpt>
      <trkpt lat="49.10893" lon="2.06924">
        <ele>93.1</ele>
        <time>2022-10-20T10:29:21Z</time>
      </trkpt>
      <trkpt lat="49.10883" lon="2.06925">
        <ele>92.5</ele>
        <time>2022-10-20T10:29:28Z</time>
      </trkpt>
      <trkpt lat="49.10874" lon="2.06924">
        <ele>92.1</ele>
        <time>2022-10-20T10:29:34Z</time>
      </trkpt>
      <trkpt lat="49.10864" lon="2.06925">
        <ele>91.6</ele>
        <time>2022-10-20T10:29:41Z</time>
      </trkpt>
      <trkpt lat="49.10856" lon="2.0693">
        <ele>91.2</ele>
        <time>2022-10-20T10:29:53Z</time>
      </trkpt>
      <trkpt lat="49.10846" lon="2.06927">
        <ele>91.1</ele>
        <time>2022-10-20T10:30:01Z</time>
      </trkpt>
      <trkpt lat="49.10837" lon="2.06926">
        <ele>90.8</ele>
        <time>2022-10-20T10:30:07Z</time>
      </trkpt>
      <trkpt lat="49.10828" lon="2.06928">
        <ele>90.6</ele>
        <time>2022-10-20T10:30:12Z</time>
      </trkpt>
      <trkpt lat="49.10819" lon="2.0693">
        <ele>89.9</ele>
        <time>2022-10-20T10:30:22Z</time>
      </trkpt>
      <trkpt lat="49.1081" lon="2.06929">
        <ele>90</ele>
        <time>2022-10-20T10:30:29Z</time>
      </trkpt>
      <trkpt lat="49.10799" lon="2.06925">
        <ele>89.9</ele>
        <time>2022-10-20T10:30:34Z</time>
      </trkpt>
      <trkpt lat="49.1079" lon="2.06925">
        <ele>89.7</ele>
        <time>2022-10-20T10:30:42Z</time>
      </trkpt>
      <trkpt lat="49.10781" lon="2.06926">
        <ele>89.9</ele>
        <time>2022-10-20T10:30:53Z</time>
      </trkpt>
      <trkpt lat="49.10771" lon="2.06923">
        <ele>89.9</ele>
        <time>2022-10-20T10:30:58Z</time>
      </trkpt>
      <trkpt lat="49.10762" lon="2.06922">
        <ele>89.9</ele>
        <time>2022-10-20T10:31:03Z</time>
      </trkpt>
      <trkpt lat="49.10752" lon="2.06922">
        <ele>89.7</ele>
        <time>2022-10-20T10:31:14Z</time>
      </trkpt>
      <trkpt lat="49.10742" lon="2.06924">
        <ele>89.6</ele>
        <time>2022-10-20T10:31:24Z</time>
      </trkpt>
      <trkpt lat="49.10732" lon="2.06925">
        <ele>89.5</ele>
        <time>2022-10-20T10:31:31Z</time>
      </trkpt>
      <trkpt lat="49.10722" lon="2.06926">
        <ele>89.5</ele>
        <time>2022-10-20T10:31:37Z</time>
      </trkpt>
      <trkpt lat="49.10713" lon="2.0693">
        <ele>88.6</ele>
        <time>2022-10-20T10:31:43Z</time>
      </trkpt>
      <trkpt lat="49.10704" lon="2.06936">
        <ele>88.5</ele>
        <time>2022-10-20T10:31:53Z</time>
      </trkpt>
      <trkpt lat="49.10695" lon="2.0694">
        <ele>88.8</ele>
        <time>2022-10-20T10:32:02Z</time>
      </trkpt>
      <trkpt lat="49.10685" lon="2.06943">
        <ele>88.5</ele>
        <time>2022-10-20T10:32:08Z</time>
      </trkpt>
      <trkpt lat="49.10676" lon="2.06949">
        <ele>88.3</ele>
        <time>2022-10-20T10:32:14Z</time>
      </trkpt>
      <trkpt lat="49.10668" lon="2.06957">
        <ele>88.7</ele>
        <time>2022-10-20T10:32:26Z</time>
      </trkpt>
      <trkpt lat="49.10658" lon="2.06958">
        <ele>88.9</ele>
        <time>2022-10-20T10:32:33Z</time>
      </trkpt>
      <trkpt lat="49.10649" lon="2.0696">
        <ele>88.5</ele>
        <time>2022-10-20T10:32:40Z</time>
      </trkpt>
      <trkpt lat="49.1064" lon="2.06961">
        <ele>88</ele>
        <time>2022-10-20T10:32:47Z</time>
      </trkpt>
      <trkpt lat="49.1063" lon="2.06961">
        <ele>87.2</ele>
        <time>2022-10-20T10:32:58Z</time>
      </trkpt>
      <trkpt lat="49.10621" lon="2.06963">
        <ele>87.4</ele>
        <time>2022-10-20T10:33:05Z</time>
      </trkpt>
      <trkpt lat="49.10612" lon="2.06969">
        <ele>87.6</ele>
        <time>2022-10-20T10:33:09Z</time>
      </trkpt>
      <trkpt lat="49.10603" lon="2.06975">
        <ele>87.4</ele>
        <time>2022-10-20T10:33:14Z</time>
      </trkpt>
      <trkpt lat="49.10593" lon="2.06976">
        <ele>87.6</ele>
        <time>2022-10-20T10:33:19Z</time>
      </trkpt>
      <trkpt lat="49.10582" lon="2.0698">
        <ele>87.8</ele>
        <time>2022-10-20T10:33:34Z</time>
      </trkpt>
      <trkpt lat="49.10573" lon="2.06985">
        <ele>87.5</ele>
        <time>2022-10-20T10:33:40Z</time>
      </trkpt>
      <trkpt lat="49.10564" lon="2.06984">
        <ele>87.6</ele>
        <time>2022-10-20T10:33:52Z</time>
      </trkpt>
      <trkpt lat="49.10553" lon="2.06985">
        <ele>87.8</ele>
        <time>2022-10-20T10:33:57Z</time>
      </trkpt>
      <trkpt lat="49.10543" lon="2.06984">
        <ele>87.7</ele>
        <time>2022-10-20T10:34:03Z</time>
      </trkpt>
      <trkpt lat="49.10533" lon="2.06983">
        <ele>87.5</ele>
        <time>2022-10-20T10:34:13Z</time>
      </trkpt>
      <trkpt lat="49.10524" lon="2.06989">
        <ele>87.8</ele>
        <time>2022-10-20T10:34:19Z</time>
      </trkpt>
      <trkpt lat="49.10515" lon="2.06989">
        <ele>87.1</ele>
        <time>2022-10-20T10:34:27Z</time>
      </trkpt>
      <trkpt lat="49.10506" lon="2.06987">
        <ele>87.3</ele>
        <time>2022-10-20T10:34:37Z</time>
      </trkpt>
      <trkpt lat="49.10497" lon="2.06989">
        <ele>86.5</ele>
        <time>2022-10-20T10:34:44Z</time>
      </trkpt>
      <trkpt lat="49.10487" lon="2.06992">
        <ele>85.6</ele>
        <time>2022-10-20T10:34:51Z</time>
      </trkpt>
      <trkpt lat="49.10477" lon="2.06996">
        <ele>85.4</ele>
        <time>2022-10-20T10:35:00Z</time>
      </trkpt>
      <trkpt lat="49.10468" lon="2.07003">
        <ele>85.4</ele>
        <time>2022-10-20T10:35:04Z</time>
      </trkpt>
      <trkpt lat="49.1046" lon="2.0701">
        <ele>85.6</ele>
        <time>2022-10-20T10:35:09Z</time>
      </trkpt>
      <trkpt lat="49.10452" lon="2.07017">
        <ele>85.4</ele>
        <time>2022-10-20T10:35:21Z</time>
      </trkpt>
      <trkpt lat="49.10445" lon="2.07027">
        <ele>85.2</ele>
        <time>2022-10-20T10:35:26Z</time>
      </trkpt>
      <trkpt lat="49.10436" lon="2.07035">
        <ele>84.9</ele>
        <time>2022-10-20T10:35:32Z</time>
      </trkpt>
      <trkpt lat="49.10428" lon="2.07044">
        <ele>84.2</ele>
        <time>2022-10-20T10:35:44Z</time>
      </trkpt>
      <trkpt lat="49.10419" lon="2.07053">
        <ele>83.9</ele>
        <time>2022-10-20T10:35:49Z</time>
      </trkpt>
      <trkpt lat="49.10412" lon="2.07064">
        <ele>83.6</ele>
        <time>2022-10-20T10:35:54Z</time>
      </trkpt>
      <trkpt lat="49.10403" lon="2.07065">
        <ele>82.9</ele>
        <time>2022-10-20T10:36:03Z</time>
      </trkpt>
      <trkpt lat="49.10396" lon="2.07074">
        <ele>82.2</ele>
        <time>2022-10-20T10:36:16Z</time>
      </trkpt>
      <trkpt lat="49.10389" lon="2.07085">
        <ele>82.1</ele>
        <time>2022-10-20T10:36:20Z</time>
      </trkpt>
      <trkpt lat="49.1038" lon="2.07092">
        <ele>82</ele>
        <time>2022-10-20T10:36:25Z</time>
      </trkpt>
      <trkpt lat="49.10371" lon="2.07097">
        <ele>81.4</ele>
        <time>2022-10-20T10:36:33Z</time>
      </trkpt>
      <trkpt lat="49.10363" lon="2.07108">
        <ele>81.2</ele>
        <time>2022-10-20T10:36:44Z</time>
      </trkpt>
      <trkpt lat="49.10356" lon="2.07119">
        <ele>81.7</ele>
        <time>2022-10-20T10:36:52Z</time>
      </trkpt>
      <trkpt lat="49.10348" lon="2.07125">
        <ele>81.6</ele>
        <time>2022-10-20T10:37:00Z</time>
      </trkpt>
      <trkpt lat="49.10338" lon="2.0713">
        <ele>81.3</ele>
        <time>2022-10-20T10:37:07Z</time>
      </trkpt>
      <trkpt lat="49.10329" lon="2.07135">
        <ele>81.3</ele>
        <time>2022-10-20T10:37:14Z</time>
      </trkpt>
      <trkpt lat="49.10321" lon="2.0714">
        <ele>81.1</ele>
        <time>2022-10-20T10:37:21Z</time>
      </trkpt>
      <trkpt lat="49.10313" lon="2.07149">
        <ele>80</ele>
        <time>2022-10-20T10:37:30Z</time>
      </trkpt>
      <trkpt lat="49.10305" lon="2.07157">
        <ele>79.7</ele>
        <time>2022-10-20T10:37:38Z</time>
      </trkpt>
      <trkpt lat="49.103" lon="2.0717">
        <ele>79.8</ele>
        <time>2022-10-20T10:37:46Z</time>
      </trkpt>
      <trkpt lat="49.10296" lon="2.07182">
        <ele>79.3</ele>
        <time>2022-10-20T10:37:56Z</time>
      </trkpt>
      <trkpt lat="49.10293" lon="2.07196">
        <ele>79.1</ele>
        <time>2022-10-20T10:38:01Z</time>
      </trkpt>
      <trkpt lat="49.10286" lon="2.07208">
        <ele>78.8</ele>
        <time>2022-10-20T10:38:07Z</time>
      </trkpt>
      <trkpt lat="49.10283" lon="2.07222">
        <ele>78.8</ele>
        <time>2022-10-20T10:38:14Z</time>
      </trkpt>
      <trkpt lat="49.10281" lon="2.07236">
        <ele>79</ele>
        <time>2022-10-20T10:38:24Z</time>
      </trkpt>
      <trkpt lat="49.10275" lon="2.07249">
        <ele>79.1</ele>
        <time>2022-10-20T10:38:34Z</time>
      </trkpt>
      <trkpt lat="49.10268" lon="2.07261">
        <ele>79.1</ele>
        <time>2022-10-20T10:38:40Z</time>
      </trkpt>
      <trkpt lat="49.10262" lon="2.07272">
        <ele>79.3</ele>
        <time>2022-10-20T10:38:44Z</time>
      </trkpt>
      <trkpt lat="49.10257" lon="2.07285">
        <ele>79.1</ele>
        <time>2022-10-20T10:38:49Z</time>
      </trkpt>
      <trkpt lat="49.10253" lon="2.07298">
        <ele>78.9</ele>
        <time>2022-10-20T10:38:58Z</time>
      </trkpt>
      <trkpt lat="49.10248" lon="2.0731">
        <ele>76.9</ele>
        <time>2022-10-20T10:39:06Z</time>
      </trkpt>
      <trkpt lat="49.10243" lon="2.07322">
        <ele>79.3</ele>
        <time>2022-10-20T10:39:14Z</time>
      </trkpt>
      <trkpt lat="49.10237" lon="2.07334">
        <ele>79.5</ele>
        <time>2022-10-20T10:39:22Z</time>
      </trkpt>
      <trkpt lat="49.10233" lon="2.07347">
        <ele>71.3</ele>
        <time>2022-10-20T10:39:30Z</time>
      </trkpt>
      <trkpt lat="49.10226" lon="2.07358">
        <ele>79.9</ele>
        <time>2022-10-20T10:39:43Z</time>
      </trkpt>
      <trkpt lat="49.10221" lon="2.0737">
        <ele>79.8</ele>
        <time>2022-10-20T10:40:09Z</time>
      </trkpt>
      <trkpt lat="49.10226" lon="2.07382">
        <ele>80.6</ele>
        <time>2022-10-20T10:40:21Z</time>
      </trkpt>
      <trkpt lat="49.10221" lon="2.07396">
        <ele>81.2</ele>
        <time>2022-10-20T10:40:32Z</time>
      </trkpt>
      <trkpt lat="49.10222" lon="2.0741">
        <ele>82</ele>
        <time>2022-10-20T10:40:41Z</time>
      </trkpt>
      <trkpt lat="49.10221" lon="2.07425">
        <ele>82.4</ele>
        <time>2022-10-20T10:40:54Z</time>
      </trkpt>
      <trkpt lat="49.1022" lon="2.07438">
        <ele>82.7</ele>
        <time>2022-10-20T10:41:01Z</time>
      </trkpt>
      <trkpt lat="49.10217" lon="2.07453">
        <ele>83.3</ele>
        <time>2022-10-20T10:41:08Z</time>
      </trkpt>
      <trkpt lat="49.10215" lon="2.07467">
        <ele>83.7</ele>
        <time>2022-10-20T10:41:16Z</time>
      </trkpt>
      <trkpt lat="49.10211" lon="2.07481">
        <ele>84.6</ele>
        <time>2022-10-20T10:41:26Z</time>
      </trkpt>
      <trkpt lat="49.10207" lon="2.07494">
        <ele>85.4</ele>
        <time>2022-10-20T10:41:33Z</time>
      </trkpt>
      <trkpt lat="49.10209" lon="2.07507">
        <ele>86.2</ele>
        <time>2022-10-20T10:41:40Z</time>
      </trkpt>
      <trkpt lat="49.10206" lon="2.07521">
        <ele>86.9</ele>
        <time>2022-10-20T10:41:50Z</time>
      </trkpt>
      <trkpt lat="49.10202" lon="2.07534">
        <ele>88.1</ele>
        <time>2022-10-20T10:42:01Z</time>
      </trkpt>
      <trkpt lat="49.10198" lon="2.07548">
        <ele>89.4</ele>
        <time>2022-10-20T10:42:10Z</time>
      </trkpt>
      <trkpt lat="49.10195" lon="2.07562">
        <ele>90</ele>
        <time>2022-10-20T10:42:19Z</time>
      </trkpt>
      <trkpt lat="49.10189" lon="2.07573">
        <ele>90.4</ele>
        <time>2022-10-20T10:42:28Z</time>
      </trkpt>
      <trkpt lat="49.10184" lon="2.07586">
        <ele>90.5</ele>
        <time>2022-10-20T10:42:38Z</time>
      </trkpt>
      <trkpt lat="49.1018" lon="2.07599">
        <ele>90.6</ele>
        <time>2022-10-20T10:42:44Z</time>
      </trkpt>
      <trkpt lat="49.10174" lon="2.07611">
        <ele>90.8</ele>
        <time>2022-10-20T10:42:52Z</time>
      </trkpt>
      <trkpt lat="49.10169" lon="2.07623">
        <ele>91</ele>
        <time>2022-10-20T10:43:01Z</time>
      </trkpt>
      <trkpt lat="49.10164" lon="2.07636">
        <ele>91.2</ele>
        <time>2022-10-20T10:43:08Z</time>
      </trkpt>
      <trkpt lat="49.10159" lon="2.07648">
        <ele>91.2</ele>
        <time>2022-10-20T10:43:15Z</time>
      </trkpt>
      <trkpt lat="49.10155" lon="2.0766">
        <ele>91.7</ele>
        <time>2022-10-20T10:43:23Z</time>
      </trkpt>
      <trkpt lat="49.1015" lon="2.07674">
        <ele>91.6</ele>
        <time>2022-10-20T10:43:34Z</time>
      </trkpt>
      <trkpt lat="49.10145" lon="2.07686">
        <ele>91.9</ele>
        <time>2022-10-20T10:43:42Z</time>
      </trkpt>
      <trkpt lat="49.10141" lon="2.07701">
        <ele>92.2</ele>
        <time>2022-10-20T10:43:51Z</time>
      </trkpt>
      <trkpt lat="49.10136" lon="2.07713">
        <ele>92.2</ele>
        <time>2022-10-20T10:44:00Z</time>
      </trkpt>
      <trkpt lat="49.10131" lon="2.07725">
        <ele>92.5</ele>
        <time>2022-10-20T10:44:09Z</time>
      </trkpt>
      <trkpt lat="49.10126" lon="2.07736">
        <ele>92.6</ele>
        <time>2022-10-20T10:44:16Z</time>
      </trkpt>
      <trkpt lat="49.1012" lon="2.07751">
        <ele>93</ele>
        <time>2022-10-20T10:44:26Z</time>
      </trkpt>
      <trkpt lat="49.10115" lon="2.07764">
        <ele>93.3</ele>
        <time>2022-10-20T10:44:35Z</time>
      </trkpt>
      <trkpt lat="49.1011" lon="2.07776">
        <ele>93.6</ele>
        <time>2022-10-20T10:44:42Z</time>
      </trkpt>
      <trkpt lat="49.10105" lon="2.07789">
        <ele>93.5</ele>
        <time>2022-10-20T10:44:51Z</time>
      </trkpt>
      <trkpt lat="49.10101" lon="2.07802">
        <ele>93.9</ele>
        <time>2022-10-20T10:45:01Z</time>
      </trkpt>
      <trkpt lat="49.10097" lon="2.07815">
        <ele>93.9</ele>
        <time>2022-10-20T10:45:09Z</time>
      </trkpt>
      <trkpt lat="49.10091" lon="2.07827">
        <ele>93.7</ele>
        <time>2022-10-20T10:45:15Z</time>
      </trkpt>
      <trkpt lat="49.10085" lon="2.0784">
        <ele>93.8</ele>
        <time>2022-10-20T10:45:24Z</time>
      </trkpt>
      <trkpt lat="49.10081" lon="2.07854">
        <ele>93.8</ele>
        <time>2022-10-20T10:45:35Z</time>
      </trkpt>
      <trkpt lat="49.10076" lon="2.07867">
        <ele>93.7</ele>
        <time>2022-10-20T10:45:41Z</time>
      </trkpt>
      <trkpt lat="49.10072" lon="2.0788">
        <ele>94.2</ele>
        <time>2022-10-20T10:45:49Z</time>
      </trkpt>
      <trkpt lat="49.10067" lon="2.07892">
        <ele>93</ele>
        <time>2022-10-20T10:45:57Z</time>
      </trkpt>
      <trkpt lat="49.10063" lon="2.07904">
        <ele>93.4</ele>
        <time>2022-10-20T10:46:04Z</time>
      </trkpt>
      <trkpt lat="49.10059" lon="2.07917">
        <ele>93.5</ele>
        <time>2022-10-20T10:46:12Z</time>
      </trkpt>
      <trkpt lat="49.10053" lon="2.07929">
        <ele>92.5</ele>
        <time>2022-10-20T10:46:20Z</time>
      </trkpt>
      <trkpt lat="49.10047" lon="2.07941">
        <ele>91.8</ele>
        <time>2022-10-20T10:46:28Z</time>
      </trkpt>
      <trkpt lat="49.10042" lon="2.07955">
        <ele>91.6</ele>
        <time>2022-10-20T10:46:35Z</time>
      </trkpt>
      <trkpt lat="49.1004" lon="2.07968">
        <ele>91.3</ele>
        <time>2022-10-20T10:46:43Z</time>
      </trkpt>
      <trkpt lat="49.10033" lon="2.07981">
        <ele>90.8</ele>
        <time>2022-10-20T10:46:49Z</time>
      </trkpt>
      <trkpt lat="49.10027" lon="2.07993">
        <ele>90.5</ele>
        <time>2022-10-20T10:46:55Z</time>
      </trkpt>
      <trkpt lat="49.10024" lon="2.08007">
        <ele>91.2</ele>
        <time>2022-10-20T10:47:06Z</time>
      </trkpt>
      <trkpt lat="49.10018" lon="2.08019">
        <ele>92.2</ele>
        <time>2022-10-20T10:47:13Z</time>
      </trkpt>
      <trkpt lat="49.10015" lon="2.08032">
        <ele>91.4</ele>
        <time>2022-10-20T10:47:21Z</time>
      </trkpt>
      <trkpt lat="49.10009" lon="2.08045">
        <ele>91.4</ele>
        <time>2022-10-20T10:47:29Z</time>
      </trkpt>
      <trkpt lat="49.10005" lon="2.08058">
        <ele>91.8</ele>
        <time>2022-10-20T10:47:37Z</time>
      </trkpt>
      <trkpt lat="49.09999" lon="2.0807">
        <ele>91.7</ele>
        <time>2022-10-20T10:47:44Z</time>
      </trkpt>
      <trkpt lat="49.09993" lon="2.08083">
        <ele>91.2</ele>
        <time>2022-10-20T10:47:49Z</time>
      </trkpt>
      <trkpt lat="49.09988" lon="2.08095">
        <ele>90.6</ele>
        <time>2022-10-20T10:47:55Z</time>
      </trkpt>
      <trkpt lat="49.09985" lon="2.08108">
        <ele>89.9</ele>
        <time>2022-10-20T10:48:05Z</time>
      </trkpt>
      <trkpt lat="49.0998" lon="2.08123">
        <ele>90.5</ele>
        <time>2022-10-20T10:48:14Z</time>
      </trkpt>
      <trkpt lat="49.09974" lon="2.08136">
        <ele>90.3</ele>
        <time>2022-10-20T10:48:19Z</time>
      </trkpt>
      <trkpt lat="49.09971" lon="2.08149">
        <ele>89.9</ele>
        <time>2022-10-20T10:48:29Z</time>
      </trkpt>
      <trkpt lat="49.09966" lon="2.08162">
        <ele>89.3</ele>
        <time>2022-10-20T10:48:38Z</time>
      </trkpt>
      <trkpt lat="49.09961" lon="2.08174">
        <ele>89.2</ele>
        <time>2022-10-20T10:48:43Z</time>
      </trkpt>
      <trkpt lat="49.09955" lon="2.08187">
        <ele>89.3</ele>
        <time>2022-10-20T10:48:48Z</time>
      </trkpt>
      <trkpt lat="49.09951" lon="2.082">
        <ele>89.2</ele>
        <time>2022-10-20T10:48:54Z</time>
      </trkpt>
      <trkpt lat="49.09953" lon="2.08213">
        <ele>89.1</ele>
        <time>2022-10-20T10:49:10Z</time>
      </trkpt>
      <trkpt lat="49.09949" lon="2.08228">
        <ele>89.1</ele>
        <time>2022-10-20T10:49:16Z</time>
      </trkpt>
      <trkpt lat="49.09945" lon="2.08241">
        <ele>89.3</ele>
        <time>2022-10-20T10:49:21Z</time>
      </trkpt>
      <trkpt lat="49.09943" lon="2.08256">
        <ele>89.9</ele>
        <time>2022-10-20T10:49:30Z</time>
      </trkpt>
      <trkpt lat="49.0994" lon="2.0827">
        <ele>89.6</ele>
        <time>2022-10-20T10:49:39Z</time>
      </trkpt>
      <trkpt lat="49.09935" lon="2.08284">
        <ele>89.5</ele>
        <time>2022-10-20T10:49:45Z</time>
      </trkpt>
      <trkpt lat="49.09932" lon="2.08298">
        <ele>90</ele>
        <time>2022-10-20T10:49:55Z</time>
      </trkpt>
      <trkpt lat="49.09928" lon="2.08311">
        <ele>90.2</ele>
        <time>2022-10-20T10:50:02Z</time>
      </trkpt>
      <trkpt lat="49.09923" lon="2.08324">
        <ele>89.5</ele>
        <time>2022-10-20T10:50:09Z</time>
      </trkpt>
      <trkpt lat="49.09918" lon="2.08335">
        <ele>89.3</ele>
        <time>2022-10-20T10:50:19Z</time>
      </trkpt>
      <trkpt lat="49.09913" lon="2.08346">
        <ele>89.2</ele>
        <time>2022-10-20T10:50:26Z</time>
      </trkpt>
      <trkpt lat="49.09907" lon="2.08358">
        <ele>89.2</ele>
        <time>2022-10-20T10:50:34Z</time>
      </trkpt>
      <trkpt lat="49.09901" lon="2.08371">
        <ele>89.3</ele>
        <time>2022-10-20T10:50:44Z</time>
      </trkpt>
      <trkpt lat="49.09895" lon="2.08383">
        <ele>89.1</ele>
        <time>2022-10-20T10:50:49Z</time>
      </trkpt>
      <trkpt lat="49.09891" lon="2.08396">
        <ele>89.4</ele>
        <time>2022-10-20T10:51:00Z</time>
      </trkpt>
      <trkpt lat="49.09886" lon="2.08408">
        <ele>89.8</ele>
        <time>2022-10-20T10:51:05Z</time>
      </trkpt>
      <trkpt lat="49.0988" lon="2.08418">
        <ele>90.3</ele>
        <time>2022-10-20T10:51:14Z</time>
      </trkpt>
      <trkpt lat="49.09873" lon="2.0843">
        <ele>90.2</ele>
        <time>2022-10-20T10:51:19Z</time>
      </trkpt>
      <trkpt lat="49.0987" lon="2.08443">
        <ele>90</ele>
        <time>2022-10-20T10:51:31Z</time>
      </trkpt>
      <trkpt lat="49.09864" lon="2.08455">
        <ele>89.6</ele>
        <time>2022-10-20T10:51:36Z</time>
      </trkpt>
      <trkpt lat="49.09858" lon="2.08467">
        <ele>89.6</ele>
        <time>2022-10-20T10:51:46Z</time>
      </trkpt>
      <trkpt lat="49.09855" lon="2.0848">
        <ele>89.3</ele>
        <time>2022-10-20T10:51:56Z</time>
      </trkpt>
      <trkpt lat="49.0985" lon="2.08492">
        <ele>89.4</ele>
        <time>2022-10-20T10:52:02Z</time>
      </trkpt>
      <trkpt lat="49.09843" lon="2.08506">
        <ele>89.3</ele>
        <time>2022-10-20T10:52:07Z</time>
      </trkpt>
      <trkpt lat="49.09838" lon="2.08518">
        <ele>89.1</ele>
        <time>2022-10-20T10:52:11Z</time>
      </trkpt>
      <trkpt lat="49.09835" lon="2.08531">
        <ele>88.5</ele>
        <time>2022-10-20T10:52:20Z</time>
      </trkpt>
      <trkpt lat="49.0983" lon="2.08544">
        <ele>88</ele>
        <time>2022-10-20T10:52:31Z</time>
      </trkpt>
      <trkpt lat="49.09827" lon="2.08558">
        <ele>87.9</ele>
        <time>2022-10-20T10:52:36Z</time>
      </trkpt>
      <trkpt lat="49.09822" lon="2.0857">
        <ele>87.9</ele>
        <time>2022-10-20T10:52:40Z</time>
      </trkpt>
      <trkpt lat="49.09818" lon="2.08583">
        <ele>88.3</ele>
        <time>2022-10-20T10:52:46Z</time>
      </trkpt>
      <trkpt lat="49.09817" lon="2.08597">
        <ele>88.5</ele>
        <time>2022-10-20T10:52:59Z</time>
      </trkpt>
      <trkpt lat="49.09812" lon="2.08611">
        <ele>87.8</ele>
        <time>2022-10-20T10:53:06Z</time>
      </trkpt>
      <trkpt lat="49.09807" lon="2.08624">
        <ele>87.5</ele>
        <time>2022-10-20T10:53:11Z</time>
      </trkpt>
      <trkpt lat="49.09802" lon="2.08638">
        <ele>87</ele>
        <time>2022-10-20T10:53:23Z</time>
      </trkpt>
      <trkpt lat="49.09795" lon="2.0865">
        <ele>87.2</ele>
        <time>2022-10-20T10:53:30Z</time>
      </trkpt>
      <trkpt lat="49.0979" lon="2.08661">
        <ele>87.1</ele>
        <time>2022-10-20T10:53:36Z</time>
      </trkpt>
      <trkpt lat="49.09785" lon="2.08675">
        <ele>86.3</ele>
        <time>2022-10-20T10:53:50Z</time>
      </trkpt>
      <trkpt lat="49.09778" lon="2.08684">
        <ele>86.1</ele>
        <time>2022-10-20T10:53:55Z</time>
      </trkpt>
      <trkpt lat="49.09772" lon="2.08695">
        <ele>86</ele>
        <time>2022-10-20T10:54:00Z</time>
      </trkpt>
      <trkpt lat="49.09767" lon="2.08706">
        <ele>85.3</ele>
        <time>2022-10-20T10:54:08Z</time>
      </trkpt>
      <trkpt lat="49.09761" lon="2.08717">
        <ele>86.9</ele>
        <time>2022-10-20T10:54:16Z</time>
      </trkpt>
      <trkpt lat="49.09754" lon="2.08726">
        <ele>86.4</ele>
        <time>2022-10-20T10:54:23Z</time>
      </trkpt>
      <trkpt lat="49.09749" lon="2.08741">
        <ele>85.6</ele>
        <time>2022-10-20T10:54:37Z</time>
      </trkpt>
      <trkpt lat="49.09744" lon="2.08754">
        <ele>85.7</ele>
        <time>2022-10-20T10:54:42Z</time>
      </trkpt>
      <trkpt lat="49.0974" lon="2.08767">
        <ele>85.9</ele>
        <time>2022-10-20T10:54:50Z</time>
      </trkpt>
      <trkpt lat="49.09739" lon="2.08781">
        <ele>86.2</ele>
        <time>2022-10-20T10:55:02Z</time>
      </trkpt>
      <trkpt lat="49.09736" lon="2.08796">
        <ele>86.3</ele>
        <time>2022-10-20T10:55:09Z</time>
      </trkpt>
      <trkpt lat="49.09735" lon="2.08811">
        <ele>86.9</ele>
        <time>2022-10-20T10:55:17Z</time>
      </trkpt>
      <trkpt lat="49.09732" lon="2.08825">
        <ele>87.3</ele>
        <time>2022-10-20T10:55:25Z</time>
      </trkpt>
      <trkpt lat="49.09726" lon="2.08837">
        <ele>88</ele>
        <time>2022-10-20T10:55:33Z</time>
      </trkpt>
      <trkpt lat="49.09723" lon="2.08851">
        <ele>88.5</ele>
        <time>2022-10-20T10:55:41Z</time>
      </trkpt>
      <trkpt lat="49.0972" lon="2.08865">
        <ele>90.2</ele>
        <time>2022-10-20T10:55:51Z</time>
      </trkpt>
      <trkpt lat="49.09716" lon="2.08877">
        <ele>90.9</ele>
        <time>2022-10-20T10:55:58Z</time>
      </trkpt>
      <trkpt lat="49.09712" lon="2.08891">
        <ele>91.6</ele>
        <time>2022-10-20T10:56:07Z</time>
      </trkpt>
      <trkpt lat="49.09708" lon="2.08904">
        <ele>92</ele>
        <time>2022-10-20T10:56:16Z</time>
      </trkpt>
      <trkpt lat="49.09704" lon="2.08917">
        <ele>92.5</ele>
        <time>2022-10-20T10:56:24Z</time>
      </trkpt>
      <trkpt lat="49.09699" lon="2.0893">
        <ele>92.8</ele>
        <time>2022-10-20T10:56:31Z</time>
      </trkpt>
      <trkpt lat="49.09695" lon="2.08943">
        <ele>93.1</ele>
        <time>2022-10-20T10:56:39Z</time>
      </trkpt>
      <trkpt lat="49.09691" lon="2.08955">
        <ele>93.4</ele>
        <time>2022-10-20T10:56:48Z</time>
      </trkpt>
      <trkpt lat="49.09686" lon="2.0897">
        <ele>93.3</ele>
        <time>2022-10-20T10:56:57Z</time>
      </trkpt>
      <trkpt lat="49.09683" lon="2.08983">
        <ele>93.6</ele>
        <time>2022-10-20T10:57:06Z</time>
      </trkpt>
      <trkpt lat="49.09678" lon="2.08996">
        <ele>93.4</ele>
        <time>2022-10-20T10:57:12Z</time>
      </trkpt>
      <trkpt lat="49.09675" lon="2.0901">
        <ele>93</ele>
        <time>2022-10-20T10:57:22Z</time>
      </trkpt>
      <trkpt lat="49.09669" lon="2.09022">
        <ele>93.1</ele>
        <time>2022-10-20T10:57:30Z</time>
      </trkpt>
      <trkpt lat="49.09665" lon="2.09037">
        <ele>93.1</ele>
        <time>2022-10-20T10:57:39Z</time>
      </trkpt>
      <trkpt lat="49.0966" lon="2.09049">
        <ele>93.4</ele>
        <time>2022-10-20T10:57:45Z</time>
      </trkpt>
      <trkpt lat="49.09657" lon="2.09063">
        <ele>93.9</ele>
        <time>2022-10-20T10:57:54Z</time>
      </trkpt>
      <trkpt lat="49.09652" lon="2.09074">
        <ele>93.9</ele>
        <time>2022-10-20T10:58:01Z</time>
      </trkpt>
      <trkpt lat="49.09647" lon="2.09087">
        <ele>94</ele>
        <time>2022-10-20T10:58:08Z</time>
      </trkpt>
      <trkpt lat="49.09642" lon="2.09099">
        <ele>93.6</ele>
        <time>2022-10-20T10:58:17Z</time>
      </trkpt>
      <trkpt lat="49.09636" lon="2.09111">
        <ele>93.8</ele>
        <time>2022-10-20T10:58:25Z</time>
      </trkpt>
      <trkpt lat="49.0963" lon="2.09121">
        <ele>93.3</ele>
        <time>2022-10-20T10:58:33Z</time>
      </trkpt>
      <trkpt lat="49.09623" lon="2.09131">
        <ele>90.7</ele>
        <time>2022-10-20T10:58:42Z</time>
      </trkpt>
      <trkpt lat="49.09616" lon="2.09143">
        <ele>93.9</ele>
        <time>2022-10-20T10:58:51Z</time>
      </trkpt>
      <trkpt lat="49.09609" lon="2.09154">
        <ele>96.7</ele>
        <time>2022-10-20T10:58:59Z</time>
      </trkpt>
      <trkpt lat="49.09603" lon="2.09165">
        <ele>93.2</ele>
        <time>2022-10-20T10:59:08Z</time>
      </trkpt>
      <trkpt lat="49.09597" lon="2.09176">
        <ele>93.9</ele>
        <time>2022-10-20T10:59:16Z</time>
      </trkpt>
      <trkpt lat="49.09592" lon="2.09188">
        <ele>93.1</ele>
        <time>2022-10-20T10:59:25Z</time>
      </trkpt>
      <trkpt lat="49.09588" lon="2.09201">
        <ele>94.5</ele>
        <time>2022-10-20T10:59:34Z</time>
      </trkpt>
      <trkpt lat="49.09584" lon="2.09215">
        <ele>95.7</ele>
        <time>2022-10-20T10:59:43Z</time>
      </trkpt>
      <trkpt lat="49.09579" lon="2.09228">
        <ele>94.2</ele>
        <time>2022-10-20T10:59:51Z</time>
      </trkpt>
      <trkpt lat="49.09574" lon="2.09242">
        <ele>96.2</ele>
        <time>2022-10-20T10:59:59Z</time>
      </trkpt>
      <trkpt lat="49.09569" lon="2.09255">
        <ele>99.1</ele>
        <time>2022-10-20T11:00:07Z</time>
      </trkpt>
      <trkpt lat="49.09565" lon="2.09267">
        <ele>97.9</ele>
        <time>2022-10-20T11:00:15Z</time>
      </trkpt>
      <trkpt lat="49.0956" lon="2.09279">
        <ele>98.3</ele>
        <time>2022-10-20T11:00:25Z</time>
      </trkpt>
      <trkpt lat="49.09555" lon="2.09292">
        <ele>99.6</ele>
        <time>2022-10-20T11:00:34Z</time>
      </trkpt>
      <trkpt lat="49.09551" lon="2.09305">
        <ele>98.4</ele>
        <time>2022-10-20T11:00:42Z</time>
      </trkpt>
      <trkpt lat="49.09548" lon="2.09318">
        <ele>100.5</ele>
        <time>2022-10-20T11:00:53Z</time>
      </trkpt>
      <trkpt lat="49.09548" lon="2.09333">
        <ele>100</ele>
        <time>2022-10-20T11:04:08Z</time>
      </trkpt>
      <trkpt lat="49.09545" lon="2.09346">
        <ele>101</ele>
        <time>2022-10-20T11:04:18Z</time>
      </trkpt>
      <trkpt lat="49.09542" lon="2.0936">
        <ele>100.9</ele>
        <time>2022-10-20T11:04:27Z</time>
      </trkpt>
      <trkpt lat="49.09539" lon="2.09375">
        <ele>101.1</ele>
        <time>2022-10-20T11:04:37Z</time>
      </trkpt>
      <trkpt lat="49.09537" lon="2.09388">
        <ele>101.8</ele>
        <time>2022-10-20T11:04:44Z</time>
      </trkpt>
      <trkpt lat="49.09534" lon="2.09402">
        <ele>103.3</ele>
        <time>2022-10-20T11:04:53Z</time>
      </trkpt>
      <trkpt lat="49.09531" lon="2.09417">
        <ele>104.3</ele>
        <time>2022-10-20T11:05:04Z</time>
      </trkpt>
      <trkpt lat="49.09529" lon="2.09432">
        <ele>105.4</ele>
        <time>2022-10-20T11:05:13Z</time>
      </trkpt>
      <trkpt lat="49.09526" lon="2.09446">
        <ele>105.8</ele>
        <time>2022-10-20T11:05:24Z</time>
      </trkpt>
      <trkpt lat="49.09524" lon="2.09461">
        <ele>106.4</ele>
        <time>2022-10-20T11:05:32Z</time>
      </trkpt>
      <trkpt lat="49.0952" lon="2.09475">
        <ele>106.8</ele>
        <time>2022-10-20T11:05:42Z</time>
      </trkpt>
      <trkpt lat="49.09517" lon="2.0949">
        <ele>107.7</ele>
        <time>2022-10-20T11:05:50Z</time>
      </trkpt>
      <trkpt lat="49.09513" lon="2.09503">
        <ele>107.9</ele>
        <time>2022-10-20T11:05:58Z</time>
      </trkpt>
      <trkpt lat="49.09504" lon="2.09504">
        <ele>108.4</ele>
        <time>2022-10-20T11:06:08Z</time>
      </trkpt>
      <trkpt lat="49.09496" lon="2.09497">
        <ele>108.3</ele>
        <time>2022-10-20T11:06:34Z</time>
      </trkpt>
      <trkpt lat="49.09495" lon="2.09512">
        <ele>108.7</ele>
        <time>2022-10-20T11:07:10Z</time>
      </trkpt>
      <trkpt lat="49.09495" lon="2.09525">
        <ele>109.1</ele>
        <time>2022-10-20T11:07:18Z</time>
      </trkpt>
      <trkpt lat="49.09497" lon="2.09541">
        <ele>109.2</ele>
        <time>2022-10-20T11:07:26Z</time>
      </trkpt>
      <trkpt lat="49.09503" lon="2.09551">
        <ele>108.3</ele>
        <time>2022-10-20T11:07:48Z</time>
      </trkpt>
      <trkpt lat="49.09507" lon="2.09564">
        <ele>108.3</ele>
        <time>2022-10-20T11:07:58Z</time>
      </trkpt>
      <trkpt lat="49.09514" lon="2.09575">
        <ele>109</ele>
        <time>2022-10-20T11:08:07Z</time>
      </trkpt>
      <trkpt lat="49.0952" lon="2.09586">
        <ele>110.1</ele>
        <time>2022-10-20T11:08:14Z</time>
      </trkpt>
      <trkpt lat="49.09526" lon="2.09596">
        <ele>111.2</ele>
        <time>2022-10-20T11:08:25Z</time>
      </trkpt>
      <trkpt lat="49.09535" lon="2.09598">
        <ele>112</ele>
        <time>2022-10-20T11:08:38Z</time>
      </trkpt>
      <trkpt lat="49.09543" lon="2.09597">
        <ele>112.2</ele>
        <time>2022-10-20T11:12:51Z</time>
      </trkpt>
      <trkpt lat="49.09512" lon="2.0976">
        <ele>118.4</ele>
        <time>2022-10-20T11:56:15Z</time>
      </trkpt>
      <trkpt lat="49.09512" lon="2.09761">
        <ele>118.4</ele>
        <time>2022-10-20T11:56:16Z</time>
      </trkpt>
      <trkpt lat="49.09517" lon="2.09774">
        <ele>118.6</ele>
        <time>2022-10-20T11:56:26Z</time>
      </trkpt>
      <trkpt lat="49.09511" lon="2.09785">
        <ele>117.8</ele>
        <time>2022-10-20T11:56:36Z</time>
      </trkpt>
      <trkpt lat="49.09502" lon="2.0979">
        <ele>117.2</ele>
        <time>2022-10-20T11:56:45Z</time>
      </trkpt>
      <trkpt lat="49.09493" lon="2.09795">
        <ele>116.6</ele>
        <time>2022-10-20T11:56:53Z</time>
      </trkpt>
      <trkpt lat="49.09484" lon="2.09799">
        <ele>116.3</ele>
        <time>2022-10-20T11:57:02Z</time>
      </trkpt>
      <trkpt lat="49.09476" lon="2.09805">
        <ele>116.4</ele>
        <time>2022-10-20T11:57:10Z</time>
      </trkpt>
      <trkpt lat="49.09467" lon="2.0981">
        <ele>116.3</ele>
        <time>2022-10-20T11:57:18Z</time>
      </trkpt>
      <trkpt lat="49.09458" lon="2.09815">
        <ele>115.9</ele>
        <time>2022-10-20T11:57:25Z</time>
      </trkpt>
      <trkpt lat="49.09448" lon="2.0982">
        <ele>116.3</ele>
        <time>2022-10-20T11:57:34Z</time>
      </trkpt>
      <trkpt lat="49.0944" lon="2.09825">
        <ele>116.6</ele>
        <time>2022-10-20T11:57:42Z</time>
      </trkpt>
      <trkpt lat="49.09431" lon="2.09831">
        <ele>116.7</ele>
        <time>2022-10-20T11:58:10Z</time>
      </trkpt>
      <trkpt lat="49.09422" lon="2.09836">
        <ele>117</ele>
        <time>2022-10-20T11:58:20Z</time>
      </trkpt>
      <trkpt lat="49.09413" lon="2.0984">
        <ele>117</ele>
        <time>2022-10-20T11:58:26Z</time>
      </trkpt>
      <trkpt lat="49.09403" lon="2.09844">
        <ele>116.9</ele>
        <time>2022-10-20T11:58:31Z</time>
      </trkpt>
      <trkpt lat="49.09395" lon="2.09849">
        <ele>116.8</ele>
        <time>2022-10-20T11:58:36Z</time>
      </trkpt>
      <trkpt lat="49.09386" lon="2.09854">
        <ele>116.7</ele>
        <time>2022-10-20T11:58:42Z</time>
      </trkpt>
      <trkpt lat="49.09376" lon="2.09858">
        <ele>116.9</ele>
        <time>2022-10-20T11:58:49Z</time>
      </trkpt>
      <trkpt lat="49.09366" lon="2.0986">
        <ele>116.7</ele>
        <time>2022-10-20T11:58:56Z</time>
      </trkpt>
      <trkpt lat="49.09358" lon="2.09863">
        <ele>116.5</ele>
        <time>2022-10-20T11:59:03Z</time>
      </trkpt>
      <trkpt lat="49.09348" lon="2.09867">
        <ele>116.2</ele>
        <time>2022-10-20T11:59:15Z</time>
      </trkpt>
      <trkpt lat="49.09338" lon="2.0987">
        <ele>116.2</ele>
        <time>2022-10-20T11:59:25Z</time>
      </trkpt>
      <trkpt lat="49.09328" lon="2.09872">
        <ele>116.1</ele>
        <time>2022-10-20T11:59:31Z</time>
      </trkpt>
      <trkpt lat="49.09319" lon="2.09874">
        <ele>116</ele>
        <time>2022-10-20T11:59:36Z</time>
      </trkpt>
      <trkpt lat="49.09309" lon="2.09874">
        <ele>115.7</ele>
        <time>2022-10-20T11:59:42Z</time>
      </trkpt>
      <trkpt lat="49.093" lon="2.09879">
        <ele>115.7</ele>
        <time>2022-10-20T11:59:52Z</time>
      </trkpt>
      <trkpt lat="49.0929" lon="2.09881">
        <ele>115.6</ele>
        <time>2022-10-20T12:00:03Z</time>
      </trkpt>
      <trkpt lat="49.0928" lon="2.09883">
        <ele>115.5</ele>
        <time>2022-10-20T12:00:12Z</time>
      </trkpt>
      <trkpt lat="49.0927" lon="2.09886">
        <ele>115.7</ele>
        <time>2022-10-20T12:00:18Z</time>
      </trkpt>
      <trkpt lat="49.0926" lon="2.09888">
        <ele>115.6</ele>
        <time>2022-10-20T12:00:24Z</time>
      </trkpt>
      <trkpt lat="49.09251" lon="2.0989">
        <ele>115.6</ele>
        <time>2022-10-20T12:00:34Z</time>
      </trkpt>
      <trkpt lat="49.09242" lon="2.0989">
        <ele>115.4</ele>
        <time>2022-10-20T12:00:41Z</time>
      </trkpt>
      <trkpt lat="49.09233" lon="2.09894">
        <ele>115.2</ele>
        <time>2022-10-20T12:00:48Z</time>
      </trkpt>
      <trkpt lat="49.09224" lon="2.09898">
        <ele>115.6</ele>
        <time>2022-10-20T12:00:57Z</time>
      </trkpt>
      <trkpt lat="49.09214" lon="2.09901">
        <ele>114.9</ele>
        <time>2022-10-20T12:01:06Z</time>
      </trkpt>
      <trkpt lat="49.09203" lon="2.09901">
        <ele>114.8</ele>
        <time>2022-10-20T12:01:12Z</time>
      </trkpt>
      <trkpt lat="49.09194" lon="2.09904">
        <ele>114.7</ele>
        <time>2022-10-20T12:01:19Z</time>
      </trkpt>
      <trkpt lat="49.09185" lon="2.09909">
        <ele>114.7</ele>
        <time>2022-10-20T12:01:27Z</time>
      </trkpt>
      <trkpt lat="49.09175" lon="2.09909">
        <ele>114.7</ele>
        <time>2022-10-20T12:01:35Z</time>
      </trkpt>
      <trkpt lat="49.09166" lon="2.09902">
        <ele>114.4</ele>
        <time>2022-10-20T12:01:40Z</time>
      </trkpt>
      <trkpt lat="49.09156" lon="2.09902">
        <ele>114.2</ele>
        <time>2022-10-20T12:01:51Z</time>
      </trkpt>
      <trkpt lat="49.09149" lon="2.09909">
        <ele>113.8</ele>
        <time>2022-10-20T12:01:59Z</time>
      </trkpt>
      <trkpt lat="49.09139" lon="2.09914">
        <ele>113.8</ele>
        <time>2022-10-20T12:02:07Z</time>
      </trkpt>
      <trkpt lat="49.09129" lon="2.09918">
        <ele>114.2</ele>
        <time>2022-10-20T12:02:14Z</time>
      </trkpt>
      <trkpt lat="49.0912" lon="2.09923">
        <ele>113.8</ele>
        <time>2022-10-20T12:02:21Z</time>
      </trkpt>
      <trkpt lat="49.09112" lon="2.09928">
        <ele>113.5</ele>
        <time>2022-10-20T12:02:28Z</time>
      </trkpt>
      <trkpt lat="49.09103" lon="2.09935">
        <ele>113.3</ele>
        <time>2022-10-20T12:02:40Z</time>
      </trkpt>
      <trkpt lat="49.09094" lon="2.09941">
        <ele>113.8</ele>
        <time>2022-10-20T12:02:47Z</time>
      </trkpt>
      <trkpt lat="49.09086" lon="2.09946">
        <ele>113.9</ele>
        <time>2022-10-20T12:02:54Z</time>
      </trkpt>
      <trkpt lat="49.09078" lon="2.09952">
        <ele>114</ele>
        <time>2022-10-20T12:03:01Z</time>
      </trkpt>
      <trkpt lat="49.0907" lon="2.0996">
        <ele>114.4</ele>
        <time>2022-10-20T12:03:08Z</time>
      </trkpt>
      <trkpt lat="49.09062" lon="2.09967">
        <ele>114.1</ele>
        <time>2022-10-20T12:03:16Z</time>
      </trkpt>
      <trkpt lat="49.09054" lon="2.09973">
        <ele>113.4</ele>
        <time>2022-10-20T12:03:25Z</time>
      </trkpt>
      <trkpt lat="49.09045" lon="2.0998">
        <ele>113.5</ele>
        <time>2022-10-20T12:03:30Z</time>
      </trkpt>
      <trkpt lat="49.09038" lon="2.09989">
        <ele>113.5</ele>
        <time>2022-10-20T12:03:44Z</time>
      </trkpt>
      <trkpt lat="49.0903" lon="2.09999">
        <ele>113.1</ele>
        <time>2022-10-20T12:03:53Z</time>
      </trkpt>
      <trkpt lat="49.09022" lon="2.10004">
        <ele>113.2</ele>
        <time>2022-10-20T12:04:02Z</time>
      </trkpt>
      <trkpt lat="49.09013" lon="2.1001">
        <ele>113.4</ele>
        <time>2022-10-20T12:04:07Z</time>
      </trkpt>
      <trkpt lat="49.09006" lon="2.10019">
        <ele>113.4</ele>
        <time>2022-10-20T12:04:19Z</time>
      </trkpt>
      <trkpt lat="49.08997" lon="2.10024">
        <ele>113.6</ele>
        <time>2022-10-20T12:04:25Z</time>
      </trkpt>
      <trkpt lat="49.08988" lon="2.10032">
        <ele>113.3</ele>
        <time>2022-10-20T12:04:34Z</time>
      </trkpt>
      <trkpt lat="49.0898" lon="2.1004">
        <ele>113.2</ele>
        <time>2022-10-20T12:04:43Z</time>
      </trkpt>
      <trkpt lat="49.08972" lon="2.10046">
        <ele>113.5</ele>
        <time>2022-10-20T12:04:51Z</time>
      </trkpt>
      <trkpt lat="49.08963" lon="2.10054">
        <ele>113.1</ele>
        <time>2022-10-20T12:05:01Z</time>
      </trkpt>
      <trkpt lat="49.08955" lon="2.10061">
        <ele>112</ele>
        <time>2022-10-20T12:05:11Z</time>
      </trkpt>
      <trkpt lat="49.08947" lon="2.10067">
        <ele>112.2</ele>
        <time>2022-10-20T12:05:17Z</time>
      </trkpt>
      <trkpt lat="49.08945" lon="2.10083">
        <ele>111.9</ele>
        <time>2022-10-20T12:05:41Z</time>
      </trkpt>
      <trkpt lat="49.08935" lon="2.10075">
        <ele>111.6</ele>
        <time>2022-10-20T12:05:50Z</time>
      </trkpt>
      <trkpt lat="49.08925" lon="2.10074">
        <ele>111</ele>
        <time>2022-10-20T12:05:55Z</time>
      </trkpt>
      <trkpt lat="49.08917" lon="2.10078">
        <ele>110.9</ele>
        <time>2022-10-20T12:06:03Z</time>
      </trkpt>
      <trkpt lat="49.08908" lon="2.10081">
        <ele>110.7</ele>
        <time>2022-10-20T12:06:09Z</time>
      </trkpt>
      <trkpt lat="49.08898" lon="2.10086">
        <ele>109.6</ele>
        <time>2022-10-20T12:06:19Z</time>
      </trkpt>
      <trkpt lat="49.08889" lon="2.10092">
        <ele>109.3</ele>
        <time>2022-10-20T12:06:27Z</time>
      </trkpt>
      <trkpt lat="49.08881" lon="2.10097">
        <ele>109</ele>
        <time>2022-10-20T12:06:34Z</time>
      </trkpt>
      <trkpt lat="49.08871" lon="2.101">
        <ele>108.5</ele>
        <time>2022-10-20T12:06:40Z</time>
      </trkpt>
      <trkpt lat="49.08862" lon="2.10104">
        <ele>107.7</ele>
        <time>2022-10-20T12:06:50Z</time>
      </trkpt>
      <trkpt lat="49.08852" lon="2.10107">
        <ele>107.4</ele>
        <time>2022-10-20T12:06:55Z</time>
      </trkpt>
      <trkpt lat="49.08842" lon="2.1011">
        <ele>107</ele>
        <time>2022-10-20T12:07:01Z</time>
      </trkpt>
      <trkpt lat="49.08834" lon="2.10117">
        <ele>106.5</ele>
        <time>2022-10-20T12:07:11Z</time>
      </trkpt>
      <trkpt lat="49.08825" lon="2.1012">
        <ele>105.8</ele>
        <time>2022-10-20T12:07:18Z</time>
      </trkpt>
      <trkpt lat="49.08815" lon="2.10122">
        <ele>105.5</ele>
        <time>2022-10-20T12:07:23Z</time>
      </trkpt>
      <trkpt lat="49.08807" lon="2.10128">
        <ele>104.7</ele>
        <time>2022-10-20T12:07:40Z</time>
      </trkpt>
      <trkpt lat="49.08798" lon="2.10132">
        <ele>103.9</ele>
        <time>2022-10-20T12:07:51Z</time>
      </trkpt>
      <trkpt lat="49.08788" lon="2.10134">
        <ele>104.3</ele>
        <time>2022-10-20T12:07:59Z</time>
      </trkpt>
      <trkpt lat="49.08779" lon="2.10139">
        <ele>104.1</ele>
        <time>2022-10-20T12:08:04Z</time>
      </trkpt>
      <trkpt lat="49.0877" lon="2.10139">
        <ele>103.3</ele>
        <time>2022-10-20T12:08:14Z</time>
      </trkpt>
      <trkpt lat="49.08761" lon="2.10142">
        <ele>102.6</ele>
        <time>2022-10-20T12:08:20Z</time>
      </trkpt>
      <trkpt lat="49.08752" lon="2.10145">
        <ele>102.2</ele>
        <time>2022-10-20T12:08:25Z</time>
      </trkpt>
      <trkpt lat="49.08743" lon="2.1015">
        <ele>102.5</ele>
        <time>2022-10-20T12:08:31Z</time>
      </trkpt>
      <trkpt lat="49.08733" lon="2.10153">
        <ele>102</ele>
        <time>2022-10-20T12:08:37Z</time>
      </trkpt>
      <trkpt lat="49.08723" lon="2.10156">
        <ele>101.2</ele>
        <time>2022-10-20T12:08:46Z</time>
      </trkpt>
      <trkpt lat="49.08715" lon="2.10161">
        <ele>100.8</ele>
        <time>2022-10-20T12:08:57Z</time>
      </trkpt>
      <trkpt lat="49.08705" lon="2.10166">
        <ele>100.2</ele>
        <time>2022-10-20T12:09:07Z</time>
      </trkpt>
      <trkpt lat="49.08696" lon="2.1017">
        <ele>99.8</ele>
        <time>2022-10-20T12:09:14Z</time>
      </trkpt>
      <trkpt lat="49.08686" lon="2.10174">
        <ele>99.7</ele>
        <time>2022-10-20T12:09:19Z</time>
      </trkpt>
      <trkpt lat="49.08677" lon="2.10179">
        <ele>99.7</ele>
        <time>2022-10-20T12:09:24Z</time>
      </trkpt>
      <trkpt lat="49.08667" lon="2.10183">
        <ele>99</ele>
        <time>2022-10-20T12:09:30Z</time>
      </trkpt>
      <trkpt lat="49.08658" lon="2.10188">
        <ele>98.3</ele>
        <time>2022-10-20T12:09:40Z</time>
      </trkpt>
      <trkpt lat="49.08649" lon="2.10191">
        <ele>97.6</ele>
        <time>2022-10-20T12:09:51Z</time>
      </trkpt>
      <trkpt lat="49.0864" lon="2.10197">
        <ele>97.4</ele>
        <time>2022-10-20T12:09:56Z</time>
      </trkpt>
      <trkpt lat="49.08632" lon="2.10202">
        <ele>97.2</ele>
        <time>2022-10-20T12:10:02Z</time>
      </trkpt>
      <trkpt lat="49.08623" lon="2.10209">
        <ele>96.5</ele>
        <time>2022-10-20T12:10:12Z</time>
      </trkpt>
      <trkpt lat="49.08615" lon="2.10217">
        <ele>96</ele>
        <time>2022-10-20T12:10:20Z</time>
      </trkpt>
      <trkpt lat="49.08605" lon="2.10224">
        <ele>95.6</ele>
        <time>2022-10-20T12:10:28Z</time>
      </trkpt>
      <trkpt lat="49.08597" lon="2.10231">
        <ele>95</ele>
        <time>2022-10-20T12:10:36Z</time>
      </trkpt>
      <trkpt lat="49.08589" lon="2.10241">
        <ele>95.3</ele>
        <time>2022-10-20T12:10:43Z</time>
      </trkpt>
      <trkpt lat="49.0858" lon="2.10245">
        <ele>94.3</ele>
        <time>2022-10-20T12:10:52Z</time>
      </trkpt>
      <trkpt lat="49.08571" lon="2.10251">
        <ele>91.4</ele>
        <time>2022-10-20T12:10:58Z</time>
      </trkpt>
      <trkpt lat="49.08563" lon="2.10257">
        <ele>93.2</ele>
        <time>2022-10-20T12:11:06Z</time>
      </trkpt>
      <trkpt lat="49.08554" lon="2.10261">
        <ele>93.7</ele>
        <time>2022-10-20T12:11:15Z</time>
      </trkpt>
      <trkpt lat="49.08544" lon="2.10263">
        <ele>94.1</ele>
        <time>2022-10-20T12:11:23Z</time>
      </trkpt>
      <trkpt lat="49.08535" lon="2.10271">
        <ele>93.9</ele>
        <time>2022-10-20T12:11:37Z</time>
      </trkpt>
      <trkpt lat="49.08528" lon="2.10283">
        <ele>91.9</ele>
        <time>2022-10-20T12:11:46Z</time>
      </trkpt>
      <trkpt lat="49.08519" lon="2.1029">
        <ele>92.1</ele>
        <time>2022-10-20T12:11:55Z</time>
      </trkpt>
      <trkpt lat="49.08512" lon="2.10298">
        <ele>93.4</ele>
        <time>2022-10-20T12:12:01Z</time>
      </trkpt>
      <trkpt lat="49.08503" lon="2.10306">
        <ele>93.5</ele>
        <time>2022-10-20T12:12:09Z</time>
      </trkpt>
      <trkpt lat="49.08495" lon="2.10315">
        <ele>93</ele>
        <time>2022-10-20T12:12:16Z</time>
      </trkpt>
      <trkpt lat="49.08487" lon="2.10324">
        <ele>93.4</ele>
        <time>2022-10-20T12:12:24Z</time>
      </trkpt>
      <trkpt lat="49.08479" lon="2.10331">
        <ele>93.9</ele>
        <time>2022-10-20T12:12:34Z</time>
      </trkpt>
      <trkpt lat="49.08471" lon="2.10338">
        <ele>96.8</ele>
        <time>2022-10-20T12:12:44Z</time>
      </trkpt>
      <trkpt lat="49.08463" lon="2.10346">
        <ele>96.1</ele>
        <time>2022-10-20T12:12:53Z</time>
      </trkpt>
      <trkpt lat="49.08456" lon="2.10355">
        <ele>96.4</ele>
        <time>2022-10-20T12:13:10Z</time>
      </trkpt>
      <trkpt lat="49.08447" lon="2.10361">
        <ele>95.8</ele>
        <time>2022-10-20T12:13:22Z</time>
      </trkpt>
      <trkpt lat="49.08439" lon="2.10369">
        <ele>96.7</ele>
        <time>2022-10-20T12:13:29Z</time>
      </trkpt>
      <trkpt lat="49.08431" lon="2.10375">
        <ele>97.1</ele>
        <time>2022-10-20T12:13:40Z</time>
      </trkpt>
      <trkpt lat="49.08422" lon="2.10383">
        <ele>97.2</ele>
        <time>2022-10-20T12:13:48Z</time>
      </trkpt>
      <trkpt lat="49.08415" lon="2.10394">
        <ele>95.7</ele>
        <time>2022-10-20T12:13:55Z</time>
      </trkpt>
      <trkpt lat="49.08408" lon="2.10405">
        <ele>97.2</ele>
        <time>2022-10-20T12:14:03Z</time>
      </trkpt>
      <trkpt lat="49.08399" lon="2.1041">
        <ele>95.9</ele>
        <time>2022-10-20T12:14:12Z</time>
      </trkpt>
      <trkpt lat="49.08391" lon="2.10418">
        <ele>97.3</ele>
        <time>2022-10-20T12:14:19Z</time>
      </trkpt>
      <trkpt lat="49.08383" lon="2.10427">
        <ele>98.8</ele>
        <time>2022-10-20T12:14:27Z</time>
      </trkpt>
      <trkpt lat="49.08376" lon="2.10436">
        <ele>99.8</ele>
        <time>2022-10-20T12:14:34Z</time>
      </trkpt>
      <trkpt lat="49.08369" lon="2.10445">
        <ele>99.8</ele>
        <time>2022-10-20T12:14:44Z</time>
      </trkpt>
      <trkpt lat="49.08364" lon="2.10457">
        <ele>99.6</ele>
        <time>2022-10-20T12:14:59Z</time>
      </trkpt>
      <trkpt lat="49.08356" lon="2.10464">
        <ele>99.4</ele>
        <time>2022-10-20T12:15:15Z</time>
      </trkpt>
      <trkpt lat="49.08347" lon="2.10469">
        <ele>99.8</ele>
        <time>2022-10-20T12:15:27Z</time>
      </trkpt>
      <trkpt lat="49.08338" lon="2.10479">
        <ele>102.9</ele>
        <time>2022-10-20T12:15:37Z</time>
      </trkpt>
      <trkpt lat="49.0833" lon="2.10487">
        <ele>102.4</ele>
        <time>2022-10-20T12:15:46Z</time>
      </trkpt>
      <trkpt lat="49.08324" lon="2.10496">
        <ele>99.8</ele>
        <time>2022-10-20T12:15:54Z</time>
      </trkpt>
      <trkpt lat="49.08315" lon="2.10503">
        <ele>101.5</ele>
        <time>2022-10-20T12:16:03Z</time>
      </trkpt>
      <trkpt lat="49.08307" lon="2.1051">
        <ele>101.3</ele>
        <time>2022-10-20T12:16:10Z</time>
      </trkpt>
      <trkpt lat="49.08298" lon="2.10516">
        <ele>101.2</ele>
        <time>2022-10-20T12:16:19Z</time>
      </trkpt>
      <trkpt lat="49.0829" lon="2.10523">
        <ele>102.7</ele>
        <time>2022-10-20T12:16:28Z</time>
      </trkpt>
      <trkpt lat="49.08281" lon="2.10532">
        <ele>101.7</ele>
        <time>2022-10-20T12:16:36Z</time>
      </trkpt>
      <trkpt lat="49.08273" lon="2.10538">
        <ele>103.3</ele>
        <time>2022-10-20T12:16:45Z</time>
      </trkpt>
      <trkpt lat="49.08265" lon="2.10547">
        <ele>102.6</ele>
        <time>2022-10-20T12:16:52Z</time>
      </trkpt>
      <trkpt lat="49.08257" lon="2.10557">
        <ele>102.2</ele>
        <time>2022-10-20T12:16:59Z</time>
      </trkpt>
      <trkpt lat="49.08249" lon="2.10565">
        <ele>102.9</ele>
        <time>2022-10-20T12:17:11Z</time>
      </trkpt>
      <trkpt lat="49.08241" lon="2.10573">
        <ele>102.2</ele>
        <time>2022-10-20T12:17:18Z</time>
      </trkpt>
      <trkpt lat="49.08233" lon="2.1058">
        <ele>104</ele>
        <time>2022-10-20T12:17:25Z</time>
      </trkpt>
      <trkpt lat="49.08226" lon="2.10591">
        <ele>105</ele>
        <time>2022-10-20T12:17:34Z</time>
      </trkpt>
      <trkpt lat="49.08218" lon="2.10599">
        <ele>103.9</ele>
        <time>2022-10-20T12:17:48Z</time>
      </trkpt>
      <trkpt lat="49.08209" lon="2.10608">
        <ele>101.5</ele>
        <time>2022-10-20T12:17:56Z</time>
      </trkpt>
      <trkpt lat="49.08201" lon="2.10617">
        <ele>104.9</ele>
        <time>2022-10-20T12:18:04Z</time>
      </trkpt>
      <trkpt lat="49.08192" lon="2.10625">
        <ele>104.4</ele>
        <time>2022-10-20T12:18:14Z</time>
      </trkpt>
      <trkpt lat="49.08184" lon="2.10634">
        <ele>105.5</ele>
        <time>2022-10-20T12:18:22Z</time>
      </trkpt>
      <trkpt lat="49.08176" lon="2.10644">
        <ele>105.4</ele>
        <time>2022-10-20T12:18:32Z</time>
      </trkpt>
      <trkpt lat="49.08168" lon="2.10652">
        <ele>107.1</ele>
        <time>2022-10-20T12:18:41Z</time>
      </trkpt>
      <trkpt lat="49.0816" lon="2.1066">
        <ele>107.6</ele>
        <time>2022-10-20T12:18:50Z</time>
      </trkpt>
      <trkpt lat="49.08152" lon="2.10666">
        <ele>107.1</ele>
        <time>2022-10-20T12:18:58Z</time>
      </trkpt>
      <trkpt lat="49.08143" lon="2.10672">
        <ele>108.3</ele>
        <time>2022-10-20T12:19:08Z</time>
      </trkpt>
      <trkpt lat="49.08135" lon="2.10677">
        <ele>107.8</ele>
        <time>2022-10-20T12:19:16Z</time>
      </trkpt>
      <trkpt lat="49.08127" lon="2.10687">
        <ele>107.4</ele>
        <time>2022-10-20T12:19:24Z</time>
      </trkpt>
      <trkpt lat="49.08118" lon="2.1069">
        <ele>108.6</ele>
        <time>2022-10-20T12:19:36Z</time>
      </trkpt>
      <trkpt lat="49.08109" lon="2.10694">
        <ele>109</ele>
        <time>2022-10-20T12:19:43Z</time>
      </trkpt>
      <trkpt lat="49.08101" lon="2.10701">
        <ele>110.1</ele>
        <time>2022-10-20T12:19:50Z</time>
      </trkpt>
      <trkpt lat="49.08092" lon="2.10711">
        <ele>109.4</ele>
        <time>2022-10-20T12:19:59Z</time>
      </trkpt>
      <trkpt lat="49.08084" lon="2.1072">
        <ele>109.6</ele>
        <time>2022-10-20T12:20:05Z</time>
      </trkpt>
      <trkpt lat="49.08075" lon="2.10729">
        <ele>110.4</ele>
        <time>2022-10-20T12:20:12Z</time>
      </trkpt>
      <trkpt lat="49.08068" lon="2.10737">
        <ele>110.8</ele>
        <time>2022-10-20T12:20:18Z</time>
      </trkpt>
      <trkpt lat="49.08059" lon="2.10744">
        <ele>111</ele>
        <time>2022-10-20T12:20:26Z</time>
      </trkpt>
      <trkpt lat="49.0805" lon="2.10752">
        <ele>111.7</ele>
        <time>2022-10-20T12:20:34Z</time>
      </trkpt>
      <trkpt lat="49.08043" lon="2.1076">
        <ele>111.8</ele>
        <time>2022-10-20T12:20:41Z</time>
      </trkpt>
      <trkpt lat="49.08035" lon="2.10766">
        <ele>110.8</ele>
        <time>2022-10-20T12:20:48Z</time>
      </trkpt>
      <trkpt lat="49.08026" lon="2.10772">
        <ele>111.5</ele>
        <time>2022-10-20T12:20:57Z</time>
      </trkpt>
      <trkpt lat="49.08017" lon="2.10777">
        <ele>111.1</ele>
        <time>2022-10-20T12:21:09Z</time>
      </trkpt>
      <trkpt lat="49.08008" lon="2.10779">
        <ele>111.3</ele>
        <time>2022-10-20T12:21:16Z</time>
      </trkpt>
      <trkpt lat="49.07999" lon="2.10784">
        <ele>111.8</ele>
        <time>2022-10-20T12:21:24Z</time>
      </trkpt>
      <trkpt lat="49.0799" lon="2.10792">
        <ele>112.3</ele>
        <time>2022-10-20T12:21:31Z</time>
      </trkpt>
      <trkpt lat="49.07981" lon="2.10801">
        <ele>112.4</ele>
        <time>2022-10-20T12:21:37Z</time>
      </trkpt>
      <trkpt lat="49.07973" lon="2.10809">
        <ele>112.8</ele>
        <time>2022-10-20T12:21:46Z</time>
      </trkpt>
      <trkpt lat="49.07963" lon="2.10816">
        <ele>112.1</ele>
        <time>2022-10-20T12:21:55Z</time>
      </trkpt>
      <trkpt lat="49.07954" lon="2.10819">
        <ele>110.7</ele>
        <time>2022-10-20T12:22:02Z</time>
      </trkpt>
      <trkpt lat="49.07947" lon="2.10828">
        <ele>111.9</ele>
        <time>2022-10-20T12:22:19Z</time>
      </trkpt>
      <trkpt lat="49.07944" lon="2.10843">
        <ele>109.7</ele>
        <time>2022-10-20T12:22:31Z</time>
      </trkpt>
      <trkpt lat="49.07941" lon="2.10857">
        <ele>110.9</ele>
        <time>2022-10-20T12:22:39Z</time>
      </trkpt>
      <trkpt lat="49.07933" lon="2.10852">
        <ele>111.9</ele>
        <time>2022-10-20T12:23:16Z</time>
      </trkpt>
      <trkpt lat="49.07931" lon="2.10866">
        <ele>111.8</ele>
        <time>2022-10-20T12:24:49Z</time>
      </trkpt>
      <trkpt lat="49.07925" lon="2.10879">
        <ele>111</ele>
        <time>2022-10-20T12:25:04Z</time>
      </trkpt>
      <trkpt lat="49.0792" lon="2.10891">
        <ele>111.3</ele>
        <time>2022-10-20T12:25:11Z</time>
      </trkpt>
      <trkpt lat="49.07916" lon="2.10904">
        <ele>111.9</ele>
        <time>2022-10-20T12:25:20Z</time>
      </trkpt>
      <trkpt lat="49.0791" lon="2.10915">
        <ele>111.7</ele>
        <time>2022-10-20T12:25:30Z</time>
      </trkpt>
      <trkpt lat="49.07903" lon="2.10925">
        <ele>111.3</ele>
        <time>2022-10-20T12:25:40Z</time>
      </trkpt>
      <trkpt lat="49.07898" lon="2.10936">
        <ele>111.3</ele>
        <time>2022-10-20T12:25:47Z</time>
      </trkpt>
      <trkpt lat="49.07894" lon="2.10949">
        <ele>111.3</ele>
        <time>2022-10-20T12:25:57Z</time>
      </trkpt>
      <trkpt lat="49.07887" lon="2.10961">
        <ele>112.8</ele>
        <time>2022-10-20T12:26:06Z</time>
      </trkpt>
      <trkpt lat="49.07881" lon="2.10972">
        <ele>111.8</ele>
        <time>2022-10-20T12:26:14Z</time>
      </trkpt>
      <trkpt lat="49.07874" lon="2.10983">
        <ele>111</ele>
        <time>2022-10-20T12:26:22Z</time>
      </trkpt>
      <trkpt lat="49.07867" lon="2.10993">
        <ele>111.6</ele>
        <time>2022-10-20T12:26:28Z</time>
      </trkpt>
      <trkpt lat="49.07862" lon="2.11004">
        <ele>111.4</ele>
        <time>2022-10-20T12:26:36Z</time>
      </trkpt>
      <trkpt lat="49.07856" lon="2.11015">
        <ele>112.1</ele>
        <time>2022-10-20T12:26:43Z</time>
      </trkpt>
      <trkpt lat="49.0785" lon="2.11026">
        <ele>112.1</ele>
        <time>2022-10-20T12:26:53Z</time>
      </trkpt>
      <trkpt lat="49.07846" lon="2.11039">
        <ele>111.5</ele>
        <time>2022-10-20T12:27:00Z</time>
      </trkpt>
      <trkpt lat="49.07839" lon="2.11051">
        <ele>111.7</ele>
        <time>2022-10-20T12:27:08Z</time>
      </trkpt>
      <trkpt lat="49.07833" lon="2.11062">
        <ele>112.1</ele>
        <time>2022-10-20T12:27:15Z</time>
      </trkpt>
      <trkpt lat="49.07828" lon="2.11074">
        <ele>112.3</ele>
        <time>2022-10-20T12:27:25Z</time>
      </trkpt>
      <trkpt lat="49.07823" lon="2.11086">
        <ele>111.5</ele>
        <time>2022-10-20T12:27:33Z</time>
      </trkpt>
      <trkpt lat="49.07817" lon="2.11098">
        <ele>112.1</ele>
        <time>2022-10-20T12:27:43Z</time>
      </trkpt>
      <trkpt lat="49.0781" lon="2.11108">
        <ele>111.5</ele>
        <time>2022-10-20T12:27:56Z</time>
      </trkpt>
      <trkpt lat="49.07803" lon="2.1112">
        <ele>111.6</ele>
        <time>2022-10-20T12:28:04Z</time>
      </trkpt>
      <trkpt lat="49.07797" lon="2.11132">
        <ele>111.6</ele>
        <time>2022-10-20T12:28:10Z</time>
      </trkpt>
      <trkpt lat="49.0779" lon="2.11142">
        <ele>110.9</ele>
        <time>2022-10-20T12:28:17Z</time>
      </trkpt>
      <trkpt lat="49.07783" lon="2.11151">
        <ele>111.4</ele>
        <time>2022-10-20T12:28:25Z</time>
      </trkpt>
      <trkpt lat="49.07775" lon="2.11159">
        <ele>111.4</ele>
        <time>2022-10-20T12:28:36Z</time>
      </trkpt>
      <trkpt lat="49.07768" lon="2.11168">
        <ele>111.8</ele>
        <time>2022-10-20T12:28:44Z</time>
      </trkpt>
      <trkpt lat="49.07762" lon="2.11178">
        <ele>112.6</ele>
        <time>2022-10-20T12:28:52Z</time>
      </trkpt>
      <trkpt lat="49.07755" lon="2.11188">
        <ele>110.9</ele>
        <time>2022-10-20T12:29:01Z</time>
      </trkpt>
      <trkpt lat="49.07748" lon="2.11198">
        <ele>111.7</ele>
        <time>2022-10-20T12:29:08Z</time>
      </trkpt>
      <trkpt lat="49.07741" lon="2.11207">
        <ele>111.5</ele>
        <time>2022-10-20T12:29:16Z</time>
      </trkpt>
      <trkpt lat="49.07734" lon="2.11217">
        <ele>111.3</ele>
        <time>2022-10-20T12:29:22Z</time>
      </trkpt>
      <trkpt lat="49.07727" lon="2.11226">
        <ele>112.2</ele>
        <time>2022-10-20T12:29:28Z</time>
      </trkpt>
      <trkpt lat="49.0772" lon="2.11236">
        <ele>111</ele>
        <time>2022-10-20T12:29:38Z</time>
      </trkpt>
      <trkpt lat="49.07712" lon="2.11245">
        <ele>111</ele>
        <time>2022-10-20T12:29:45Z</time>
      </trkpt>
      <trkpt lat="49.07704" lon="2.11254">
        <ele>110.4</ele>
        <time>2022-10-20T12:29:51Z</time>
      </trkpt>
      <trkpt lat="49.07702" lon="2.11268">
        <ele>109.2</ele>
        <time>2022-10-20T12:29:59Z</time>
      </trkpt>
      <trkpt lat="49.07699" lon="2.11281">
        <ele>109.6</ele>
        <time>2022-10-20T12:30:06Z</time>
      </trkpt>
      <trkpt lat="49.077" lon="2.11295">
        <ele>111.1</ele>
        <time>2022-10-20T12:30:13Z</time>
      </trkpt>
      <trkpt lat="49.07701" lon="2.1131">
        <ele>111.1</ele>
        <time>2022-10-20T12:30:31Z</time>
      </trkpt>
      <trkpt lat="49.0771" lon="2.11307">
        <ele>109</ele>
        <time>2022-10-20T12:30:58Z</time>
      </trkpt>
      <trkpt lat="49.077" lon="2.11313">
        <ele>109.1</ele>
        <time>2022-10-20T12:31:18Z</time>
      </trkpt>
      <trkpt lat="49.07692" lon="2.1132">
        <ele>110.3</ele>
        <time>2022-10-20T12:33:02Z</time>
      </trkpt>
      <trkpt lat="49.07683" lon="2.11317">
        <ele>109.8</ele>
        <time>2022-10-20T12:34:12Z</time>
      </trkpt>
      <trkpt lat="49.07673" lon="2.11318">
        <ele>109.7</ele>
        <time>2022-10-20T12:34:22Z</time>
      </trkpt>
      <trkpt lat="49.07664" lon="2.1132">
        <ele>111.1</ele>
        <time>2022-10-20T12:34:32Z</time>
      </trkpt>
      <trkpt lat="49.07655" lon="2.11322">
        <ele>111.8</ele>
        <time>2022-10-20T12:34:48Z</time>
      </trkpt>
      <trkpt lat="49.07645" lon="2.11326">
        <ele>110.9</ele>
        <time>2022-10-20T12:34:56Z</time>
      </trkpt>
      <trkpt lat="49.07636" lon="2.11327">
        <ele>111.2</ele>
        <time>2022-10-20T12:35:06Z</time>
      </trkpt>
      <trkpt lat="49.07626" lon="2.11327">
        <ele>105.3</ele>
        <time>2022-10-20T12:35:15Z</time>
      </trkpt>
      <trkpt lat="49.07617" lon="2.11327">
        <ele>110.3</ele>
        <time>2022-10-20T12:35:25Z</time>
      </trkpt>
      <trkpt lat="49.07607" lon="2.11326">
        <ele>111.3</ele>
        <time>2022-10-20T12:35:36Z</time>
      </trkpt>
      <trkpt lat="49.07598" lon="2.11321">
        <ele>111.3</ele>
        <time>2022-10-20T12:35:46Z</time>
      </trkpt>
      <trkpt lat="49.07589" lon="2.11318">
        <ele>110.2</ele>
        <time>2022-10-20T12:36:07Z</time>
      </trkpt>
      <trkpt lat="49.0758" lon="2.11314">
        <ele>110.4</ele>
        <time>2022-10-20T12:36:16Z</time>
      </trkpt>
      <trkpt lat="49.0757" lon="2.11309">
        <ele>111</ele>
        <time>2022-10-20T12:36:25Z</time>
      </trkpt>
      <trkpt lat="49.07562" lon="2.11303">
        <ele>108.8</ele>
        <time>2022-10-20T12:36:33Z</time>
      </trkpt>
      <trkpt lat="49.07553" lon="2.11297">
        <ele>111.3</ele>
        <time>2022-10-20T12:36:42Z</time>
      </trkpt>
      <trkpt lat="49.07545" lon="2.1129">
        <ele>107.3</ele>
        <time>2022-10-20T12:36:50Z</time>
      </trkpt>
      <trkpt lat="49.07537" lon="2.11282">
        <ele>109.4</ele>
        <time>2022-10-20T12:36:58Z</time>
      </trkpt>
      <trkpt lat="49.07542" lon="2.11269">
        <ele>109.8</ele>
        <time>2022-10-20T12:37:42Z</time>
      </trkpt>
      <trkpt lat="49.07549" lon="2.11259">
        <ele>108.1</ele>
        <time>2022-10-20T12:37:49Z</time>
      </trkpt>
      <trkpt lat="49.07555" lon="2.11249">
        <ele>111.4</ele>
        <time>2022-10-20T12:38:52Z</time>
      </trkpt>
      <trkpt lat="49.07548" lon="2.11258">
        <ele>113.5</ele>
        <time>2022-10-20T12:40:03Z</time>
      </trkpt>
      <trkpt lat="49.0754" lon="2.11269">
        <ele>110.4</ele>
        <time>2022-10-20T12:40:22Z</time>
      </trkpt>
      <trkpt lat="49.07535" lon="2.11281">
        <ele>109.9</ele>
        <time>2022-10-20T12:45:57Z</time>
      </trkpt>
      <trkpt lat="49.07527" lon="2.11275">
        <ele>112</ele>
        <time>2022-10-20T12:46:24Z</time>
      </trkpt>
      <trkpt lat="49.07519" lon="2.11267">
        <ele>112.7</ele>
        <time>2022-10-20T12:46:34Z</time>
      </trkpt>
      <trkpt lat="49.07511" lon="2.1126">
        <ele>111.8</ele>
        <time>2022-10-20T12:46:43Z</time>
      </trkpt>
      <trkpt lat="49.07502" lon="2.11253">
        <ele>109.7</ele>
        <time>2022-10-20T12:46:52Z</time>
      </trkpt>
      <trkpt lat="49.07494" lon="2.11245">
        <ele>109.9</ele>
        <time>2022-10-20T12:47:00Z</time>
      </trkpt>
      <trkpt lat="49.07486" lon="2.11236">
        <ele>111.7</ele>
        <time>2022-10-20T12:47:09Z</time>
      </trkpt>
      <trkpt lat="49.07478" lon="2.11229">
        <ele>110.3</ele>
        <time>2022-10-20T12:47:17Z</time>
      </trkpt>
      <trkpt lat="49.0747" lon="2.1122">
        <ele>111.7</ele>
        <time>2022-10-20T12:47:26Z</time>
      </trkpt>
      <trkpt lat="49.07462" lon="2.11212">
        <ele>109.3</ele>
        <time>2022-10-20T12:47:35Z</time>
      </trkpt>
      <trkpt lat="49.07454" lon="2.11203">
        <ele>110.4</ele>
        <time>2022-10-20T12:47:44Z</time>
      </trkpt>
      <trkpt lat="49.07447" lon="2.11195">
        <ele>109.3</ele>
        <time>2022-10-20T12:47:52Z</time>
      </trkpt>
      <trkpt lat="49.07439" lon="2.11186">
        <ele>109.4</ele>
        <time>2022-10-20T12:47:59Z</time>
      </trkpt>
      <trkpt lat="49.07432" lon="2.11178">
        <ele>108.2</ele>
        <time>2022-10-20T12:48:07Z</time>
      </trkpt>
      <trkpt lat="49.07424" lon="2.11169">
        <ele>106.8</ele>
        <time>2022-10-20T12:48:14Z</time>
      </trkpt>
      <trkpt lat="49.07416" lon="2.11162">
        <ele>110</ele>
        <time>2022-10-20T12:48:23Z</time>
      </trkpt>
      <trkpt lat="49.07408" lon="2.11154">
        <ele>108.6</ele>
        <time>2022-10-20T12:48:30Z</time>
      </trkpt>
      <trkpt lat="49.07399" lon="2.11146">
        <ele>107.7</ele>
        <time>2022-10-20T12:48:40Z</time>
      </trkpt>
      <trkpt lat="49.07391" lon="2.11138">
        <ele>109.4</ele>
        <time>2022-10-20T12:48:49Z</time>
      </trkpt>
      <trkpt lat="49.07383" lon="2.11128">
        <ele>107.3</ele>
        <time>2022-10-20T12:48:57Z</time>
      </trkpt>
      <trkpt lat="49.07376" lon="2.11119">
        <ele>107.9</ele>
        <time>2022-10-20T12:49:05Z</time>
      </trkpt>
      <trkpt lat="49.07367" lon="2.11111">
        <ele>106.6</ele>
        <time>2022-10-20T12:49:13Z</time>
      </trkpt>
      <trkpt lat="49.07359" lon="2.11104">
        <ele>107.9</ele>
        <time>2022-10-20T12:49:21Z</time>
      </trkpt>
      <trkpt lat="49.07351" lon="2.11095">
        <ele>107.3</ele>
        <time>2022-10-20T12:49:29Z</time>
      </trkpt>
      <trkpt lat="49.07343" lon="2.11088">
        <ele>108.6</ele>
        <time>2022-10-20T12:49:37Z</time>
      </trkpt>
      <trkpt lat="49.07336" lon="2.1108">
        <ele>108.3</ele>
        <time>2022-10-20T12:49:44Z</time>
      </trkpt>
      <trkpt lat="49.07328" lon="2.11069">
        <ele>107.7</ele>
        <time>2022-10-20T12:49:52Z</time>
      </trkpt>
      <trkpt lat="49.0732" lon="2.11063">
        <ele>106.5</ele>
        <time>2022-10-20T12:50:00Z</time>
      </trkpt>
      <trkpt lat="49.07311" lon="2.11057">
        <ele>105</ele>
        <time>2022-10-20T12:50:07Z</time>
      </trkpt>
      <trkpt lat="49.07303" lon="2.1105">
        <ele>105.4</ele>
        <time>2022-10-20T12:50:16Z</time>
      </trkpt>
      <trkpt lat="49.07295" lon="2.11041">
        <ele>105.1</ele>
        <time>2022-10-20T12:50:24Z</time>
      </trkpt>
      <trkpt lat="49.07287" lon="2.11034">
        <ele>98.9</ele>
        <time>2022-10-20T12:50:33Z</time>
      </trkpt>
      <trkpt lat="49.07279" lon="2.11028">
        <ele>103.7</ele>
        <time>2022-10-20T12:50:40Z</time>
      </trkpt>
      <trkpt lat="49.0727" lon="2.1102">
        <ele>104</ele>
        <time>2022-10-20T12:50:48Z</time>
      </trkpt>
      <trkpt lat="49.07263" lon="2.11011">
        <ele>103.2</ele>
        <time>2022-10-20T12:50:56Z</time>
      </trkpt>
      <trkpt lat="49.07256" lon="2.11002">
        <ele>102.3</ele>
        <time>2022-10-20T12:51:03Z</time>
      </trkpt>
      <trkpt lat="49.07251" lon="2.10989">
        <ele>101.4</ele>
        <time>2022-10-20T12:51:12Z</time>
      </trkpt>
      <trkpt lat="49.07242" lon="2.10985">
        <ele>103.5</ele>
        <time>2022-10-20T12:51:20Z</time>
      </trkpt>
      <trkpt lat="49.07234" lon="2.10979">
        <ele>101.3</ele>
        <time>2022-10-20T12:51:31Z</time>
      </trkpt>
      <trkpt lat="49.07228" lon="2.10966">
        <ele>97.4</ele>
        <time>2022-10-20T12:51:41Z</time>
      </trkpt>
      <trkpt lat="49.0722" lon="2.10958">
        <ele>96.1</ele>
        <time>2022-10-20T12:51:49Z</time>
      </trkpt>
      <trkpt lat="49.07213" lon="2.10949">
        <ele>98.8</ele>
        <time>2022-10-20T12:51:57Z</time>
      </trkpt>
      <trkpt lat="49.07206" lon="2.10939">
        <ele>99.6</ele>
        <time>2022-10-20T12:52:04Z</time>
      </trkpt>
      <trkpt lat="49.07198" lon="2.10932">
        <ele>97.1</ele>
        <time>2022-10-20T12:52:11Z</time>
      </trkpt>
      <trkpt lat="49.0719" lon="2.10923">
        <ele>97.5</ele>
        <time>2022-10-20T12:52:19Z</time>
      </trkpt>
      <trkpt lat="49.07181" lon="2.10915">
        <ele>96.7</ele>
        <time>2022-10-20T12:52:27Z</time>
      </trkpt>
      <trkpt lat="49.07172" lon="2.10909">
        <ele>95.6</ele>
        <time>2022-10-20T12:52:35Z</time>
      </trkpt>
      <trkpt lat="49.07164" lon="2.10903">
        <ele>98.6</ele>
        <time>2022-10-20T12:52:42Z</time>
      </trkpt>
      <trkpt lat="49.07155" lon="2.10895">
        <ele>96.6</ele>
        <time>2022-10-20T12:52:50Z</time>
      </trkpt>
      <trkpt lat="49.07147" lon="2.10888">
        <ele>92.2</ele>
        <time>2022-10-20T12:52:58Z</time>
      </trkpt>
      <trkpt lat="49.07138" lon="2.10882">
        <ele>94</ele>
        <time>2022-10-20T12:53:07Z</time>
      </trkpt>
      <trkpt lat="49.07128" lon="2.10876">
        <ele>95.9</ele>
        <time>2022-10-20T12:53:14Z</time>
      </trkpt>
      <trkpt lat="49.07119" lon="2.10872">
        <ele>95.5</ele>
        <time>2022-10-20T12:53:22Z</time>
      </trkpt>
      <trkpt lat="49.07109" lon="2.10867">
        <ele>95.9</ele>
        <time>2022-10-20T12:53:29Z</time>
      </trkpt>
      <trkpt lat="49.071" lon="2.10864">
        <ele>95.7</ele>
        <time>2022-10-20T12:53:37Z</time>
      </trkpt>
      <trkpt lat="49.0709" lon="2.10862">
        <ele>94.7</ele>
        <time>2022-10-20T12:53:45Z</time>
      </trkpt>
      <trkpt lat="49.0708" lon="2.10859">
        <ele>94.1</ele>
        <time>2022-10-20T12:53:53Z</time>
      </trkpt>
      <trkpt lat="49.07071" lon="2.10858">
        <ele>94.7</ele>
        <time>2022-10-20T12:54:01Z</time>
      </trkpt>
      <trkpt lat="49.07061" lon="2.10855">
        <ele>92.9</ele>
        <time>2022-10-20T12:54:08Z</time>
      </trkpt>
      <trkpt lat="49.07052" lon="2.10852">
        <ele>94.5</ele>
        <time>2022-10-20T12:54:15Z</time>
      </trkpt>
      <trkpt lat="49.07042" lon="2.10852">
        <ele>92.9</ele>
        <time>2022-10-20T12:54:24Z</time>
      </trkpt>
      <trkpt lat="49.07032" lon="2.10847">
        <ele>92.7</ele>
        <time>2022-10-20T12:54:32Z</time>
      </trkpt>
      <trkpt lat="49.07023" lon="2.10845">
        <ele>92.8</ele>
        <time>2022-10-20T12:54:41Z</time>
      </trkpt>
      <trkpt lat="49.07014" lon="2.1084">
        <ele>93.7</ele>
        <time>2022-10-20T12:54:49Z</time>
      </trkpt>
      <trkpt lat="49.07004" lon="2.10838">
        <ele>93.3</ele>
        <time>2022-10-20T12:54:57Z</time>
      </trkpt>
      <trkpt lat="49.06994" lon="2.10836">
        <ele>90.9</ele>
        <time>2022-10-20T12:55:05Z</time>
      </trkpt>
      <trkpt lat="49.06985" lon="2.10833">
        <ele>92.6</ele>
        <time>2022-10-20T12:55:13Z</time>
      </trkpt>
      <trkpt lat="49.06975" lon="2.10831">
        <ele>90.8</ele>
        <time>2022-10-20T12:55:21Z</time>
      </trkpt>
      <trkpt lat="49.06965" lon="2.10826">
        <ele>89.6</ele>
        <time>2022-10-20T12:55:29Z</time>
      </trkpt>
      <trkpt lat="49.06956" lon="2.10824">
        <ele>90.4</ele>
        <time>2022-10-20T12:55:37Z</time>
      </trkpt>
      <trkpt lat="49.06946" lon="2.1082">
        <ele>90.4</ele>
        <time>2022-10-20T12:55:45Z</time>
      </trkpt>
      <trkpt lat="49.06937" lon="2.10818">
        <ele>90.8</ele>
        <time>2022-10-20T12:55:53Z</time>
      </trkpt>
      <trkpt lat="49.06927" lon="2.10818">
        <ele>91.4</ele>
        <time>2022-10-20T12:56:05Z</time>
      </trkpt>
      <trkpt lat="49.06917" lon="2.1082">
        <ele>91</ele>
        <time>2022-10-20T12:58:51Z</time>
      </trkpt>
      <trkpt lat="49.06908" lon="2.10822">
        <ele>91</ele>
        <time>2022-10-20T12:59:00Z</time>
      </trkpt>
      <trkpt lat="49.06899" lon="2.10826">
        <ele>92</ele>
        <time>2022-10-20T12:59:09Z</time>
      </trkpt>
      <trkpt lat="49.0689" lon="2.10829">
        <ele>90.9</ele>
        <time>2022-10-20T12:59:18Z</time>
      </trkpt>
      <trkpt lat="49.06882" lon="2.10835">
        <ele>90.5</ele>
        <time>2022-10-20T12:59:26Z</time>
      </trkpt>
      <trkpt lat="49.06874" lon="2.10844">
        <ele>90.3</ele>
        <time>2022-10-20T12:59:40Z</time>
      </trkpt>
      <trkpt lat="49.06865" lon="2.10848">
        <ele>89.1</ele>
        <time>2022-10-20T12:59:48Z</time>
      </trkpt>
      <trkpt lat="49.06856" lon="2.10852">
        <ele>88.7</ele>
        <time>2022-10-20T12:59:56Z</time>
      </trkpt>
      <trkpt lat="49.06847" lon="2.10856">
        <ele>89.8</ele>
        <time>2022-10-20T13:00:04Z</time>
      </trkpt>
      <trkpt lat="49.06838" lon="2.10862">
        <ele>87.8</ele>
        <time>2022-10-20T13:00:12Z</time>
      </trkpt>
      <trkpt lat="49.06829" lon="2.10865">
        <ele>88.5</ele>
        <time>2022-10-20T13:00:20Z</time>
      </trkpt>
      <trkpt lat="49.0682" lon="2.1087">
        <ele>88</ele>
        <time>2022-10-20T13:00:29Z</time>
      </trkpt>
      <trkpt lat="49.0681" lon="2.10873">
        <ele>88.7</ele>
        <time>2022-10-20T13:00:38Z</time>
      </trkpt>
      <trkpt lat="49.06801" lon="2.10876">
        <ele>87.7</ele>
        <time>2022-10-20T13:00:48Z</time>
      </trkpt>
      <trkpt lat="49.06791" lon="2.1088">
        <ele>87.1</ele>
        <time>2022-10-20T13:01:04Z</time>
      </trkpt>
      <trkpt lat="49.06781" lon="2.10884">
        <ele>87.4</ele>
        <time>2022-10-20T13:01:11Z</time>
      </trkpt>
      <trkpt lat="49.06772" lon="2.10888">
        <ele>87.2</ele>
        <time>2022-10-20T13:01:19Z</time>
      </trkpt>
      <trkpt lat="49.06762" lon="2.10894">
        <ele>86.7</ele>
        <time>2022-10-20T13:01:28Z</time>
      </trkpt>
      <trkpt lat="49.06753" lon="2.10899">
        <ele>84</ele>
        <time>2022-10-20T13:01:37Z</time>
      </trkpt>
      <trkpt lat="49.06744" lon="2.10902">
        <ele>83.3</ele>
        <time>2022-10-20T13:01:45Z</time>
      </trkpt>
      <trkpt lat="49.06735" lon="2.10907">
        <ele>82.4</ele>
        <time>2022-10-20T13:01:51Z</time>
      </trkpt>
      <trkpt lat="49.06726" lon="2.10912">
        <ele>80</ele>
        <time>2022-10-20T13:02:11Z</time>
      </trkpt>
      <trkpt lat="49.06716" lon="2.10918">
        <ele>81</ele>
        <time>2022-10-20T13:02:18Z</time>
      </trkpt>
      <trkpt lat="49.06708" lon="2.10924">
        <ele>77.1</ele>
        <time>2022-10-20T13:02:25Z</time>
      </trkpt>
      <trkpt lat="49.06698" lon="2.10924">
        <ele>79.9</ele>
        <time>2022-10-20T13:02:32Z</time>
      </trkpt>
      <trkpt lat="49.0669" lon="2.10917">
        <ele>81.5</ele>
        <time>2022-10-20T13:02:40Z</time>
      </trkpt>
      <trkpt lat="49.06682" lon="2.10922">
        <ele>80.1</ele>
        <time>2022-10-20T13:02:49Z</time>
      </trkpt>
      <trkpt lat="49.06673" lon="2.10928">
        <ele>80.8</ele>
        <time>2022-10-20T13:03:00Z</time>
      </trkpt>
      <trkpt lat="49.06664" lon="2.10925">
        <ele>80.2</ele>
        <time>2022-10-20T13:03:06Z</time>
      </trkpt>
      <trkpt lat="49.06656" lon="2.10915">
        <ele>79.6</ele>
        <time>2022-10-20T13:03:15Z</time>
      </trkpt>
      <trkpt lat="49.0665" lon="2.10905">
        <ele>79.8</ele>
        <time>2022-10-20T13:03:22Z</time>
      </trkpt>
      <trkpt lat="49.06643" lon="2.10894">
        <ele>78.9</ele>
        <time>2022-10-20T13:03:31Z</time>
      </trkpt>
      <trkpt lat="49.06637" lon="2.10884">
        <ele>74.4</ele>
        <time>2022-10-20T13:03:39Z</time>
      </trkpt>
      <trkpt lat="49.06629" lon="2.10875">
        <ele>76.1</ele>
        <time>2022-10-20T13:03:53Z</time>
      </trkpt>
      <trkpt lat="49.06624" lon="2.10862">
        <ele>76.8</ele>
        <time>2022-10-20T13:04:06Z</time>
      </trkpt>
      <trkpt lat="49.06616" lon="2.10853">
        <ele>78.2</ele>
        <time>2022-10-20T13:04:16Z</time>
      </trkpt>
      <trkpt lat="49.06609" lon="2.10844">
        <ele>79.4</ele>
        <time>2022-10-20T13:04:28Z</time>
      </trkpt>
      <trkpt lat="49.06603" lon="2.10833">
        <ele>78.5</ele>
        <time>2022-10-20T13:04:38Z</time>
      </trkpt>
      <trkpt lat="49.06593" lon="2.10829">
        <ele>77.9</ele>
        <time>2022-10-20T13:04:50Z</time>
      </trkpt>
      <trkpt lat="49.06584" lon="2.10823">
        <ele>78.4</ele>
        <time>2022-10-20T13:04:58Z</time>
      </trkpt>
      <trkpt lat="49.06574" lon="2.10819">
        <ele>80.7</ele>
        <time>2022-10-20T13:05:08Z</time>
      </trkpt>
      <trkpt lat="49.06565" lon="2.10816">
        <ele>82.1</ele>
        <time>2022-10-20T13:05:18Z</time>
      </trkpt>
      <trkpt lat="49.06555" lon="2.10817">
        <ele>80</ele>
        <time>2022-10-20T13:05:28Z</time>
      </trkpt>
      <trkpt lat="49.06546" lon="2.10818">
        <ele>81.6</ele>
        <time>2022-10-20T13:05:36Z</time>
      </trkpt>
      <trkpt lat="49.06536" lon="2.10818">
        <ele>80.9</ele>
        <time>2022-10-20T13:05:45Z</time>
      </trkpt>
      <trkpt lat="49.06527" lon="2.10816">
        <ele>80</ele>
        <time>2022-10-20T13:05:54Z</time>
      </trkpt>
      <trkpt lat="49.06517" lon="2.10818">
        <ele>82.8</ele>
        <time>2022-10-20T13:06:02Z</time>
      </trkpt>
      <trkpt lat="49.06508" lon="2.10823">
        <ele>82.5</ele>
        <time>2022-10-20T13:06:12Z</time>
      </trkpt>
      <trkpt lat="49.065" lon="2.1083">
        <ele>82.4</ele>
        <time>2022-10-20T13:06:24Z</time>
      </trkpt>
      <trkpt lat="49.06492" lon="2.1084">
        <ele>84.1</ele>
        <time>2022-10-20T13:06:34Z</time>
      </trkpt>
      <trkpt lat="49.06485" lon="2.10849">
        <ele>87</ele>
        <time>2022-10-20T13:06:42Z</time>
      </trkpt>
      <trkpt lat="49.06484" lon="2.10863">
        <ele>89</ele>
        <time>2022-10-20T13:06:54Z</time>
      </trkpt>
      <trkpt lat="49.06478" lon="2.10874">
        <ele>88.2</ele>
        <time>2022-10-20T13:07:05Z</time>
      </trkpt>
      <trkpt lat="49.0647" lon="2.10882">
        <ele>89</ele>
        <time>2022-10-20T13:07:12Z</time>
      </trkpt>
      <trkpt lat="49.06465" lon="2.10894">
        <ele>90.6</ele>
        <time>2022-10-20T13:07:22Z</time>
      </trkpt>
      <trkpt lat="49.06462" lon="2.10908">
        <ele>92.5</ele>
        <time>2022-10-20T13:07:34Z</time>
      </trkpt>
      <trkpt lat="49.06454" lon="2.10915">
        <ele>93.5</ele>
        <time>2022-10-20T13:07:55Z</time>
      </trkpt>
      <trkpt lat="49.06445" lon="2.10913">
        <ele>93.7</ele>
        <time>2022-10-20T13:08:17Z</time>
      </trkpt>
      <trkpt lat="49.06435" lon="2.10912">
        <ele>92.6</ele>
        <time>2022-10-20T13:08:32Z</time>
      </trkpt>
      <trkpt lat="49.06444" lon="2.10919">
        <ele>92.7</ele>
        <time>2022-10-20T13:08:57Z</time>
      </trkpt>
      <trkpt lat="49.06454" lon="2.1092">
        <ele>93</ele>
        <time>2022-10-20T13:09:21Z</time>
      </trkpt>
      <trkpt lat="49.06462" lon="2.10924">
        <ele>92.6</ele>
        <time>2022-10-20T13:09:40Z</time>
      </trkpt>
      <trkpt lat="49.06471" lon="2.10929">
        <ele>93.6</ele>
        <time>2022-10-20T13:09:54Z</time>
      </trkpt>
      <trkpt lat="49.06478" lon="2.10937">
        <ele>92.9</ele>
        <time>2022-10-20T13:10:02Z</time>
      </trkpt>
      <trkpt lat="49.06486" lon="2.10947">
        <ele>91.6</ele>
        <time>2022-10-20T13:10:12Z</time>
      </trkpt>
      <trkpt lat="49.06494" lon="2.10956">
        <ele>94.3</ele>
        <time>2022-10-20T13:10:24Z</time>
      </trkpt>
      <trkpt lat="49.06503" lon="2.10963">
        <ele>92.7</ele>
        <time>2022-10-20T13:10:34Z</time>
      </trkpt>
      <trkpt lat="49.06511" lon="2.10971">
        <ele>91.6</ele>
        <time>2022-10-20T13:10:44Z</time>
      </trkpt>
      <trkpt lat="49.06518" lon="2.1098">
        <ele>92.1</ele>
        <time>2022-10-20T13:10:52Z</time>
      </trkpt>
      <trkpt lat="49.06526" lon="2.10988">
        <ele>92.3</ele>
        <time>2022-10-20T13:10:58Z</time>
      </trkpt>
      <trkpt lat="49.06534" lon="2.10997">
        <ele>92.8</ele>
        <time>2022-10-20T13:11:10Z</time>
      </trkpt>
      <trkpt lat="49.06541" lon="2.11008">
        <ele>89.7</ele>
        <time>2022-10-20T13:11:20Z</time>
      </trkpt>
      <trkpt lat="49.06548" lon="2.11017">
        <ele>93.4</ele>
        <time>2022-10-20T13:11:32Z</time>
      </trkpt>
      <trkpt lat="49.06557" lon="2.11022">
        <ele>93.1</ele>
        <time>2022-10-20T13:11:42Z</time>
      </trkpt>
      <trkpt lat="49.06566" lon="2.11023">
        <ele>91.2</ele>
        <time>2022-10-20T13:12:04Z</time>
      </trkpt>
      <trkpt lat="49.06576" lon="2.11028">
        <ele>91.6</ele>
        <time>2022-10-20T13:12:13Z</time>
      </trkpt>
      <trkpt lat="49.06584" lon="2.11034">
        <ele>90.8</ele>
        <time>2022-10-20T13:12:24Z</time>
      </trkpt>
      <trkpt lat="49.06591" lon="2.11043">
        <ele>91.7</ele>
        <time>2022-10-20T13:13:56Z</time>
      </trkpt>
      <trkpt lat="49.06583" lon="2.11036">
        <ele>92.7</ele>
        <time>2022-10-20T13:15:58Z</time>
      </trkpt>
      <trkpt lat="49.06574" lon="2.11034">
        <ele>93.1</ele>
        <time>2022-10-20T13:16:49Z</time>
      </trkpt>
      <trkpt lat="49.06583" lon="2.11033">
        <ele>92</ele>
        <time>2022-10-20T13:17:41Z</time>
      </trkpt>
      <trkpt lat="49.06574" lon="2.11028">
        <ele>93.2</ele>
        <time>2022-10-20T13:18:02Z</time>
      </trkpt>
      <trkpt lat="49.06564" lon="2.11028">
        <ele>92.3</ele>
        <time>2022-10-20T13:19:45Z</time>
      </trkpt>
      <trkpt lat="49.06558" lon="2.1104">
        <ele>92.7</ele>
        <time>2022-10-20T13:25:32Z</time>
      </trkpt>
      <trkpt lat="49.06553" lon="2.11051">
        <ele>94.9</ele>
        <time>2022-10-20T13:25:43Z</time>
      </trkpt>
      <trkpt lat="49.06545" lon="2.11057">
        <ele>95.3</ele>
        <time>2022-10-20T13:26:03Z</time>
      </trkpt>
    </trkseg>
  </trk>
</gpx>